[[{"header":{"parameterUnit":"m.s-1","parameterCategory":1,"la1":30.6,"la2":28.766,"lo1":-90.7593,"lo2":-88.6598,"dy":0.0162,"dx":0.0183,"nx":116,"ny":114,"refTime":"2023-04-24T18:00:00:Z","depth":0,"parameterNumber":2,"parameterNumberName":"U-component_of_WINDS"},"data":[0.0,0.0,0.0,0.0,0.0,0.0,0.0,0.0,0.0,0.0,0.0,0.0,0.0,0.0,0.0,0.0,0.0,0.0,0.0,0.0,0.0,0.0,0.0,0.0,0.0,0.0,0.0,0.0,0.0,0.0,0.0,0.0,0.0,0.0,0.0,0.0,0.0,0.0,0.0,0.0,0.0,0.0,0.0,0.0,0.0,0.0,0.0,0.0,0.0,0.0,0.0,0.0,0.0,0.0,0.0,0.0,0.0,0.0,0.0,0.0,0.0,0.0,0.0,0.0,0.0,0.0,0.0,0.0,0.0,0.0,0.0,0.0,0.0,0.0,0.0,0.0,0.0,0.0,0.0,0.0,0.0,0.0,0.0,0.0,0.0,0.0,0.0,0.0,0.0,0.0,0.0,0.0,0.0,0.0,0.0,0.0,0.0,0.0,0.0,0.0,0.0,0.0,0.0,0.0,0.0,0.0,0.0,0.0,0.0,0.0,0.0,0.0,0.0,0.0,0.0,0.0,0.0,0.0,0.0,0.0,0.0,0.0,0.0,0.0,0.0,0.0,0.0,0.0,0.0,0.0,0.0,0.0,0.0,0.0,0.0,0.0,0.0,0.0,0.0,0.0,0.0,0.0,0.0,0.0,0.0,0.0,0.0,0.0,0.0,0.0,0.0,0.0,0.0,0.0,0.0,0.0,0.0,0.0,0.0,0.0,0.0,0.0,0.0,0.0,0.0,0.0,0.0,0.0,0.0,0.0,0.0,0.0,0.0,0.0,0.0,0.0,0.0,0.0,0.0,0.0,0.0,0.0,0.0,0.0,0.0,0.0,0.0,0.0,0.0,0.0,0.0,0.0,0.0,0.0,0.0,0.0,0.0,0.0,0.0,0.0,0.0,0.0,0.0,0.0,0.0,0.0,0.0,0.0,0.0,0.0,0.0,0.0,0.0,0.0,0.0,0.0,0.0,0.0,0.0,0.0,0.0,0.0,0.0,0.0,0.0,0.0,0.0,0.0,0.0,0.0,0.0,0.0,0.0,0.0,0.0,0.0,0.0,0.0,0.0,0.0,0.0,0.0,0.0,0.0,0.0,0.0,0.0,0.0,0.0,0.0,0.0,0.0,0.0,0.0,0.0,0.0,0.0,0.0,0.0,0.0,0.0,0.0,0.0,0.0,0.0,0.0,0.0,0.0,0.0,0.0,0.0,0.0,0.0,0.0,0.0,0.0,0.0,0.0,0.0,0.0,0.0,0.0,0.0,0.0,0.0,0.0,0.0,0.0,0.0,0.0,0.0,0.0,0.0,0.0,0.0,0.0,0.0,0.0,0.0,0.0,0.0,0.0,0.0,0.0,0.0,0.0,0.0,0.0,0.0,0.0,0.0,0.0,0.0,0.0,0.0,0.0,0.0,0.0,0.0,0.0,0.0,0.0,0.0,0.0,0.0,0.0,0.0,0.0,0.0,0.0,0.0,0.0,0.0,0.0,0.0,0.0,0.0,0.0,0.0,0.0,0.0,0.0,0.0,0.0,0.0,0.0,0.0,0.0,0.0,0.0,0.0,0.0,0.0,0.0,0.0,0.0,0.0,0.0,0.0,0.0,0.0,0.0,0.0,0.0,0.0,0.0,0.0,0.0,0.0,0.0,0.0,0.0,0.0,0.0,0.0,0.0,0.0,0.0,0.0,0.0,0.0,0.0,0.0,0.0,0.0,0.0,0.0,0.0,0.0,0.0,0.0,0.0,0.0,0.0,0.0,0.0,0.0,0.0,0.0,0.0,0.0,0.0,0.0,0.0,0.0,0.0,0.0,0.0,0.0,0.0,0.0,0.0,0.0,0.0,0.0,0.0,0.0,0.0,0.0,0.0,0.0,0.0,0.0,0.0,0.0,0.0,0.0,0.0,0.0,0.0,0.0,0.0,0.0,0.0,0.0,0.0,0.0,0.0,0.0,0.0,0.0,0.0,0.0,0.0,0.0,0.0,0.0,0.0,0.0,0.0,0.0,0.0,0.0,0.0,0.0,0.0,0.0,0.0,0.0,0.0,0.0,0.0,0.0,0.0,0.0,0.0,0.0,0.0,0.0,0.0,0.0,0.0,0.0,0.0,0.0,0.0,0.0,0.0,0.0,0.0,0.0,0.0,0.0,0.0,0.0,0.0,0.0,0.0,0.0,0.0,0.0,0.0,0.0,0.0,0.0,0.0,0.0,0.0,0.0,0.0,0.0,0.0,0.0,0.0,0.0,0.0,0.0,0.0,0.0,0.0,0.0,0.0,0.0,0.0,0.0,0.0,0.0,0.0,0.0,0.0,0.0,0.0,0.0,0.0,0.0,0.0,0.0,0.0,0.0,0.0,0.0,0.0,0.0,0.0,0.0,0.0,0.0,0.0,0.0,0.0,0.0,0.0,0.0,0.0,0.0,0.0,0.0,0.0,0.0,0.0,0.0,0.0,0.0,0.0,0.0,0.0,0.0,0.0,0.0,0.0,0.0,0.0,0.0,0.0,0.0,0.0,0.0,0.0,0.0,0.0,0.0,0.0,0.0,0.0,0.0,0.0,0.0,0.0,0.0,0.0,0.0,0.0,0.0,0.0,0.0,0.0,0.0,0.0,0.0,0.0,0.0,0.0,0.0,0.0,0.0,0.0,0.0,0.0,0.0,0.0,0.0,0.0,0.0,0.0,0.0,0.0,0.0,0.0,0.0,0.0,0.0,0.0,0.0,0.0,0.0,0.0,0.0,0.0,0.0,0.0,0.0,0.0,0.0,0.0,0.0,0.0,0.0,0.0,0.0,0.0,0.0,0.0,0.0,0.0,0.0,0.0,0.0,0.0,0.0,0.0,0.0,0.0,0.0,0.0,0.0,0.0,0.0,0.0,0.0,0.0,0.0,0.0,0.0,0.0,0.0,0.0,0.0,0.0,0.0,0.0,0.0,0.0,0.0,0.0,0.0,0.0,0.0,0.0,0.0,0.0,0.0,0.0,0.0,0.0,0.0,0.0,0.0,0.0,0.0,0.0,0.0,0.0,0.0,0.0,0.0,0.0,0.0,0.0,0.0,0.0,0.0,0.0,0.0,0.0,0.0,0.0,0.0,0.0,0.0,0.0,0.0,0.0,0.0,0.0,0.0,0.0,0.0,0.0,0.0,0.0,0.0,0.0,0.0,0.0,0.0,0.0,0.0,0.0,0.0,0.0,0.0,0.0,0.0,0.0,0.0,0.0,0.0,0.0,0.0,0.0,0.0,0.0,0.0,0.0,0.0,0.0,0.0,0.0,0.0,0.0,0.0,0.0,0.0,0.0,0.0,0.0,0.0,0.0,0.0,0.0,0.0,0.0,0.0,0.0,0.0,0.0,0.0,0.0,0.0,0.0,0.0,0.0,0.0,0.0,0.0,0.0,0.0,0.0,0.0,0.0,0.0,0.0,0.0,0.0,0.0,0.0,0.0,0.0,0.0,0.0,0.0,0.0,0.0,0.0,0.0,0.0,0.0,0.0,0.0,0.0,0.0,0.0,0.0,0.0,0.0,0.0,0.0,0.0,0.0,0.0,0.0,0.0,0.0,0.0,0.0,0.0,0.0,0.0,0.0,0.0,0.0,0.0,0.0,0.0,0.0,0.0,0.0,0.0,0.0,0.0,0.0,0.0,0.0,0.0,0.0,0.0,0.0,0.0,0.0,0.0,0.0,0.0,0.0,0.0,0.0,0.0,0.0,0.0,0.0,0.0,0.0,0.0,0.0,0.0,0.0,0.0,0.0,0.0,0.0,0.0,0.0,0.0,0.0,0.0,0.0,0.0,0.0,0.0,0.0,0.0,0.0,0.0,0.0,0.0,0.0,0.0,0.0,0.0,0.0,0.0,0.0,0.0,0.0,0.0,0.0,0.0,0.0,0.0,0.0,0.0,0.0,0.0,0.0,0.0,0.0,0.0,0.0,0.0,0.0,0.0,0.0,0.0,0.0,0.0,0.0,0.0,0.0,0.0,0.0,0.0,0.0,0.0,0.0,0.0,0.0,0.0,0.0,0.0,0.0,0.0,0.0,0.0,0.0,0.0,0.0,0.0,0.0,0.0,0.0,0.0,0.0,0.0,0.0,0.0,0.0,0.0,0.0,0.0,0.0,0.0,0.0,0.0,0.0,0.0,0.0,0.0,0.0,0.0,0.0,0.0,0.0,0.0,0.0,0.0,0.0,0.0,0.0,0.0,0.0,0.0,0.0,0.0,0.0,0.0,0.0,0.0,0.0,0.0,0.0,0.0,0.0,0.0,0.0,0.0,0.0,0.0,0.0,0.0,0.0,0.0,0.0,0.0,0.0,0.0,0.0,0.0,0.0,0.0,0.0,0.0,0.0,0.0,0.0,0.0,0.0,0.0,0.0,0.0,0.0,0.0,0.0,0.0,0.0,0.0,0.0,0.0,0.0,0.0,0.0,0.0,0.0,0.0,0.0,0.0,0.0,0.0,0.0,0.0,0.0,0.0,0.0,0.0,0.0,0.0,0.0,0.0,0.0,0.0,0.0,0.0,0.0,0.0,0.0,0.0,0.0,0.0,0.0,0.0,0.0,0.0,0.0,0.0,0.0,0.0,0.0,0.0,0.0,0.0,0.0,0.0,0.0,0.0,0.0,0.0,0.0,0.0,0.0,0.0,0.0,0.0,0.0,0.0,0.0,0.0,0.0,0.0,0.0,0.0,0.0,0.0,0.0,0.0,0.0,0.0,0.0,0.0,0.0,0.0,0.0,0.0,0.0,0.0,0.0,0.0,0.0,0.0,0.0,0.0,0.0,0.0,0.0,0.0,0.0,0.0,0.0,0.0,0.0,0.0,0.0,0.0,0.0,0.0,0.0,0.0,0.0,0.0,0.0,0.0,0.0,0.0,0.0,0.0,0.0,0.0,0.0,0.0,0.0,0.0,0.0,0.0,0.0,0.0,0.0,0.0,0.0,0.0,0.0,0.0,0.0,0.0,0.0,0.0,0.0,0.0,0.0,0.0,0.0,0.0,0.0,0.0,0.0,0.0,0.0,0.0,0.0,0.0,0.0,0.0,0.0,0.0,0.0,0.0,0.0,0.0,0.0,0.0,0.0,0.0,0.0,0.0,0.0,0.0,0.0,0.0,0.0,0.0,0.0,0.0,0.0,0.0,0.0,0.0,0.0,0.0,0.0,0.0,0.0,0.0,0.0,0.0,0.0,0.0,0.0,0.0,0.0,0.0,0.0,0.0,0.0,0.0,0.0,0.0,0.0,0.0,0.0,0.0,0.0,0.0,0.0,0.0,0.0,0.0,0.0,0.0,0.0,0.0,0.0,0.0,0.0,0.0,0.0,0.0,0.0,0.0,0.0,0.0,0.0,0.0,0.0,0.0,0.0,0.0,0.0,0.0,0.0,0.0,0.0,0.0,0.0,0.0,0.0,0.0,0.0,0.0,0.0,0.0,0.0,0.0,0.0,0.0,0.0,0.0,0.0,0.0,0.0,0.0,0.0,0.0,0.0,0.0,0.0,0.0,0.0,0.0,0.0,0.0,0.0,0.0,0.0,0.0,0.0,0.0,0.0,0.0,0.0,0.0,0.0,0.0,0.0,0.0,0.0,0.0,0.0,0.0,0.0,0.0,0.0,0.0,0.0,0.0,0.0,0.0,0.0,0.0,0.0,0.0,0.0,0.0,0.0,0.0,0.0,0.0,0.0,0.0,0.0,0.0,0.0,0.0,0.0,0.0,0.0,0.0,0.0,0.0,0.0,0.0,0.0,0.0,0.0,0.0,0.0,0.0,0.0,0.0,0.0,0.0,0.0,0.0,0.0,0.0,0.0,0.0,0.0,0.0,0.0,0.0,0.0,0.0,0.0,0.0,0.0,0.0,0.0,0.0,0.0,0.0,0.0,0.0,0.0,0.0,0.0,0.0,0.0,0.0,0.0,0.0,0.0,0.0,0.0,0.0,0.0,0.0,0.0,0.0,0.0,0.0,0.0,0.0,0.0,0.0,0.0,0.0,0.0,0.0,0.0,0.0,0.0,0.0,0.0,0.0,0.0,0.0,0.0,0.0,0.0,0.0,0.0,0.0,0.0,0.0,0.0,0.0,0.0,0.0,0.0,0.0,0.0,0.0,0.0,0.0,-0.2621,0.0,0.0,0.0,0.0,0.0,0.0,0.0,0.0,0.0,0.0,0.0,0.0,0.0,0.0,0.0,0.0,0.0,0.0,0.0,0.0,0.0,0.0,0.0,0.0,0.0,0.0,0.0,0.0,0.0,0.0,0.0,0.0,0.0,0.0,0.0,0.0,0.0,0.0,0.0,0.3583,0.3622,0.3661,0.43,0.4558,0.4466,0.0,0.0,0.0,0.0,0.0,0.0,0.0,0.0,0.0,0.0,0.0,0.0,0.0,0.0,0.0,0.0,0.0,0.0,0.0,0.0,0.0,0.0,0.0,0.0,0.0,0.0,0.0,0.0,0.0,0.0,0.0,0.0,0.0,0.0,0.0,0.0,0.0,0.0,0.0,0.0,0.0,0.0,0.0,0.0,0.0,0.0,0.0,0.0,0.0,0.0,0.0,0.0,0.0,0.0,0.0,0.0,0.0,0.0,0.0,0.0,0.0,0.0,0.0,0.0,0.0,0.0,0.0,0.0,0.0,0.0,0.0,-0.4228,0.0,0.0,0.0,0.0,0.0,0.0,0.0,0.0,0.0,0.0,0.0,0.0,0.0,0.0,0.0,0.0,0.0,0.0,0.0,0.0,0.0,0.0,0.0,0.0,-0.0913,-0.0128,0.021,0.0,0.0,0.0,0.0,0.0,0.0,0.0,0.0,0.3006,0.3076,0.3298,0.3315,0.3401,0.3658,0.486,0.5289,0.5144,0.6106,0.0,0.0,0.0,0.0,0.0,0.0,0.0,0.0,0.0,0.0,0.0,0.0,0.0,0.0,0.0,0.0,0.0,0.0,0.0,0.0,0.0,0.0,0.0,0.0,0.0,0.0,0.0,0.0,0.0,0.0,0.0,0.0,0.0,0.0,0.0,0.0,0.0,0.0,0.0,0.0,0.0,0.0,0.0,0.0,0.0,0.0,0.0,0.0,0.0,0.0,0.0,0.0,0.0,0.0,0.0,0.0,0.0,0.0,0.0,0.0,0.0,0.0,0.0,-0.1602,-0.1684,-0.1482,-0.1085,-0.174,-0.3321,-0.5985,-0.625,-0.4821,0.0,0.0,0.0,0.0,0.0,0.0,0.0,0.0,0.0,0.0,0.0,0.0,0.0,0.0,0.0,0.0,0.0,0.0,0.0,0.0,0.0,0.0,-0.1065,-0.0412,-0.0355,-0.0249,0.0121,0.0,0.0,0.0,0.0,0.0,0.0,0.2425,0.293,0.3215,0.3321,0.3312,0.3641,0.4282,0.5299,0.5948,0.6388,0.6798,0.655,0.5829,0.0,0.0,0.0,0.0,0.0,0.0,0.0,0.0,0.0,0.0,0.0,0.0,0.0,0.0,0.0,0.0,0.0,0.0,0.0,0.0,0.0,0.0,0.0,0.0,0.0,0.0,0.0,0.0,0.0,0.0,0.0,0.0,0.0,0.0,0.0,0.0,0.0,0.0,0.0,0.0,0.0,0.3504,0.3294,0.0,0.0,0.0,0.0,0.0,0.0,0.0,0.0,0.0,0.0,0.0,0.0,0.0,0.0063,0.0128,-0.0414,-0.0778,-0.0902,-0.1597,-0.198,-0.1902,-0.1861,-0.27,-0.4349,-0.5289,0.0,-0.6036,-0.559,0.0,0.0,0.0,0.0,0.0,0.0,0.0,0.0,0.0,0.0,0.0,0.0,0.0,0.0,0.0,0.0,0.0,0.0,0.0,0.0,0.0,-0.1216,-0.087,-0.0602,-0.045,-0.0044,0.0697,0.0,0.0,0.0,0.0,0.1842,0.2303,0.2608,0.2921,0.3324,0.3275,0.369,0.451,0.5586,0.635,0.6786,0.7542,0.7472,0.6819,0.6561,0.0,0.0,0.0,0.0,0.0,0.0,0.0,0.0,0.0,0.0,0.0,0.0,0.0,0.0,0.0,0.0,0.0,0.0,0.0,0.0,0.0,0.0,0.0,0.0,0.0,0.0,0.0,0.0,0.0,0.0,0.0,0.0,0.0,0.0,0.0,0.0,0.0,0.0,0.0,0.3801,0.3674,0.3571,0.3443,0.3348,0.0,0.0,0.0,0.0,0.0,0.0,0.0,0.0,0.0,-0.0071,-0.0354,-0.065,-0.098,-0.1246,-0.1417,-0.1481,-0.187,-0.199,-0.1991,-0.1843,-0.2522,-0.3777,-0.4362,-0.5086,-0.583,-0.5798,-0.5613,-0.5229,0.0,0.0,0.0,0.0,-0.5705,-0.579,0.0,0.0,0.0,0.0,0.0,0.0,0.0,0.0,0.0,0.0,0.0,0.0,-0.1189,-0.1178,-0.11,-0.0772,-0.0384,-0.0,0.0324,0.0543,0.0,0.0,0.0,0.1692,0.2273,0.2579,0.2912,0.3388,0.3561,0.4062,0.4928,0.5996,0.6822,0.7536,0.8027,0.8102,0.7709,0.6819,0.6556,0.6734,0.0,0.0,0.0,0.0,0.0,0.0,0.0,0.0,0.0,0.0,0.0,0.0,0.0,0.0,0.0,0.0,0.0,0.0,0.0,0.0,0.0,0.0,0.0,0.0,0.0,0.0,0.0,0.0,0.0,0.0,0.0,0.0,0.0,0.0,0.0,0.0,0.0,0.388,0.396,0.3845,0.3821,0.368,0.0,0.0,0.0,0.0,0.0,0.0,0.0415,0.007,-0.0362,-0.0932,-0.1012,-0.1277,-0.1764,-0.1849,-0.185,-0.1851,-0.1946,-0.2035,-0.195,-0.2131,-0.2648,-0.3585,-0.4263,-0.5012,-0.5877,-0.6076,-0.6113,-0.6043,-0.5894,-0.5818,-0.5966,-0.6435,-0.6623,-0.6708,0.0,0.0,0.0,0.0,0.0,0.0,0.0,0.0,0.0,0.0,0.0,-0.1233,-0.1188,-0.0745,-0.0556,-0.08,0.0049,0.0193,-0.06,0.0722,0.1314,0.0738,0.1628,0.2219,0.232,0.3132,0.3615,0.3699,0.4352,0.5202,0.6112,0.6439,0.7491,0.9018,0.8044,0.7658,0.7699,0.7935,0.7659,0.7175,0.7493,0.0,0.0,0.0,0.0,0.0,0.0,0.0,0.0,0.0,0.0,0.0,0.0,0.0,0.0,0.0,0.0,0.0,0.0,0.0,0.0,0.0,0.0,0.0,0.0,0.0,0.0,0.0,0.0,0.0,0.0,0.0,0.0,0.0,0.0,0.0,0.0,0.0,0.0,0.4118,0.4395,0.0,0.0,0.0,0.0,0.0666,0.048,0.0214,-0.03,-0.0693,-0.1116,-0.1753,-0.184,-0.1843,-0.1681,-0.1934,-0.1767,-0.1348,-0.1891,-0.1996,-0.1823,-0.3006,-0.3922,-0.4634,-0.5606,-0.6337,-0.6816,-0.6888,-0.6795,-0.6611,-0.6729,-0.6643,-0.6414,-0.6997,-0.7183,-0.7285,0.0,0.0,0.0,0.0,0.0,0.0,0.0,0.0,0.0,-0.2284,-0.1824,-0.1558,-0.1559,-0.1121,-0.0858,-0.1054,-0.0331,0.0055,-0.0167,0.0902,0.1543,0.1493,0.2065,0.2615,0.3036,0.3474,0.3741,0.3818,0.4233,0.4882,0.5711,0.6409,0.7359,0.8423,0.8558,0.8664,0.8618,0.8191,0.7857,0.7652,0.7583,0.7396,0.0,0.0,0.0,0.0,0.0,0.0,0.0,0.0,0.0,0.0,0.0,0.0,0.0,0.0,0.0,0.0,0.0,0.0,0.0,0.0,0.0,0.0,0.0,0.0,0.0,0.0,0.0,0.0,0.0,0.0,0.0,0.0,0.0,0.0,0.0,0.0,0.0,0.4265,0.4553,0.0,0.4163,0.3105,0.2005,0.0965,0.0077,-0.0637,-0.1296,-0.1389,-0.1498,-0.1716,-0.1803,-0.1816,-0.1754,-0.2017,-0.2018,-0.1844,-0.2034,-0.213,-0.213,-0.2946,-0.3848,-0.4648,-0.545,-0.6313,-0.7061,-0.727,-0.7256,-0.7256,-0.75,-0.7623,-0.7825,-0.802,-0.8089,-0.8126,0.0,0.0,0.0,0.0,0.0,0.0,0.0,0.0,-0.2362,-0.204,-0.1695,-0.1565,-0.1703,-0.1427,-0.115,-0.0997,-0.018,0.0424,0.079,0.1682,0.2262,0.2443,0.2653,0.3067,0.363,0.3809,0.3974,0.4124,0.4515,0.5018,0.5646,0.6516,0.7415,0.8283,0.8709,0.9035,0.9303,0.8706,0.8364,0.8269,0.8041,0.7772,0.7439,0.0,0.0,0.0,0.0,0.0,0.0,0.0,0.0,0.0,0.0,0.0,0.0,0.0,0.0,0.0,0.0,0.0,0.0,0.0,0.0,0.0,0.0,0.0,0.0,0.0,0.0,0.0,0.0,0.0,0.0,0.0,0.0,0.0,0.0,0.0,0.4626,0.4387,0.4749,0.4693,0.4024,0.2471,0.1123,0.0321,-0.0749,-0.153,-0.1955,-0.1884,-0.1904,-0.1844,-0.1933,-0.1946,-0.1973,-0.2064,-0.2064,-0.2064,-0.2064,-0.2243,-0.2601,-0.3403,-0.4293,-0.5186,-0.5988,-0.6609,-0.7139,-0.7415,-0.7614,-0.7688,-0.7947,-0.8285,-0.8568,-0.8568,-0.8568,-0.8656,0.0,0.0,0.0,0.0,0.0,0.0,0.0,-0.2017,-0.1569,-0.1775,-0.1413,-0.1208,-0.1465,-0.161,-0.1413,-0.065,0.0435,0.1413,0.2124,0.3007,0.3513,0.3513,0.3451,0.3574,0.3891,0.4097,0.4341,0.4482,0.5312,0.5815,0.6105,0.6779,0.7697,0.8637,0.8496,0.8856,0.9593,0.9351,0.9179,0.9066,0.8909,0.8576,0.8094,0.0,0.0,0.0,0.0,0.0,0.0,0.0,0.0,0.0,0.0,0.0,0.0,0.0,0.0,0.0,0.0,0.0,0.0,0.0,0.0,0.0,0.0,0.0,0.0,0.0,0.0,0.0,0.0,0.0,0.0,0.0,0.0,0.0,0.4352,0.4621,0.476,0.4526,0.5023,0.4879,0.3712,0.2132,0.0421,-0.1263,-0.1977,-0.2349,-0.2349,-0.2308,-0.2155,-0.2156,-0.2156,-0.2157,-0.2158,-0.1978,-0.1798,-0.1798,-0.1888,-0.2336,-0.3232,-0.4476,-0.5458,-0.6183,-0.7163,-0.7337,-0.7156,-0.7429,-0.7698,-0.7955,-0.8116,-0.838,-0.8568,-0.8568,-0.8568,-0.8656,0.0,0.0,0.0,0.0,0.0,0.0,0.0,-0.1861,-0.1418,-0.1611,-0.1546,-0.1548,-0.1782,-0.1967,-0.1737,-0.0939,-0.0127,0.0765,0.1624,0.266,0.3385,0.3753,0.3753,0.393,0.4317,0.442,0.4488,0.4735,0.5005,0.528,0.5483,0.7001,0.7881,0.8252,0.9404,1.01,1.0342,1.0272,1.0148,0.9862,0.9211,0.8813,0.8479,0.0,0.0,0.0,0.0,0.0,0.0,0.0,0.0,0.0,0.0,0.0,0.0,0.0,0.0,0.0,0.0,0.0,0.0,0.0,0.0,0.0,0.0,0.0,0.0,0.0,0.0,0.0,0.0,0.0,0.0,0.0,0.0,0.4688,0.4697,0.492,0.5099,0.5047,0.5274,0.5235,0.4671,0.2601,0.0264,-0.2293,-0.1951,-0.1868,-0.2224,-0.2237,-0.2079,-0.1927,-0.2111,-0.2127,-0.1971,-0.2065,-0.2065,-0.2064,-0.2905,-0.3371,-0.3745,-0.5784,-0.6805,-0.6993,-0.7834,-0.8114,-0.8018,-0.7838,-0.8022,-0.8455,-0.8294,-0.838,-0.8568,-0.8568,-0.8828,-0.9087,0.0,0.0,0.0,0.0,0.0,0.0,0.0,-0.2258,-0.1769,-0.2104,-0.1819,-0.1675,-0.1967,-0.2108,-0.1799,-0.0642,-0.0127,0.0623,0.1816,0.2534,0.3132,0.3562,0.3732,0.4024,0.4463,0.4569,0.4716,0.4909,0.5029,0.5148,0.5347,0.6723,0.7581,0.8074,0.9399,1.0222,1.0638,1.0638,1.0557,1.0401,0.9905,0.9451,0.9077,0.8748,0.8569,0.843,0.8167,0.8029,0.7957,0.8021,0.0,0.0,0.0,0.0,0.0,0.0,0.0,0.0,0.0,0.0,0.0,0.0,0.0,0.0,0.0,0.0,0.0,0.0,0.0,0.0,0.0,0.0,0.0,0.0,0.4771,0.5086,0.5058,0.5175,0.5368,0.5365,0.4779,0.4138,0.3437,0.1423,-0.0537,-0.2334,-0.2081,-0.2001,-0.2364,-0.2383,-0.2314,-0.2154,-0.2436,-0.2545,-0.2383,-0.2384,-0.2479,-0.2574,-0.3518,-0.4275,-0.4845,-0.6632,-0.7667,0.0,-0.852,-0.8613,-0.8423,-0.8426,-0.852,0.0,0.0,0.0,0.0,0.0,-0.9503,-0.9768,0.0,0.0,0.0,0.0,0.0,0.0,0.0,-0.2814,-0.2327,-0.2724,-0.2053,-0.1669,-0.204,-0.2243,-0.1673,-0.0064,-0.0,0.0605,0.2169,0.251,0.2824,0.3206,0.3446,0.3865,0.4504,0.4662,0.4838,0.5037,0.5165,0.5284,0.539,0.6229,0.7062,0.7974,0.889,0.9722,1.055,1.0632,1.0702,1.0676,1.0676,1.0232,0.9695,0.9497,0.9324,0.9103,0.9008,0.8946,0.8902,0.9108,0.0,0.0,0.0,0.0,0.0,0.0,0.0,0.0,0.0,0.0,0.0,0.0,0.0,0.0,0.0,0.0,0.0,0.0,0.0,0.0,0.0,0.0,0.0,0.0,0.5034,0.5371,0.5142,0.5145,0.5313,0.5499,0.4166,0.2511,0.0718,-0.0719,-0.1622,-0.1897,-0.2299,-0.2602,-0.2602,0.0,0.0,0.0,0.0,-0.2967,-0.2974,-0.2781,-0.2877,-0.307,-0.4109,-0.5154,-0.6303,-0.7432,-0.8472,-0.9328,-0.9328,-0.9133,-0.8742,-0.8941,-0.9039,-0.9031,-0.9198,-0.9562,-1.0023,-1.0301,-1.0394,-1.0487,0.0,0.0,0.0,0.0,0.0,0.0,0.0,-0.2827,-0.2478,-0.2203,-0.1895,-0.1788,-0.2164,-0.24,-0.1915,-0.0373,-0.0679,-0.024,0.1474,0.2463,0.3055,0.3251,0.3355,0.3745,0.4459,0.452,0.4719,0.5154,0.5371,0.5491,0.5518,0.6564,0.7138,0.7309,0.9044,0.9823,1.0086,1.0867,1.1095,1.0918,1.0918,1.0638,1.0135,0.9951,0.9727,0.9479,0.9316,0.9113,0.8933,0.922,0.9131,0.8873,0.9349,0.9369,0.0,0.0,0.0,0.0,0.0,0.0,0.0,0.0,0.0,0.0,0.0,0.0,0.0,0.0,0.0,0.0,0.0,0.0,0.0,0.4683,0.5095,0.4961,0.3554,0.3385,0.3922,0.5463,0.5394,0.3165,-0.1929,-0.2208,-0.2223,-0.2823,-0.246,-0.237,-0.2557,-0.2379,0.0,-0.205,-0.2342,-0.2359,-0.2198,-0.2597,-0.2795,-0.2895,0.0,0.0,-0.6454,-0.8818,-1.0002,-1.0201,-1.0201,-1.0104,-0.9998,-0.9616,-0.9714,-1.0069,-1.005,-1.0301,-1.0579,-1.1037,-1.1221,-1.1221,0.0,0.0,0.0,0.0,0.0,0.0,0.0,-0.3124,-0.2676,-0.2459,-0.1975,-0.1705,-0.1929,-0.2072,-0.1676,-0.047,-0.0058,0.0455,0.1177,0.211,0.2741,0.3015,0.3147,0.3419,0.4072,0.4148,0.4272,0.4615,0.4949,0.5147,0.5287,0.6051,0.6612,0.7139,0.8105,0.8719,0.9244,0.968,0.9885,0.9786,1.0303,1.0277,0.9953,1.0132,1.0057,0.994,0.9661,0.9543,0.9567,0.9712,0.9768,0.9794,0.9884,0.9868,0.9509,0.0,0.0,0.0,0.0,0.0,0.0,0.0,0.0,0.0,0.0,0.0,0.0,0.0,0.0,0.4796,0.0,0.0,0.5007,0.5274,0.5462,0.4977,0.3139,0.2898,0.3557,0.5489,0.4658,0.2388,-0.1594,-0.2256,-0.2454,-0.2667,-0.2405,-0.2225,-0.2225,-0.215,-0.2073,-0.1993,-0.219,-0.2399,-0.2626,-0.2827,-0.3244,-0.3682,-0.5952,-0.7156,-0.7421,-0.9747,-1.0801,-1.0801,-1.0801,-1.0801,-1.0806,-1.0507,-1.0708,-1.1082,-1.1159,-1.1172,-1.1172,-1.1742,-1.1931,-1.1931,0.0,0.0,0.0,0.0,0.0,0.0,0.0,0.0,-0.2802,-0.2768,-0.2044,-0.1571,-0.1693,-0.176,-0.1451,-0.0659,0.0757,0.1413,0.1008,0.1823,0.2411,0.274,0.281,0.3102,0.3573,0.375,0.3874,0.4026,0.4482,0.4844,0.4832,0.5374,0.5994,0.6697,0.6962,0.7492,0.8281,0.8456,0.8544,0.8544,0.9331,0.947,0.9242,0.9616,0.9848,1.0021,0.9545,0.9533,0.976,0.9755,0.9981,1.0289,0.9895,0.9845,0.9445,0.7356,0.6876,0.0,0.0,0.0,0.0,0.0,0.0,0.0,0.0,0.0,0.454,0.4867,0.4965,0.5191,0.5477,0.5224,0.5207,0.584,0.5791,0.4874,0.2623,0.2292,0.2786,0.3838,0.261,0.0937,-0.1052,-0.1919,-0.2403,-0.2315,-0.225,-0.2073,-0.1976,-0.1904,-0.1924,-0.193,-0.2233,-0.254,-0.2959,-0.3163,-0.3699,-0.4482,-0.6743,-0.7965,-0.8289,-1.0384,-1.1316,-1.1316,-1.1316,-1.1316,-1.1316,-1.1316,-1.1514,-1.1717,-1.191,-1.191,-1.1801,-1.2304,-1.2467,-1.2467,0.0,0.0,0.0,0.0,0.0,0.0,0.0,0.0,0.0,-0.2303,-0.1808,-0.1571,-0.1693,-0.165,-0.1533,-0.1233,0.0753,0.1561,0.0617,0.1873,0.2656,0.2604,0.2475,0.2683,0.3429,0.3433,0.3601,0.4026,0.4463,0.4559,0.4389,0.5104,0.5369,0.5275,0.652,0.7139,0.7316,0.8105,0.8544,0.8544,0.8632,0.8336,0.7889,0.7785,0.8354,0.9056,0.7919,0.7778,0.8084,0.8071,0.83,0.8675,0.8793,0.8665,0.818,0.6849,0.6459,0.6143,0.4495,0.4216,0.4408,0.4615,0.4684,0.4916,0.0,0.0,0.5963,0.6089,0.6354,0.6476,0.5917,0.5947,0.5963,0.5744,0.5676,0.4439,0.0828,0.037,-0.0281,-0.204,-0.0768,-0.0574,-0.2733,-0.2153,-0.1971,-0.2706,-0.2112,-0.1813,-0.2015,-0.1817,-0.1629,-0.176,-0.1966,-0.2188,-0.2224,-0.3176,-0.3814,-0.3928,-0.6959,-0.8425,-0.8546,-1.0716,-1.1639,-1.1531,-1.1531,-1.1531,-1.1531,-1.1644,-1.1746,-1.1849,-1.2059,-1.2157,-1.2215,-1.262,-1.2764,-1.2764,0.0,0.0,0.0,0.0,0.0,0.0,0.0,0.0,0.0,0.0,-0.2612,-0.2185,-0.1783,-0.1571,-0.1418,-0.1372,-0.0105,0.0391,-0.0168,0.1134,0.1847,0.1777,0.2098,0.2447,0.2838,0.2896,0.3049,0.3212,0.3657,0.3998,0.4049,0.4485,0.4777,0.4835,0.5277,0.5544,0.5725,0.6163,0.6337,0.6505,0.686,0.6959,0.6875,0.6548,0.6792,0.7243,0.6994,0.7078,0.0,0.7444,0.7586,0.7733,0.7879,0.7829,0.7432,0.6285,0.6055,0.6,0.527,0.5036,0.0,0.0,0.5483,0.5667,0.5886,0.5972,0.6147,0.6186,0.635,0.6358,0.6104,0.5078,0.4576,0.0,0.3816,0.1833,0.0185,-0.0,-0.0578,-0.2059,-0.1477,-0.1188,-0.1795,-0.1995,-0.2102,-0.2119,-0.192,-0.1819,-0.1819,-0.1736,-0.1649,-0.1662,-0.1782,-0.2219,-0.2875,-0.33,-0.4276,-0.5714,-0.7557,-0.8716,-0.9221,-1.0915,-1.1709,-1.1817,-1.1817,-1.1817,-1.1709,-1.1817,-1.1817,-1.1817,-1.2024,-1.2122,-1.2206,-1.2537,-1.2666,-1.2672,0.0,0.0,0.0,0.0,0.0,0.0,0.0,0.0,0.0,0.0,0.0,-0.2635,-0.1928,-0.1569,-0.1389,-0.1389,-0.0658,-0.0329,-0.0504,0.0435,0.1005,0.0979,0.1438,0.1918,0.2191,0.2301,0.2439,0.2683,0.3076,0.3391,0.3617,0.3957,0.4163,0.4316,0.4312,0.4312,0.4577,0.4577,0.4662,0.4828,0.5352,0.5551,0.5496,0.5331,0.5177,0.527,0.5776,0.6021,0.6218,0.6306,0.6462,0.649,0.6571,0.6538,0.6225,0.5495,0.5339,0.5405,0.5573,0.0,0.0,0.579,0.6112,0.6284,0.5802,0.5987,0.6222,0.6165,0.6198,0.6269,0.6103,0.4757,0.3773,0.4051,0.1827,-0.0,-0.0,-0.0,-0.0394,-0.1484,-0.1704,-0.1617,-0.1111,-0.1716,-0.2019,-0.1718,-0.1828,-0.1833,-0.1629,-0.1658,-0.1677,-0.1686,-0.1919,-0.2365,-0.3241,-0.3563,-0.4774,-0.6798,-0.7776,-0.8845,-1.0031,-1.1301,-1.1882,-1.2102,-1.2102,-1.2097,-1.1987,-1.1987,-1.1987,-1.1987,-1.2092,-1.2192,-1.2192,-1.2511,-1.2541,-1.2643,0.0,0.0,0.0,0.0,0.0,0.0,0.0,0.0,0.0,0.0,0.0,0.0,0.0,-0.1748,-0.1523,-0.1299,-0.058,-0.0104,-0.0112,0.0238,0.0449,0.0419,0.0359,0.0811,0.1737,0.1744,0.2113,0.2927,0.2996,0.2946,0.2779,0.3451,0.3703,0.3451,0.3869,0.4118,0.4118,0.4118,0.4118,0.4118,0.4369,0.4146,0.3724,0.3859,0.373,0.3489,0.389,0.419,0.4426,0.4117,0.4347,0.4747,0.4674,0.4507,0.4296,0.4336,0.4057,0.3935,0.4621,0.5125,0.5434,0.5708,0.6332,0.6738,0.6306,0.6499,0.6688,0.6166,0.6444,0.6456,0.5847,0.5679,0.4412,0.0809,0.0091,-0.0,-0.0,-0.0,-0.0395,-0.1511,-0.2021,-0.2123,0.0,-0.1617,-0.1718,-0.1921,-0.185,-0.1661,-0.1661,-0.1688,-0.1716,-0.1746,-0.2294,-0.2645,-0.2689,-0.3916,-0.5027,-0.6246,-0.7218,-0.8763,-1.0664,-1.1869,-1.2417,-1.2417,-1.2417,-1.2417,-1.2417,-1.2417,-1.2417,-1.2417,-1.2417,-1.2417,-1.2417,-1.2422,-1.2486,-1.2648,0.0,0.0,0.0,0.0,0.0,0.0,0.0,0.0,0.0,0.0,0.0,0.0,0.0,0.0,0.0,0.0,-0.1447,-0.1224,-0.1202,-0.0755,-0.0437,-0.045,-0.0,0.0439,0.0738,0.093,0.135,0.2223,0.224,0.2591,0.3287,0.3371,0.3399,0.336,0.3362,0.3446,0.361,0.361,0.3779,0.4028,0.3884,0.3852,0.3782,0.3661,0.3587,0.351,0.0,0.3455,0.3618,0.3624,0.3608,0.3574,0.371,0.3699,0.3634,0.3769,0.3809,0.396,0.4901,0.5322,0.5617,0.6125,0.6544,0.6724,0.6283,0.6316,0.6435,0.5908,0.5959,0.5587,0.4126,0.483,0.4488,0.0603,-0.0,-0.0,-0.0,-0.0589,-0.1103,-0.1111,-0.1516,0.0,0.0,0.0,0.0,-0.1851,-0.176,-0.167,-0.1689,-0.1718,-0.1957,-0.2296,-0.2544,-0.3011,-0.3923,-0.4257,-0.5258,-0.6813,-0.9585,-1.1147,-1.1818,-1.2232,-1.2441,-1.2441,-1.2441,-1.2441,-1.2441,-1.2441,-1.2441,-1.2441,-1.2441,-1.2441,-1.2441,-1.2441,-1.2459,-1.2442,0.0,0.0,0.0,0.0,0.0,0.0,0.0,0.0,0.0,0.0,0.0,0.0,0.0,0.0,0.0,0.0,0.0,-0.2057,-0.2163,-0.1592,-0.1228,-0.1331,-0.0659,-0.0138,0.0209,0.0292,0.0744,0.1637,0.1817,0.231,0.3049,0.3107,0.3238,0.3282,0.312,0.312,0.3279,0.3222,0.3362,0.3591,0.3398,0.3438,0.3543,0.3422,0.3425,0.0,0.3339,0.3289,0.3263,0.3234,0.3091,0.2963,0.3071,0.3153,0.3215,0.3447,0.376,0.4232,0.5222,0.5511,0.5723,0.6322,0.6637,0.6615,0.6086,0.6169,0.6169,0.5822,0.5726,0.5121,0.324,0.3347,0.2674,-0.0326,-0.0788,-0.0648,-0.0373,-0.0864,-0.1284,-0.1109,-0.1415,-0.1718,0.0,0.0,0.0,-0.1661,-0.1671,-0.169,-0.1719,-0.1968,-0.2318,-0.265,-0.3123,-0.3699,-0.448,-0.4706,-0.5704,-0.736,-1.0363,-1.2042,-1.2374,-1.2455,-1.2441,-1.2441,-1.2441,-1.2441,-1.2441,-1.2441,-1.2441,-1.2441,-1.2441,-1.2441,-1.2441,-1.2441,-1.2441,-1.2441,0.0,0.0,0.0,0.0,0.0,0.0,0.0,0.0,0.0,0.0,0.0,0.0,0.0,0.0,0.0,0.0,0.0,0.0,-0.2832,-0.2211,-0.1902,-0.2093,-0.1635,-0.1001,-0.0064,-0.0132,0.0269,0.1076,0.1626,0.1956,0.1958,0.2667,0.3039,0.2961,0.2961,0.2961,0.2953,0.2888,0.2828,0.2817,0.2883,0.2883,0.286,0.321,0.332,0.3334,0.3539,0.3464,0.3242,0.2859,0.2784,0.2888,0.2812,0.2876,0.3056,0.3231,0.3852,0.4682,0.5463,0.5694,0.5858,0.628,0.6523,0.6529,0.5822,0.5911,0.5991,0.5719,0.5706,0.5162,0.0,0.0,-0.041,-0.1762,-0.2058,-0.1848,-0.0987,-0.0824,-0.0948,0.0,0.0,0.0,0.0,0.0,0.0,-0.1667,0.0,-0.172,-0.186,-0.2336,-0.2693,-0.2806,-0.3923,-0.448,-0.4592,-0.5154,-0.6146,-0.7662,-0.9665,-1.1223,-1.2327,-1.2327,-1.2441,-1.2441,-1.2441,-1.2441,-1.2441,-1.2441,-1.2441,-1.2441,-1.2441,-1.2441,-1.2441,-1.2441,-1.2441,-1.2441,0.0,0.0,0.0,0.0,0.0,0.0,0.0,0.0,0.0,0.0,0.0,0.0,0.0,0.0,0.0,0.0,0.0,0.0,-0.3257,-0.2582,-0.2245,-0.2413,-0.1695,-0.124,-0.1061,-0.0918,-0.0403,0.0403,0.0613,0.096,0.1579,0.1741,0.1753,0.1612,0.1612,0.1612,0.1611,0.1588,0.1648,0.1783,0.2232,0.2361,0.2392,0.2979,0.2817,0.2338,0.3261,0.2982,0.2265,0.2695,0.2919,0.3021,0.2847,0.2806,0.2741,0.2332,0.3274,0.4642,0.5249,0.5565,0.5742,0.5891,0.5908,0.5911,0.5744,0.5744,0.5783,0.5695,0.5722,0.5561,0.0,0.0,0.0,0.0532,-0.0253,0.0,-0.1593,-0.1051,0.0,-0.1511,0.0,-0.1651,-0.1651,-0.1677,0.0,0.0,-0.1734,-0.1971,-0.245,-0.2575,-0.3141,-0.4033,-0.4369,-0.4706,-0.5156,-0.527,-0.6042,-0.7252,-0.8686,-1.001,-1.1114,-1.1996,-1.2441,-1.2441,-1.2441,-1.2441,-1.2441,-1.2441,-1.2441,-1.2441,-1.2441,-1.2441,-1.2441,-1.2441,-1.2441,-1.2441,0.0,0.0,0.0,0.0,0.0,0.0,0.0,0.0,0.0,0.0,0.0,0.0,0.0,0.0,0.0,0.0,0.0,0.0,0.0,-0.2748,-0.2219,-0.2256,-0.1567,-0.1144,-0.116,-0.1096,-0.0748,-0.0311,0.0064,0.0453,0.0907,0.1263,0.1344,0.121,0.121,0.121,0.1208,0.1375,0.149,0.0,0.0,0.165,0.1836,0.2669,0.2375,0.1675,0.2526,0.272,0.2673,0.0,0.0,0.3153,0.2432,0.244,0.2573,0.1827,0.0,0.2939,0.4964,0.5555,0.5657,0.5657,0.5744,0.5609,0.5109,0.4851,0.4799,0.4983,0.4493,0.0,0.4049,0.2453,0.0,0.0,0.0,0.0,-0.1388,-0.122,-0.125,0.0,-0.1643,0.0,-0.1662,-0.1699,-0.1731,0.0,-0.175,-0.2094,-0.2691,-0.2917,-0.3475,-0.4479,-0.4706,-0.5043,-0.5382,-0.5382,-0.6267,-0.7919,-0.8575,-0.9786,-1.1442,-1.211,-1.2441,-1.2441,0.0,-1.2441,-1.2441,-1.2441,-1.2441,-1.2441,-1.2441,-1.2441,-1.255,-1.2441,-1.2441,-1.2659,0.0,0.0,0.0,0.0,0.0,0.0,0.0,0.0,0.0,0.0,0.0,0.0,0.0,0.0,0.0,0.0,0.0,0.0,0.0,0.0,-0.2088,-0.2022,-0.1323,-0.0968,-0.0898,-0.0931,-0.0894,-0.0898,-0.0178,0.0122,0.0183,0.077,0.1117,0.1117,0.1117,0.1117,0.1114,0.1431,0.1582,0.1514,0.0918,0.0785,0.1122,0.0,0.185,0.1174,0.1626,0.2623,0.0,0.0,0.3735,0.3033,0.1647,0.1722,0.2191,0.1373,0.0584,0.0683,0.4001,0.5126,0.5307,0.5307,0.5302,0.5124,0.4479,0.3884,0.3581,0.355,0.0,0.1565,0.148,0.0969,0.029,-0.0617,0.0,-0.0681,-0.0898,-0.1357,-0.1582,-0.1603,-0.1647,-0.1668,-0.1668,-0.1721,-0.1866,-0.1866,-0.1866,-0.2209,-0.2803,-0.3363,-0.3921,-0.4592,-0.5156,-0.5382,-0.5382,-0.5382,-0.6596,-0.8903,-0.8903,-1.012,-1.2441,-1.2441,-1.2441,-1.2441,0.0,0.0,-1.2441,-1.2441,-1.2436,-1.2441,-1.2441,-1.2659,-1.2881,-1.255,-1.2659,-1.2989,0.0,0.0,0.0,0.0,0.0,0.0,0.0,0.0,0.0,0.0,-0.4941,-0.4893,0.0,0.0,0.0,0.0,0.0,0.0,0.0,0.0,0.0,-0.2031,-0.1273,-0.0883,-0.0967,-0.095,-0.0927,-0.0898,-0.0737,-0.0684,-0.0685,-0.0577,-0.0522,-0.0522,-0.0522,-0.0522,-0.0522,-0.0458,-0.0228,-0.0057,-0.0451,-0.0561,-0.0449,0.0224,0.0,0.0,0.1403,0.0,0.4045,0.611,0.4726,0.1879,0.0633,0.0327,0.0415,0.0261,0.0089,0.0178,0.0805,0.2151,0.3406,0.3406,0.3406,0.3721,0.5091,0.4309,0.0,0.0,0.0136,-0.0579,-0.103,-0.0622,-0.0329,-0.0568,0.0,0.0,0.0,0.0,-0.1152,0.0,0.0,0.0,0.0,0.0,0.0,0.0,0.0,-0.2796,-0.3363,-0.3808,-0.448,-0.5268,-0.5382,-0.5382,-0.5382,-0.5382,-0.6596,-0.8903,-0.8903,-1.012,-1.2441,-1.2441,-1.2441,-1.2441,-1.2441,0.0,-1.2441,-1.2441,-1.255,-1.2772,-1.2886,-1.2994,-1.3207,-1.2881,-1.2881,-1.2881,0.0,0.0,0.0,0.0,0.0,0.0,0.0,-0.4893,-0.4849,-0.4675,-0.4718,-0.4675,-0.4583,-0.436,-0.414,0.0,0.0,0.0,0.0,0.0,0.0,0.0,0.0,0.0,-0.1273,-0.1036,0.0,0.0,0.0,-0.0898,-0.0898,0.0,-0.0898,-0.0898,-0.0898,-0.0898,-0.0898,-0.0898,-0.0785,-0.0673,-0.0505,-0.0449,-0.0393,0.0,0.0,0.0,0.0,0.0,0.2365,0.6185,0.6271,0.4227,0.0981,-0.0,-0.0,-0.0,-0.0,-0.0,-0.0,0.0718,0.1436,0.1436,0.1436,0.1583,0.2521,0.0,0.0,0.0,-0.0252,-0.1094,-0.1683,-0.1211,0.0,-0.0667,-0.0446,0.0,0.0,0.0,0.0,0.0,0.0,0.0,0.0,0.0,0.0,0.0,0.0,-0.3363,-0.3921,-0.4482,-0.5043,-0.5382,-0.5382,-0.5382,-0.5382,-0.5935,-0.7149,-0.8906,-0.9567,-1.0781,-1.2441,-1.2441,-1.2441,-1.2441,-1.2441,0.0,-1.2441,-1.2441,-1.255,-1.2881,-1.2772,-1.2989,-1.3207,-1.2767,-1.2767,-1.2985,0.0,0.0,0.0,0.0,0.0,0.0,0.0,-0.4757,-0.4675,-0.4499,-0.4412,-0.4368,-0.4324,-0.406,-0.3744,0.0,0.0,0.0,0.0,0.0,0.0,0.0,0.0,0.0,0.0,0.0,0.0,0.0,0.0,0.0,0.0,0.0,0.0,0.0,0.0,-0.0842,-0.0785,-0.0785,-0.0673,0.0,0.0,0.0112,0.0,0.0,0.0,0.0,0.0,0.0,0.0,0.0,0.6624,0.6612,0.1576,-0.0,-0.0,-0.0,-0.0,-0.0,-0.0,-0.0,-0.0,-0.0,-0.0,-0.0,-0.0,-0.0,0.0,0.0247,-0.0235,-0.0983,-0.1693,-0.1425,-0.1055,0.0,-0.0919,-0.0867,-0.0835,-0.1254,-0.1524,0.0,0.0,0.0,0.0,0.0,0.0,0.0,0.0,0.0,-0.4479,-0.5043,-0.5382,-0.5382,-0.5382,-0.5382,-0.5382,-0.649,-0.77,-0.8906,-1.0006,-1.1219,-1.2441,-1.2441,-1.2441,-1.2441,-1.2441,0.0,0.0,-1.2441,-1.255,-1.2881,-1.2659,-1.2881,-1.3315,-1.2767,-1.2767,-1.3098,0.0,0.0,0.0,0.0,0.0,0.0,0.0,-0.4583,-0.4499,-0.432,-0.41,-0.3924,-0.3788,-0.3836,-0.3656,0.0,0.0,0.0,0.0,0.0,0.0,0.0,0.0,0.0,0.0,0.0,0.0,0.0,0.0,0.0,0.0,0.0,0.0,0.0,0.0,0.0,0.0,-0.0449,0.0,0.0,0.0,0.0,0.0,0.0,0.0,0.0,0.0,0.0,0.0,0.0,0.0,0.6634,0.1592,-0.0,-0.0,-0.0,0.0,0.0,-0.0,-0.0,-0.0,-0.0,-0.0,-0.0,-0.0,0.0,-0.0284,-0.1326,-0.094,-0.0675,-0.1629,-0.1599,-0.1468,-0.1578,-0.1468,-0.1367,-0.1478,-0.155,-0.1626,-0.1562,0.0,0.0,0.0,0.0,0.0,0.0,0.0,0.0,-0.5268,-0.5382,-0.5382,-0.5382,-0.5382,-0.5382,-0.5382,-0.649,-0.77,-0.8906,-0.9775,-1.0988,-1.2441,-1.2441,-1.2441,-1.2441,-1.2441,0.0,0.0,-1.2441,-1.255,-1.2881,-1.2881,-1.3207,-1.3645,-1.3315,-1.3207,-1.3315,0.0,0.0,0.0,0.0,0.0,0.0,-0.4618,-0.4574,-0.4403,-0.4008,-0.3921,-0.3792,-0.3527,-0.3619,-0.335,-0.2499,0.0,0.0,0.0,0.0,0.0,0.0,0.0,0.0,0.0,0.0,0.0,-0.0825,0.0,0.0,0.0,0.0,0.0,0.0,0.0,0.0,0.0,0.0,0.0,0.0,0.0,0.0,0.0,0.0,0.0,0.0,0.0,0.0,0.0,0.0,0.0,0.0,0.0615,-0.0,0.0,0.0,-0.0,-0.0,-0.0,-0.0,-0.0,-0.0,-0.0,-0.0,-0.0,0.0,-0.0136,-0.0614,-0.0985,-0.1347,-0.1741,-0.1722,-0.1668,-0.1608,-0.1523,0.0,-0.1499,-0.1533,-0.1503,0.0,0.0,0.0,0.0,0.0,0.0,0.0,0.0,0.0,-0.5382,-0.5382,-0.5382,-0.5382,-0.5382,-0.5714,-0.6379,-0.759,-0.8796,-1.001,-1.0996,-1.1769,-1.2441,-1.2441,-1.2441,-1.2441,-1.2441,0.0,0.0,-1.2441,-1.255,-1.2881,-1.2881,-1.3098,-1.3423,-1.3315,-1.3315,-1.3315,0.0,0.0,0.0,0.0,0.0,-0.4539,-0.4578,-0.4443,-0.418,-0.3788,-0.3836,-0.3796,-0.3486,-0.3442,-0.3037,-0.2188,-0.2099,0.0,0.0,0.0,0.0,0.0,0.0,0.0,0.0,0.0,-0.0823,-0.0795,-0.0885,0.0,0.0,0.0,0.0,0.0,0.0,0.0,0.0,0.0,0.0,0.0,0.0,0.0,0.0,0.0,0.0,0.0,0.0,0.0,0.0,0.0,0.0,0.0,0.0,-0.0,-0.0,0.0,-0.0,-0.0,-0.0,-0.0,-0.0,-0.0,-0.0,-0.0,0.0,0.0,-0.0066,-0.024,-0.0919,-0.1572,-0.1741,-0.1797,-0.1728,-0.1631,-0.1568,-0.1547,-0.1538,-0.1564,0.0,0.0,0.0,0.0,0.0,0.0,0.0,0.0,0.0,0.0,0.0,-0.5382,-0.5382,-0.5382,-0.5382,-0.5935,-0.7041,-0.8247,-0.9457,-1.0672,-1.1887,-1.2441,-1.2441,-1.2441,-1.2441,-1.2441,0.0,0.0,0.0,-1.255,-1.2767,-1.2989,-1.2989,-1.3207,-1.3423,-1.3423,-1.3423,-1.3423,0.0,0.0,0.0,0.0,0.0,0.0,-0.4456,-0.4056,-0.3744,-0.388,-0.388,-0.384,-0.3622,-0.317,-0.2677,-0.2144,-0.2099,0.0,0.0,0.0,0.0,0.0,0.0,0.0,0.0,0.0,-0.0813,-0.0813,-0.0875,-0.0905,-0.0907,-0.0883,0.0,0.0,0.0,0.0,0.0,0.0,0.0,0.0,0.0,0.0,0.0,0.0,0.0,0.0,0.0,0.0,0.0,0.0,0.0,0.0,0.0,-0.0,-0.0,-0.0,-0.0,-0.0,-0.0,-0.0,-0.0,-0.0,-0.0,-0.0,0.0,-0.0,-0.0197,-0.0781,-0.0919,-0.1066,-0.1685,-0.1797,-0.1797,-0.1797,-0.1748,-0.168,-0.1711,-0.1763,0.0,0.0,0.0,0.0,0.0,0.0,0.0,0.0,0.0,0.0,0.0,-0.5382,-0.5382,-0.5382,-0.5382,-0.5935,-0.7041,-0.8247,-0.9457,-1.0672,-1.1887,-1.2441,-1.2441,-1.2441,-1.2441,0.0,0.0,0.0,0.0,-1.2881,-1.3098,-1.3315,-1.3315,-1.3423,-1.3753,-1.3753,-1.364,-1.3635,0.0,0.0,0.0,0.0,0.0,0.0,0.0,-0.3388,-0.3123,-0.2857,-0.2812,-0.2724,-0.2546,-0.241,-0.2144,-0.1655,-0.1746,0.0,0.0,0.0,0.0,0.0,0.0,0.0,0.0,0.0,-0.0744,-0.0813,-0.0832,-0.0864,-0.0906,-0.0915,-0.0877,-0.0898,0.0,0.0,0.0,0.0,0.0,0.0,0.0,0.0,0.0,0.0,0.0,0.0,0.0,0.0,0.0,0.0,0.0,0.0,0.0,0.0,0.0,-0.0,-0.0,0.0,-0.0,-0.0,-0.0,-0.0,-0.0,-0.0,-0.0,-0.0,-0.0311,-0.1332,-0.1527,-0.1572,-0.1741,-0.1797,-0.1797,-0.1797,-0.1725,-0.1682,0.0,0.0,0.0,0.0,0.0,0.0,0.0,0.0,0.0,0.0,0.0,0.0,0.0,-0.8647,-0.7847,-0.7847,-0.694,-0.7482,-0.9574,-0.99,-1.0672,-1.1887,-1.2219,-1.2441,-1.2441,-1.2441,0.0,0.0,0.0,0.0,0.0,-1.254,-1.2758,-1.2989,-1.3197,-1.3413,-1.364,-1.397,-1.403,-1.418,0.0,0.0,0.0,0.0,0.0,0.0,0.0,-0.2857,-0.2588,-0.2324,-0.2322,-0.2277,-0.2055,-0.1921,-0.1744,-0.1524,-0.139,0.0,0.0,0.0,0.0,0.0,0.0,0.0,0.0,-0.0719,-0.0729,-0.0748,-0.0807,-0.0832,-0.0871,-0.0894,-0.0916,-0.0881,-0.0892,0.0,0.0,0.0,0.0,0.0,0.0,0.0,-0.0,0.0,0.0,0.0,0.0,0.0,0.0,0.0,0.0,0.0,0.0,0.0,0.0,0.0,-0.0187,-0.0,-0.0,-0.0,-0.0,-0.0,-0.0,0.0,-0.0,-0.0,-0.0239,-0.0965,-0.1459,-0.1797,-0.1797,-0.1797,-0.1789,-0.1766,-0.1688,-0.1649,0.0,0.0,0.0,0.0,0.0,0.0,0.0,0.0,0.0,0.0,0.0,0.0,0.0,-0.9529,-0.9629,-1.0189,-0.8602,-0.8689,-1.0672,-1.0672,-1.1223,-1.2441,-1.2441,-1.2441,-1.2441,-1.2441,0.0,0.0,0.0,0.0,0.0,-1.2649,-1.2871,-1.3202,-1.3521,-1.3743,-1.3862,-1.4083,-1.4148,-1.4297,0.0,0.0,0.0,0.0,0.0,0.0,0.0,-0.241,-0.2055,-0.219,-0.2319,-0.2273,-0.201,-0.1611,-0.1435,-0.1614,0.0,0.0,0.0,0.0,0.0,0.0,0.0,0.0,-0.0674,-0.0674,-0.0719,-0.0719,-0.0748,-0.081,-0.0814,-0.0872,-0.0901,-0.0907,-0.0882,-0.0896,0.0,0.0,0.0,0.0,0.0,0.0,0.0,0.0,0.0,0.0,0.0,0.0,0.0,0.0,0.0,0.0,0.0,0.0,0.0,0.0,0.0,0.0,0.0,-0.0071,-0.0075,-0.0075,-0.0,-0.0,-0.0,-0.0,0.0,-0.0056,-0.0954,-0.1741,-0.1797,-0.1793,-0.1773,-0.1715,-0.1658,0.0,0.0,0.0,0.0,0.0,0.0,0.0,0.0,0.0,0.0,0.0,0.0,0.0,0.0,-0.8696,-1.094,-1.2393,-1.0249,-0.9677,-1.0781,-1.0781,-1.1332,-1.2441,-1.2441,-1.2441,-1.2441,-1.2441,0.0,0.0,0.0,0.0,0.0,-1.3207,-1.3423,-1.3635,-1.4083,-1.4196,-1.4196,-1.4186,-1.4175,-1.4261,0.0,0.0,0.0,0.0,0.0,0.0,0.0,0.0,0.0,0.0,-0.1166,-0.1121,-0.1032,-0.0943,-0.0899,0.0,0.0,0.0,0.0,0.0,0.0,0.0,0.0,0.0,-0.0539,-0.0629,-0.0719,-0.0719,-0.0727,-0.0742,-0.0813,-0.0828,-0.086,-0.0906,-0.0913,-0.0876,0.0,0.0,0.0,0.0,0.0,0.0,0.0,0.0,0.0,0.0,-0.0,-0.0,0.0,0.0,0.0,0.0,0.0,0.0,0.0,0.0,-0.0849,-0.0833,-0.0707,0.0,-0.0824,-0.0724,-0.0327,-0.0,0.0,-0.0,-0.0117,-0.0621,-0.0898,-0.1234,-0.1741,-0.1759,-0.1723,-0.1762,-0.1695,-0.1643,0.0,0.0,0.0,0.0,0.0,0.0,0.0,0.0,0.0,0.0,0.0,0.0,0.0,-1.1494,-1.2046,-1.2346,-1.1891,-1.1664,-1.1996,-1.1996,-1.211,-1.2441,-1.2441,-1.2441,-1.2441,-1.2441,0.0,0.0,0.0,0.0,-1.3207,-1.3088,-1.3305,-1.3748,-1.4083,-1.4196,-1.4186,-1.4196,-1.4215,-1.4467,0.0,0.0,0.0,0.0,0.0,0.0,0.0,0.0,0.0,0.0,0.0,-0.0719,-0.0719,-0.0719,0.0,0.0,0.0,0.0,0.0,0.0,0.0,0.0,0.0,-0.059,-0.0647,-0.0681,-0.0727,-0.074,-0.0727,-0.0728,-0.0837,-0.0805,-0.083,-0.0913,-0.0892,-0.0915,0.0,0.0,0.0,0.0,-0.0,0.0,0.0,0.0,0.0,0.0,-0.0,-0.0,0.0,-0.0,-0.0,-0.0,0.0,0.0,0.0,0.0,-0.0839,-0.0998,-0.0981,-0.0864,-0.0851,-0.0937,-0.0688,-0.0314,-0.0061,-0.0,-0.0115,-0.0394,0.0,0.0,-0.165,-0.1704,-0.171,-0.1687,-0.2053,0.0,0.0,0.0,0.0,0.0,0.0,0.0,0.0,0.0,0.0,0.0,0.0,0.0,0.0,-1.2379,-1.2356,-1.2441,-1.2441,-1.2441,-1.2441,-1.2441,-1.2441,-1.2441,-1.2441,-1.2441,-1.2441,-1.2432,-1.2536,0.0,0.0,0.0,-1.2856,-1.3078,-1.33,-1.3521,-1.3975,-1.4196,-1.4186,-1.4223,-1.5518,-1.7496,0.0,0.0,0.0,0.0,0.0,0.0,0.0,0.0,0.0,0.0,0.0,0.0,0.0,0.0,0.0,0.0,0.0,0.0,0.0,0.0,0.0,0.0,0.0,-0.0686,-0.0805,-0.0737,-0.0739,-0.0813,-0.0739,-0.0771,-0.0908,-0.0841,-0.0854,-0.0907,-0.0876,-0.0905,0.0,0.0,0.0,0.0,-0.0,0.0,0.0,0.0,0.0,0.0,0.0,0.0,0.0,-0.0,-0.0,-0.0,-0.0,0.0,0.0,0.0,0.0,0.0,-0.0943,-0.0808,-0.0648,-0.0998,-0.0988,-0.0679,-0.0184,-0.0059,0.0,0.0,0.0,0.0,0.0,-0.1777,0.0,0.0,0.0,0.0,0.0,0.0,0.0,0.0,0.0,0.0,0.0,0.0,0.0,0.0,0.0,0.0,0.0,-1.2351,-1.2441,-1.2441,-1.2441,-1.2441,-1.2441,-1.2441,-1.2441,-1.2441,-1.2441,-1.2436,-1.2436,-1.2422,-1.2417,0.0,0.0,0.0,-1.2729,-1.3176,-1.3398,-1.3516,-1.397,-1.4196,-1.4191,-1.4175,-1.7028,-2.0901,0.0,0.0,0.0,0.0,0.0,0.0,0.0,0.0,0.0,0.0,0.0,0.0,0.0,0.0,0.0,0.0,0.0,0.0,0.0,0.0,0.0,-0.0584,-0.0494,-0.0541,-0.0727,-0.0747,-0.0807,-0.0813,-0.0807,-0.0804,-0.0896,-0.0873,-0.0877,-0.0907,-0.0876,-0.0905,-0.0907,-0.0885,-0.0671,-0.0334,-0.0112,0.0,0.0,0.0,0.0,0.0,0.0,0.0,0.0,-0.0,-0.0,-0.0,-0.0,0.0,0.0,0.0,0.0,0.0,-0.0943,-0.0895,-0.0953,-0.1008,-0.0803,-0.0552,-0.0358,-0.0173,-0.0,0.0,0.0,0.0,0.0,-0.2399,0.0,0.0,0.0,0.0,0.0,0.0,0.0,0.0,0.0,0.0,0.0,0.0,0.0,0.0,0.0,0.0,0.0,-1.2446,-1.2441,-1.2441,-1.2441,-1.2441,-1.2441,-1.2441,-1.2441,-1.2441,-1.2441,-1.2432,-1.2417,-1.2417,-1.2635,0.0,0.0,-1.3532,-1.3856,-1.3516,-1.363,-1.4078,-1.4191,-1.4196,-1.418,-1.418,-1.6993,-2.0942,0.0,0.0,0.0,0.0,0.0,0.0,0.0,0.0,0.0,0.0,0.0,0.0,0.0,0.0,0.0,0.0,0.0,0.0,0.0,0.0,-0.0629,-0.0539,-0.0539,-0.059,-0.0697,-0.0742,-0.0748,-0.0813,-0.0748,-0.0831,-0.1013,-0.0995,-0.0952,-0.0788,-0.0851,-0.0827,-0.0831,-0.0877,-0.0729,-0.0505,0.0,0.0,0.0,0.0,0.0,0.0,0.0,0.0,0.0,0.0,-0.0,-0.0,-0.0,0.0,0.0,0.0,0.0,0.0,-0.088,-0.0922,-0.0966,-0.0988,-0.0881,-0.0691,-0.0273,-0.0067,-0.0193,0.0,0.0,0.0,0.0,0.0,0.0,0.0,0.0,0.0,0.0,0.0,0.0,0.0,0.0,0.0,0.0,0.0,0.0,0.0,0.0,0.0,0.0,0.0,-1.2441,-1.2441,-1.2441,-1.2441,-1.2441,-1.2441,-1.2441,-1.2441,-1.255,-1.2654,-1.2649,-1.2856,-1.3073,-1.329,0.0,-1.3975,-1.4191,-1.3856,-1.397,-1.4196,-1.4196,-1.4196,-1.4175,-1.4205,-1.6256,-1.9308,0.0,0.0,0.0,0.0,0.0,0.0,0.0,0.0,0.0,0.0,0.0,0.0,0.0,0.0,0.0,0.0,0.0,0.0,0.0,0.0,-0.0629,-0.0494,-0.0629,-0.0684,-0.0706,-0.0738,-0.0742,-0.0813,-0.0748,-0.0827,-0.1044,-0.1035,-0.0942,-0.0767,-0.078,-0.0806,-0.081,-0.0872,-0.0785,-0.0616,0.0,0.0,0.0,0.0,0.0,0.0,0.0,0.0,0.0,0.0,0.0,0.0,0.0,0.0,0.0,-0.0857,-0.0903,-0.0904,-0.0876,-0.0898,-0.0936,-0.0959,-0.0993,-0.087,-0.0375,-0.0146,-0.028,0.0,0.0,0.0,0.0,0.0,0.0,0.0,0.0,0.0,0.0,0.0,0.0,0.0,0.0,0.0,0.0,0.0,0.0,0.0,0.0,0.0,0.0,0.0,-1.2441,-1.2441,-1.2441,-1.2441,-1.255,-1.255,-1.255,-1.255,-1.2767,-1.2989,-1.3098,-1.33,-1.3403,-1.3516,-1.397,-1.4196,-1.4196,-1.4196,-1.4196,-1.4196,-1.4196,-1.4175,-1.4352,-1.5399,-1.6514,-1.7895,0.0,0.0,0.0,0.0,0.0,0.0,0.0,0.0,0.0,0.0,0.0,0.0,0.0,0.0,0.0,0.0,0.0,0.0,0.0,0.0,-0.0674,-0.0674,-0.0674,-0.072,-0.0723,-0.0748,-0.081,-0.0813,-0.0789,-0.0835,-0.09,-0.0914,-0.09,-0.0902,-0.0829,-0.0806,-0.081,-0.0872,-0.0785,-0.0615,-0.0758,0.0,0.0,0.0,0.0,0.0,0.0,0.0,0.0,0.0,0.0,0.0,0.0,0.0,-0.0504,-0.0806,-0.0903,-0.0904,-0.0876,-0.0942,-0.101,-0.0903,-0.0716,-0.0628,-0.0954,-0.0492,0.0,-0.0642,0.0,0.0,0.0,0.0,0.0,0.0,0.0,0.0,0.0,0.0,0.0,0.0,0.0,0.0,0.0,0.0,0.0,0.0,0.0,0.0,0.0,0.0,0.0,-1.2441,-1.2441,-1.255,-1.2881,-1.2881,-1.2881,-1.2881,-1.2881,-1.3093,-1.3527,-1.3527,-1.3748,-1.4191,-1.4191,-1.4196,-1.4196,-1.4196,-1.4196,-1.4196,-1.4196,-1.4228,-1.4691,-1.8921,-1.9248,-1.7895,0.0,0.0,0.0,0.0,0.0,0.0,0.0,0.0,0.0,0.0,0.0,0.0,0.0,0.0,0.0,0.0,0.0,0.0,0.0,-0.0629,-0.0719,-0.0719,-0.0719,-0.0728,-0.0747,-0.074,-0.0755,-0.0791,-0.0831,-0.0812,-0.0781,-0.086,-0.0855,-0.0767,-0.078,-0.0806,-0.081,-0.0851,-0.0815,-0.0812,-0.0783,-0.0813,0.0,0.0,0.0,0.0,0.0,0.0,0.0,0.0,-0.0,-0.0045,-0.0464,-0.0484,-0.0456,-0.0778,-0.0919,-0.09,-0.0911,-0.092,-0.0926,-0.0951,-0.085,0.0,0.0,0.0701,0.0597,-0.0293,-0.0605,0.0,0.0,0.0,0.0,0.0,0.0,0.0,0.0,0.0,0.0,0.0,0.0,0.0,0.0,0.0,0.0,0.0,0.0,0.0,0.0,0.0,0.0,-1.3004,-1.2876,-1.2985,-1.333,-1.3212,-1.3207,-1.3428,-1.3315,-1.3423,-1.364,-1.3862,-1.4083,-1.4196,-1.4196,-1.4196,-1.4196,-1.4196,-1.4196,-1.4196,-1.4196,-1.4223,-1.4786,-1.9281,-2.0353,-1.9806,0.0,0.0,0.0,0.0,0.0,0.0,0.0,0.0,0.0,0.0,0.0,0.0,0.0,0.0,0.0,0.0,0.0,0.0,-0.0494,-0.0638,-0.0733,-0.0733,-0.0742,-0.0757,-0.0778,-0.0749,-0.0753,-0.0793,-0.0811,-0.0789,-0.0733,-0.0814,-0.0815,-0.0735,-0.0785,-0.0812,-0.0823,-0.0843,-0.0852,-0.0902,-0.0809,-0.0782,0.0,0.0,0.0,0.0,0.0,0.0,0.0,0.0,-0.0,-0.0091,-0.0708,-0.0735,-0.0609,-0.0843,-0.0887,-0.0926,-0.0926,-0.0918,-0.098,-0.0957,0.0,0.0,0.0407,0.1058,0.1179,0.0313,-0.0479,-0.1448,-0.2718,0.0,0.0,0.0,0.0,0.0,0.0,0.0,0.0,0.0,0.0,0.0,0.0,0.0,0.0,0.0,0.0,0.0,0.0,0.0,0.0,0.0,-1.3202,-1.331,-1.3655,-1.3537,-1.3532,-1.3862,-1.3862,-1.3862,-1.3862,-1.4083,-1.4196,-1.4196,-1.4196,-1.4196,-1.4196,-1.4196,-1.4196,-1.4196,-1.4196,-1.4207,-1.4618,-1.7694,-1.9702,-2.0853,0.0,0.0,0.0,0.0,0.0,0.0,0.0,0.0,0.0,0.0,0.0,0.0,0.0,0.0,0.0,0.0,0.0,0.0,-0.072,-0.0748,-0.0813,-0.0813,-0.0791,-0.0806,-0.0806,-0.0779,-0.0813,-0.0813,-0.0734,-0.0735,-0.0811,-0.0733,-0.0735,-0.0814,-0.0794,-0.0823,-0.0905,-0.0905,-0.0905,-0.0899,-0.0837,-0.0813,-0.0808,0.0,0.0,0.0,0.0,0.0,0.0,0.0,-0.0,-0.0091,-0.0709,-0.0883,-0.0915,-0.0897,-0.0974,-0.0987,-0.0925,-0.101,-0.1056,-0.0929,0.0,0.0,-0.0898,0.0313,0.1371,0.1398,-0.0596,-0.2354,-0.259,0.0,0.0,0.0,0.0,0.0,0.0,0.0,0.0,0.0,0.0,0.0,0.0,0.0,0.0,0.0,0.0,0.0,0.0,0.0,0.0,0.0,-1.3315,-1.3428,-1.3753,-1.3753,-1.3862,-1.4196,-1.4196,-1.4196,-1.4196,-1.4196,-1.4196,-1.4196,-1.4196,-1.4196,-1.4196,-1.4196,-1.4196,-1.4196,-1.4196,-1.4163,-1.4168,-1.4273,-1.712,-2.0925,0.0,0.0,0.0,0.0,0.0,0.0,0.0,0.0,0.0,0.0,0.0,0.0,0.0,0.0,0.0,0.0,0.0,0.0,-0.075,-0.0807,-0.0813,-0.0813,-0.0821,-0.0777,-0.0777,-0.0817,-0.0755,-0.0733,-0.0745,-0.0745,-0.0733,-0.0814,-0.0828,-0.0814,-0.0893,-0.0913,-0.082,-0.082,-0.0809,-0.0836,-0.0748,-0.0733,-0.0732,0.0,0.0,0.0,0.0,0.0,0.0,0.0,0.0,0.0,-0.0588,-0.0713,-0.0897,-0.0875,-0.0903,-0.092,-0.0898,-0.093,0.0,-0.1076,0.0,0.0,0.0,0.1059,0.0,0.0,-0.331,-0.4718,-0.4458,0.0,0.0,0.0,0.0,0.0,0.0,0.0,0.0,0.0,0.0,0.0,0.0,0.0,0.0,0.0,0.0,0.0,0.0,0.0,0.0,0.0,-1.3862,-1.3975,-1.4083,-1.4083,-1.4083,-1.4196,-1.4196,-1.4196,-1.4196,-1.4196,-1.4196,-1.4196,-1.4196,-1.4196,-1.4196,-1.4196,-1.4196,-1.4186,-1.4207,-1.4237,-1.4607,-1.7711,-1.9732,-2.0853,0.0,0.0,0.0,0.0,0.0,0.0,0.0,0.0,0.0,0.0,0.0,0.0,0.0,0.0,0.0,0.0,0.0,0.0,0.0,-0.0823,-0.0782,-0.0782,-0.0782,-0.0776,-0.0813,-0.0753,-0.0738,-0.0719,-0.0738,-0.0737,-0.0719,-0.0764,-0.0834,-0.0783,-0.0899,-0.0915,-0.0824,-0.0812,-0.0791,-0.081,-0.0731,-0.0719,-0.0719,0.0,0.0,0.0,0.0,0.0,0.0,0.0,0.0,0.0,-0.0611,-0.0732,-0.0917,-0.0917,-0.0925,-0.0924,-0.0966,-0.1031,0.0,-0.1003,-0.0755,-0.0479,-0.034,0.0,0.0,0.0,0.0,-0.5759,0.0,0.0,0.0,0.0,0.0,0.0,0.0,0.0,0.0,0.0,0.0,0.0,0.0,0.0,0.0,0.0,0.0,0.0,0.0,0.0,0.0,0.0,-1.4083,-1.4196,-1.4196,-1.4196,-1.4196,-1.4196,-1.4196,-1.4196,-1.4196,-1.4196,-1.4196,-1.4196,-1.4196,-1.4196,-1.4196,-1.4196,-1.4196,-1.418,-1.4163,-1.524,-1.7173,-1.9934,-2.09,-2.0941,0.0,0.0,0.0,0.0,0.0,0.0,0.0,0.0,0.0,0.0,0.0,0.0,0.0,0.0,0.0,0.0,0.0,0.0,0.0,0.0,-0.0803,-0.0803,-0.08,-0.0787,-0.0809,-0.0733,-0.0719,-0.0719,-0.0719,-0.0719,-0.0719,-0.0719,-0.075,-0.0806,-0.0804,-0.0871,-0.0899,-0.0816,-0.0787,-0.0806,-0.0733,-0.0723,-0.0724,-0.0727,0.0,0.0,0.0,0.0,0.0,0.0,0.0,0.0,-0.079,-0.0907,-0.0927,-0.0896,-0.0904,-0.0976,-0.104,-0.1165,0.0,-0.0884,-0.1222,0.0,-0.2642,-0.4308,-0.5119,-0.286,0.0,0.0,0.0,0.0,0.0,0.0,0.0,0.0,0.0,0.0,0.0,0.0,0.0,0.0,0.0,0.0,0.0,0.0,0.0,0.0,0.0,0.0,0.0,-1.4196,-1.4196,-1.4196,-1.4196,-1.4196,-1.4196,0.0,-1.4196,-1.4196,-1.4196,-1.4196,-1.4196,-1.4196,-1.4196,-1.4196,-1.4196,-1.4196,-1.4196,-1.418,-1.4152,-1.6942,-2.0934,-2.0875,-2.0933,-2.0925,0.0,0.0,0.0,0.0,0.0,0.0,0.0,0.0,0.0,0.0,0.0,0.0,0.0,0.0,0.0,0.0,0.0,0.0,0.0,0.0,-0.0822,-0.0822,-0.075,-0.0735,-0.0729,-0.0723,-0.0719,-0.0719,-0.0719,-0.0719,-0.0719,-0.081,-0.0844,-0.0806,-0.0928,-0.0886,-0.0815,-0.0737,-0.0709,-0.0731,-0.0748,-0.0755,-0.0757,-0.0779,-0.0788,0.0,0.0,0.0,0.0,0.0,0.0,0.0,-0.0903,-0.0923,-0.0892,-0.0911,-0.071,-0.0613,-0.0865,-0.113,0.0,0.0,-0.2474,-0.3421,-0.2498,-0.421,-0.6189,0.0,0.0,0.0,0.0,0.0,0.0,0.0,0.0,0.0,0.0,0.0,0.0,0.0,0.0,0.0,0.0,0.0,0.0,0.0,0.0,0.0,0.0,0.0,0.0,-1.4186,-1.4196,-1.4196,-1.4196,-1.4196,-1.4196,0.0,-1.4196,-1.4196,-1.4196,-1.4196,-1.4196,-1.4196,-1.4196,-1.4196,-1.4196,-1.4196,-1.4196,-1.4175,-1.4177,-1.6976,-2.0919,-2.0861,-2.0948,-2.0925,0.0,0.0,0.0,0.0,0.0,0.0,0.0,0.0,0.0,0.0,0.0,0.0,0.0,0.0,0.0,0.0,0.0,0.0,0.0,0.0,-0.0805,-0.0744,-0.0728,-0.0719,-0.0719,-0.0719,-0.0719,-0.081,-0.081,-0.0764,-0.072,-0.0827,-0.0813,-0.0806,-0.0889,-0.085,-0.0775,-0.0748,-0.0727,-0.0763,-0.0778,-0.0785,-0.0787,-0.0801,-0.0806,-0.0806,-0.0806,0.0,0.0,0.0,0.0,0.0,0.0,0.0,-0.0903,-0.0874,-0.0758,-0.0706,-0.1027,0.0,0.0,-0.1326,0.0,-0.3011,-0.3306,-0.4028,-0.5099,0.0,0.0,0.0,0.0,0.0,0.0,0.0,0.0,0.0,0.0,0.0,0.0,0.0,0.0,0.0,0.0,0.0,0.0,0.0,0.0,0.0,0.0,-1.3702,-1.3717,-1.3846,-1.3852,-1.3906,-1.4013,-1.4013,-1.4078,-1.4196,-1.4196,-1.4196,-1.4196,-1.4196,-1.4196,-1.4196,-1.4196,-1.4196,-1.4191,-1.4239,-1.4212,-1.419,-1.4179,-1.5676,-1.7998,-2.0158,-2.0925,-2.0925,0.0,0.0,0.0,0.0,0.0,0.0,0.0,0.0,0.0,0.0,0.0,0.0,0.0,0.0,0.0,0.0,0.0,0.0,0.0,0.0,0.0,-0.072,-0.0719,-0.0719,-0.0719,-0.0719,-0.0809,-0.09,-0.0944,-0.0851,-0.0757,-0.0794,-0.0825,-0.08,-0.0804,-0.0821,-0.079,-0.0817,-0.0806,-0.0807,-0.0813,-0.0815,-0.0815,-0.082,-0.0822,-0.0822,-0.0822,-0.0838,-0.0913,-0.0913,0.0,0.0,0.0,0.0,-0.0907,-0.0898,-0.0926,-0.097,-0.1149,0.0,-0.131,-0.1299,-0.1711,0.0,-0.437,-0.4115,0.0,0.0,0.0,0.0,0.0,0.0,0.0,0.0,0.0,0.0,0.0,0.0,0.0,0.0,0.0,0.0,0.0,0.0,0.0,0.0,0.0,0.0,-1.3209,-1.3303,-1.3432,-1.348,-1.348,-1.3572,-1.376,-1.376,-1.3884,-1.4132,-1.4175,-1.4196,-1.4196,-1.4196,-1.4196,-1.4196,-1.4196,-1.418,-1.4153,-1.4158,-1.4445,-1.4752,-1.4757,-1.5012,-1.5799,-1.953,-2.0925,-2.0925,0.0,0.0,0.0,0.0,0.0,0.0,0.0,0.0,0.0,0.0,0.0,0.0,0.0,0.0,0.0,0.0,0.0,0.0,0.0,0.0,0.0,-0.072,-0.0719,-0.0719,-0.0719,-0.081,-0.09,-0.09,-0.1032,-0.1013,-0.098,-0.092,-0.086,-0.082,-0.0796,-0.0808,-0.0813,-0.0808,-0.0806,-0.0809,-0.0888,-0.0899,-0.0902,-0.0875,-0.0885,-0.0885,-0.0885,-0.0888,-0.0892,-0.0892,-0.0894,0.0,0.0,0.0,-0.0899,-0.0907,-0.088,-0.091,-0.0972,0.0,-0.1328,0.0,-0.3074,-0.4708,0.0,0.0,0.0,0.0,0.0,0.0,0.0,0.0,0.0,0.0,0.0,0.0,0.0,0.0,0.0,0.0,0.0,0.0,0.0,0.0,0.0,0.0,0.0,0.0,-1.3198,-1.3136,-1.3254,-1.3475,-1.348,-1.3491,-1.3523,-1.3523,-1.3642,-1.3873,-1.4089,-1.4196,-1.4196,-1.4196,-1.4196,-1.4196,-1.4196,-1.4239,-1.4248,-1.4232,-1.5323,-1.7193,-1.7153,-1.8275,-2.0066,-2.0632,-2.0925,-2.0925,0.0,0.0,0.0,0.0,0.0,0.0,0.0,0.0,0.0,0.0,0.0,0.0,0.0,0.0,0.0,0.0,0.0,0.0,0.0,0.0,0.0,-0.0719,-0.0719,-0.0719,-0.081,-0.0834,-0.0911,-0.1085,-0.1098,-0.1074,-0.1056,-0.0975,-0.0885,-0.0812,-0.0793,-0.0825,-0.0856,-0.084,-0.0842,-0.0859,-0.0872,-0.0898,-0.0926,-0.0905,-0.0919,-0.0944,-0.091,-0.0898,-0.0898,-0.0898,-0.0842,-0.0729,-0.0729,0.0,0.0,0.0,-0.0916,-0.0831,-0.0502,-0.0809,-0.1321,0.0,-0.2794,-0.4212,-0.4714,0.0,0.0,0.0,0.0,0.0,0.0,0.0,0.0,0.0,0.0,0.0,0.0,0.0,0.0,0.0,0.0,0.0,0.0,0.0,0.0,0.0,0.0,-1.2807,-1.3008,-1.2915,-1.2964,-1.3077,-1.3077,-1.3141,-1.327,-1.327,-1.3496,-1.3838,-1.3979,-1.4093,-1.4205,-1.4239,-1.4196,-1.4191,-1.4228,-1.4169,-1.4445,-1.6877,-1.783,-1.7755,-1.8926,-2.0055,-2.0909,-2.0948,-2.0925,-2.0925,0.0,0.0,0.0,0.0,0.0,0.0,0.0,0.0,0.0,0.0,0.0,0.0,0.0,0.0,0.0,0.0,0.0,0.0,0.0,0.0,0.0,-0.0764,-0.0668,-0.0663,-0.0752,-0.0678,-0.0704,-0.0911,-0.0839,-0.0864,-0.0985,-0.0861,-0.0824,-0.0859,-0.0851,-0.0843,-0.0885,-0.0924,-0.0877,-0.0899,-0.0914,-0.0947,-0.0985,-0.0954,-0.0971,-0.1001,-0.0933,-0.0914,-0.0916,-0.0885,-0.0774,-0.0671,-0.066,-0.0769,0.0,0.0,0.0,-0.0777,0.0,0.0,-0.1024,-0.1339,-0.2365,-0.3569,0.0,0.0,0.0,0.0,0.0,0.0,0.0,0.0,0.0,0.0,0.0,0.0,0.0,0.0,0.0,0.0,0.0,0.0,0.0,0.0,0.0,0.0,0.0,-1.2764,-1.2764,-1.2764,-1.2764,-1.2764,-1.2764,-1.2845,-1.3017,-1.3077,-1.3301,-1.3694,-1.3827,-1.387,-1.4146,-1.412,-1.4347,-1.4724,-1.4382,-1.4881,-1.6206,-1.9568,-1.9932,-1.8565,-2.0246,-2.0925,-2.0925,-2.0925,-2.0925,-2.0925,0.0,0.0,0.0,0.0,0.0,0.0,0.0,0.0,0.0,0.0,0.0,0.0,-0.0719,-0.0674,-0.0674,-0.0719,-0.0719,-0.0719,-0.0719,-0.081,-0.09,-0.09,-0.0605,0.0,-0.0423,-0.0162,-0.0039,-0.0079,-0.0,-0.0235,-0.0709,-0.0387,-0.0549,-0.1098,-0.0926,-0.0905,-0.091,-0.0883,-0.0896,-0.0902,-0.096,-0.0986,-0.0994,-0.1046,-0.1068,-0.1059,-0.1033,-0.1019,-0.0966,-0.0904,-0.0903,-0.0887,-0.0881,-0.0883,-0.0902,0.0,0.0,0.0,0.0,-0.0443,0.0,-0.1124,-0.2312,0.0,0.0,0.0,0.0,0.0,0.0,0.0,0.0,0.0,0.0,0.0,0.0,0.0,0.0,0.0,0.0,0.0,0.0,0.0,0.0,0.0,0.0,0.0,0.0,-1.2764,-1.2764,-1.2764,-1.2764,-1.2764,-1.2764,-1.277,-1.278,-1.2996,-1.3109,-1.3125,-1.3683,-1.3822,-1.382,-1.4046,-1.4924,-1.6223,-1.4809,-1.6654,-2.0597,-2.0828,-2.0845,-2.0704,-2.0814,-2.0925,-2.0925,-2.0925,-2.0925,-2.0925,0.0,0.0,0.0,0.0,0.0,0.0,0.0,0.0,0.0,0.0,0.0,0.0,0.0,-0.0719,-0.0719,-0.0719,-0.0764,-0.0854,-0.0942,-0.0717,-0.0583,-0.0583,-0.0132,0.0043,-0.0084,0.004,0.0116,0.0112,0.0072,-0.0109,-0.0375,-0.033,-0.0447,-0.0669,-0.0619,-0.0593,-0.0606,-0.0558,-0.0554,-0.0602,-0.0597,-0.075,-0.0954,-0.0764,-0.0867,0.0,0.0,0.0,-0.0952,-0.0909,-0.0924,-0.0888,-0.0916,-0.0763,-0.0616,-0.086,-0.0885,-0.0834,0.0,0.0,0.0,-0.0651,-0.2286,-0.3895,0.0,0.0,0.0,0.0,0.0,0.0,0.0,0.0,0.0,0.0,0.0,0.0,0.0,0.0,0.0,0.0,0.0,0.0,0.0,0.0,0.0,0.0,0.0,0.0,-1.2764,-1.2764,-1.2764,-1.2764,-1.2764,-1.3147,-1.3721,-1.323,-1.3653,-1.5101,-1.4115,-1.4087,-1.4885,-1.5124,-1.5719,-1.6503,-1.716,-1.8708,-2.0932,-2.0941,-2.0869,-2.0925,-2.1138,-2.1113,-2.0979,-2.1318,-2.142,-2.142,0.0,0.0,0.0,0.0,0.0,0.0,0.0,0.0,0.0,-0.0224,0.0,0.0,0.0,0.0,-0.0629,-0.0808,-0.0898,-0.0942,-0.0851,-0.0582,-0.0358,-0.0224,0.0221,0.0387,0.0247,0.0471,0.0561,0.0497,0.0557,0.0322,-0.0115,-0.0084,-0.023,-0.0447,-0.0317,-0.0329,-0.0393,-0.0393,-0.044,-0.0539,-0.0426,-0.0632,-0.0943,0.0,0.0,0.0,0.0,0.0,0.0,0.0,-0.0582,-0.0611,-0.0838,-0.0601,-0.0291,-0.0534,-0.0621,-0.0524,-0.0308,0.0,0.0,0.0,0.0,-0.3802,0.0,0.0,0.0,0.0,0.0,0.0,0.0,0.0,0.0,0.0,0.0,0.0,0.0,0.0,0.0,0.0,0.0,0.0,0.0,0.0,0.0,0.0,0.0,0.0,-1.2646,-1.2721,-1.2764,-1.2764,-1.2764,-1.3244,-1.4298,-1.3624,-1.4286,-1.6183,-1.5036,-1.4979,-1.5869,-1.6021,-1.6456,-1.7211,-1.8228,-1.9626,-2.1187,-2.128,-2.124,-2.124,-2.1444,-2.1412,-2.1167,-2.1497,-2.1725,-2.1843,0.0,0.0,0.0,0.0,0.0,0.0,0.0,0.0,0.067,0.0716,0.0,0.0,0.0,0.0,0.0,-0.0985,-0.1074,-0.0851,-0.0403,-0.0447,-0.0268,0.0179,0.0472,0.0576,0.0511,0.105,0.1247,0.1114,0.1494,0.1111,0.0042,0.0413,0.0198,-0.0532,-0.0165,-0.0112,-0.0391,0.0,-0.0549,-0.0864,0.0,-0.0575,-0.084,0.0,0.0,0.0,-0.1246,-0.1252,0.0,-0.0316,0.0,0.0,0.0,-0.0493,-0.0,-0.0,-0.0,-0.0135,0.0,0.0,0.0,0.0,0.0,0.0,0.0,0.0,0.0,0.0,0.0,0.0,0.0,0.0,0.0,0.0,0.0,0.0,0.0,0.0,0.0,0.0,0.0,0.0,0.0,0.0,0.0,0.0,0.0,-1.2404,-1.2404,-1.2624,-1.2759,-1.2764,-1.2764,-1.334,-1.4394,-1.4298,-1.4949,-1.6344,-1.6546,-1.67,-1.6973,-1.6525,-1.7114,-1.8476,-1.7917,-1.9201,-2.1791,-2.1885,-2.1978,-2.1978,-2.1742,-2.1607,-2.1481,-2.1489,-2.1725,-2.1978,0.0,0.0,0.0,0.0,0.0,0.0,0.047,0.0086,-0.0087,0.0,0.0,0.0,0.1254,0.076,0.0358,0.0089,-0.0,-0.0,0.0045,0.0224,0.0447,0.0537,0.0974,0.1149,0.1064,0.1241,0.1353,0.1459,0.1426,0.1271,0.101,0.0756,0.0594,0.0394,0.0315,0.016,-0.0104,-0.0107,0.0,-0.0208,-0.0369,-0.0636,0.0,0.0,0.0,0.0,0.0,-0.0742,-0.0319,0.0,-0.0,-0.0051,0.0,0.0,-0.0,0.0,-0.0225,-0.0539,-0.0674,0.0,0.0,0.0,0.0,0.0,0.0,0.0,0.0,0.0,0.0,0.0,0.0,0.0,0.0,0.0,0.0,0.0,0.0,0.0,0.0,0.0,0.0,0.0,0.0,0.0,0.0,0.0,-1.2108,-1.2151,-1.2151,-1.2382,-1.2587,-1.2759,-1.2953,-1.3902,-1.5697,-1.5134,-1.6082,-1.8635,-1.739,-1.7239,-1.7999,-1.7911,-1.7765,-1.7696,-1.9748,-2.1255,-2.2321,-2.2114,-2.186,-2.1843,-2.1928,-2.1802,-2.1667,-2.2114,-2.2342,-2.246,0.0,0.0,0.0,0.0,0.0,-0.0454,0.0257,0.0425,0.064,0.0,0.0,0.0,0.1527,0.1063,0.0671,0.0403,0.0352,0.0348,0.0479,0.0728,0.0932,0.1018,0.1358,0.1479,0.1338,0.1439,0.1495,0.1566,0.1566,0.1531,0.1426,0.1041,0.0883,0.0928,0.0561,0.0309,0.0151,0.0,0.0,0.0,-0.0363,0.0,0.0,-0.0347,-0.044,0.0,0.0,0.0,-0.0,-0.0,-0.0,0.0,0.0,0.0,0.0,0.0,0.0,-0.0719,-0.0719,-0.0719,-0.0719,0.0,0.0,0.0,-0.3206,-0.3944,0.0,0.0,0.0,0.0,0.0,0.0,0.0,0.0,0.0,0.0,0.0,0.0,0.0,0.0,0.0,0.0,0.0,0.0,0.0,-1.1925,-1.1939,-1.2037,-1.2221,-1.2373,-1.2479,-1.2805,-1.2904,-1.3806,-1.5596,-1.5134,-1.6082,-1.845,-1.7855,-1.7785,-1.8404,-1.898,-1.9005,-1.8609,-2.0385,-2.1502,-2.2088,-2.2244,-2.2148,-2.2139,-2.2232,-2.2215,-2.2097,-2.2434,-2.2644,-2.2644,0.0,0.0,0.1911,0.0944,0.0159,-0.0399,-0.0433,0.1017,0.1935,0.0,0.163,0.1809,0.1861,0.1352,0.0846,0.0447,0.043,0.0588,0.1013,0.1179,0.135,0.1552,0.1711,0.1674,0.1451,0.1625,0.1665,0.1521,0.1869,0.1857,0.1524,0.122,0.1069,0.1096,0.0,0.0,0.0,0.0,0.0,-0.0789,-0.0534,-0.0607,0.0,0.0,-0.0497,-0.0829,-0.0217,-0.0,-0.0,-0.0,-0.0,0.0,0.0,0.0,0.0,0.0,-0.0363,-0.0732,-0.0722,-0.0719,-0.0719,0.0,0.0,0.0,-0.3979,-0.4407,-0.4899,0.0,0.0,0.0,0.0,0.0,0.0,0.0,0.0,0.0,0.0,0.0,0.0,0.0,0.0,0.0,0.0,-1.0997,-1.144,-1.1613,-1.1718,-1.1942,-1.2444,-1.2396,-1.2532,-1.2841,-1.289,-1.3386,-1.4709,-1.474,-1.5507,-1.6929,-1.7956,-1.8373,-1.8357,-1.9426,-1.9969,-1.9952,-1.9771,-2.0227,-2.13,-2.193,-2.23,-2.2492,-2.2526,-2.2644,-2.2644,-2.2644,-2.2644,-2.2644,0.0,0.0,0.1982,0.1505,0.1558,0.1521,0.121,0.1392,0.1524,0.1399,0.1526,0.1617,0.15,0.1512,0.1595,0.1781,0.1721,0.1746,0.2025,0.2059,0.2051,0.197,0.2097,0.2054,0.1803,0.1859,0.1814,0.1753,0.198,0.1951,0.1654,0.1589,0.1403,0.1103,0.0619,0.0,0.0,0.0,0.0,-0.0891,-0.0819,0.0,-0.0921,-0.1021,-0.1095,-0.1147,-0.0309,-0.0,-0.0,-0.0,-0.0,-0.0067,0.0,0.0,0.0,-0.0476,0.0,0.0,0.0,0.0,0.0,0.0,0.0,0.0,-0.1474,-0.204,-0.2851,0.0,0.0,0.0,0.0,0.0,0.0,0.0,0.0,0.0,0.0,0.0,0.0,0.0,0.0,0.0,0.0,-1.0824,-1.1348,-1.1348,-1.157,-1.204,-1.2798,-1.2612,-1.2733,-1.3465,-1.3176,-1.3585,-1.4596,-1.5006,-1.5778,-1.6901,-1.8133,-1.8711,-1.8719,-1.8149,-1.7849,-1.7817,-1.6143,-1.7347,-2.0434,-1.9966,-2.0696,-2.2133,-2.2432,-2.2644,-2.2644,-2.2644,-2.2644,-2.2644,0.0,0.2001,0.2037,0.189,0.1886,0.1851,0.1649,0.1551,0.1516,0.1517,0.1716,0.1864,0.1819,0.1868,0.1926,0.1966,0.2025,0.2078,0.2167,0.2166,0.2184,0.2145,0.2308,0.2364,0.2354,0.2444,0.243,0.2345,0.2232,0.2099,0.1876,0.1538,0.12,0.083,0.066,0.0284,0.0,0.0,-0.0373,-0.0794,-0.0884,0.0,-0.0665,-0.1155,-0.1065,-0.0628,-0.0157,-0.0,-0.0,-0.0,-0.0137,0.0,0.0,-0.1075,-0.1072,0.0,-0.0817,-0.0884,0.0,0.0,0.0,-0.0719,0.0,0.0,0.0,-0.2128,-0.3056,0.0,0.0,0.0,0.0,0.0,0.0,0.0,0.0,0.0,0.0,0.0,0.0,0.0,0.0,0.0,0.0,-1.0824,-1.1262,-1.1262,-1.1527,-1.1922,-1.2296,-1.2592,-1.2809,-1.3022,-1.3276,-1.3558,-1.387,-1.4102,-1.4615,-1.5419,-1.6539,-1.7628,-1.8606,-1.8722,-1.7684,-1.5896,-1.6878,-1.7878,-1.8855,-1.9676,-2.0637,-2.1499,-2.2081,-2.2206,-2.2131,-2.2224,-2.2333,-2.2333,0.1947,0.2014,0.2008,0.1992,0.1798,0.1595,0.1599,0.1605,0.1671,0.1812,0.2143,0.2321,0.2341,0.2031,0.1859,0.1922,0.19,0.1977,0.2123,0.2222,0.2305,0.2472,0.2609,0.2766,0.2968,0.2995,0.3013,0.2974,0.2505,0.2144,0.1919,0.1341,0.0896,0.0565,0.048,0.0194,0.0,0.0,0.0,-0.0686,0.0,-0.0702,-0.0472,-0.0878,-0.0608,-0.0,-0.0,-0.0,-0.0,-0.0077,-0.0355,-0.0638,-0.1058,-0.1117,0.0,0.0,0.0,0.0,0.0,0.0,0.0,0.0,0.0,-0.0929,0.0,0.0,0.0,0.0,0.0,0.0,0.0,0.0,0.0,0.0,0.0,0.0,0.0,0.0,0.0,0.0,0.0,0.0,0.0,-1.0652,-1.107,-1.1251,-1.1352,-1.1584,-1.1952,-1.2569,-1.2861,-1.2985,-1.3296,-1.3338,-1.2997,-1.3094,-1.3348,-1.3759,-1.4823,-1.6252,-1.7764,-1.9217,-1.801,-1.4878,-1.7819,-1.8699,-1.798,-1.9666,-2.0534,-2.0857,-2.1573,-2.1801,-2.1619,-2.1778,-2.1912,-2.2022,0.1642,0.1642,0.1644,0.1657,0.1615,0.1607,0.1599,0.1604,0.188,0.2637,0.2814,0.2799,0.2796,0.0,0.0,0.0,0.0,0.0,0.2451,0.0,0.3036,0.3496,0.3361,0.3385,0.3592,0.3045,0.2932,0.324,0.2495,0.183,0.1293,0.1163,0.0858,0.0415,-0.0151,0.0,0.0,0.0,-0.0773,0.0,-0.0735,-0.0709,0.0,-0.0307,-0.0067,-0.0,-0.0,-0.0,-0.0078,0.0,-0.0351,-0.0135,0.0,-0.0978,-0.1174,0.0,0.0,0.0,0.0,0.0,0.0,0.0,-0.0699,0.0,0.0,0.0,0.0,0.0,0.0,0.0,0.0,0.0,0.0,0.0,0.0,0.0,0.0,0.0,0.0,0.0,0.0,0.0,0.0,0.0,-1.0365,-1.1203,-1.0654,-1.1022,-1.2857,-1.2599,-1.3182,-1.5007,-1.3617,-1.2744,-1.2761,-1.3015,-1.3157,-1.3191,-1.4722,-1.5514,-1.5825,-1.7662,-1.7632,-1.5994,-1.5267,-1.689,-1.9824,-1.8373,-1.8863,-2.0644,-2.1232,-2.1403,-2.1374,-2.1517,-2.1536,-2.147,0.1565,0.1585,0.1616,0.1616,0.2023,0.2342,0.2355,0.236,0.2498,0.2832,0.2682,0.2771,0.0,0.0,0.0,0.0,0.0,0.1644,0.0,0.0,0.2374,0.3192,0.3081,0.3115,0.3414,0.3121,0.3037,0.3126,0.2502,0.2008,0.1515,0.1073,0.0605,0.01,-0.0157,0.0,-0.0659,0.0,-0.0634,0.0,0.0,0.0,0.0,-0.0267,-0.0,-0.0,-0.0,-0.0,-0.0,0.0,-0.0353,0.0,0.0,0.0,0.0,0.0,0.0,0.0,0.0,0.0,0.0,0.0,0.0,0.0,-0.0666,0.0,-0.2134,0.0,0.0,0.0,0.0,0.0,0.0,0.0,0.0,0.0,0.0,0.0,0.0,0.0,0.0,0.0,0.0,0.0,0.0,0.0,-1.0982,-1.1178,-1.202,-1.2484,-1.2839,-1.3034,-1.3127,-1.2895,-1.232,-1.2524,-1.2865,-1.3151,-1.3902,-1.4785,-1.5602,-1.5885,-1.6096,-1.6238,-1.5655,-1.6462,-1.7973,-1.7448,-1.7845,-1.8754,-1.9552,-2.0256,-2.0942,-2.1109,-2.1159,-2.1176,0.1859,0.0,0.0,0.0,0.2495,0.2887,0.2762,0.2837,0.0,0.0,0.0,0.0,0.3832,0.2856,0.0,0.0,0.1018,0.1019,0.0,0.0,0.1736,0.0,0.0,0.0,0.0,0.3003,0.2948,0.2993,0.2413,0.2057,0.1784,0.0983,0.0423,0.0051,0.0,-0.0611,-0.1072,0.0,0.0,-0.0874,-0.0873,-0.0937,-0.0859,-0.0216,-0.0,-0.0,-0.0,-0.0157,-0.0313,-0.023,-0.0425,0.0,-0.0718,0.0,0.0,0.0,0.0,0.0,-0.0771,0.0,0.0,0.0,0.0,0.0,0.0,0.0,0.0,0.0,0.0,0.0,0.0,0.0,0.0,-0.4329,0.0,-0.5221,0.0,0.0,0.0,0.0,0.0,0.0,0.0,0.0,0.0,-1.0767,-1.0877,-1.0995,-1.1251,-1.2129,-1.2215,-1.1419,-1.2478,-1.2831,-1.2124,-1.2286,-1.2626,-1.3147,-1.3397,-1.4127,-1.5242,-1.458,-1.4879,-1.575,-1.575,-1.5933,-1.6218,-1.6648,-1.7016,-1.739,-1.8133,-1.9105,-2.0164,-2.0654,-2.0687,-2.0504,0.2703,0.219,0.0,0.0,0.0,0.2796,0.0,0.0,0.0,0.0,0.0,0.0,0.0,0.0,0.0,0.0,0.0,-0.0851,0.007,0.0,0.1719,0.0,0.0,0.2839,0.0,0.0,0.2504,0.2912,0.2194,0.1791,0.1784,0.0849,0.0403,0.0362,-0.0559,-0.0854,-0.0647,-0.107,-0.1296,-0.1252,-0.1325,-0.0876,-0.0077,0.0,-0.0,-0.0,-0.0,0.0,0.0,-0.0722,-0.0561,0.0,0.0,0.0,0.0,0.0,0.0,0.0,0.0,0.0,0.0,-0.0623,0.0,0.0,0.0,0.0,-0.2071,0.0,0.0,0.0,0.0,0.0,-0.3983,-0.3949,-0.4202,0.0,0.0,0.0,0.0,0.0,0.0,0.0,0.0,0.0,0.0,-0.9583,-0.9753,-1.0306,-1.1214,-1.1354,-1.1527,-1.1791,-1.1796,-1.2049,-1.2375,-1.2371,-1.2629,-1.3071,-1.3408,-1.3667,-1.3931,-1.4208,-1.4298,-1.4394,-1.4394,-1.4956,-1.5798,-1.5798,-1.6452,-1.7296,-1.7296,-1.7963,-1.896,-2.0102,-1.9944,-1.9217,0.0,0.0,0.0,0.0,0.0,0.0,0.0,0.2916,0.0,0.0,0.0,0.0,0.0,0.2014,0.1067,0.0,0.0,-0.0153,0.0738,0.1008,0.0,0.0,0.0,0.2459,0.0,0.0,0.0,0.0,0.1973,0.1837,0.1927,0.1298,0.1014,0.095,0.0,-0.0492,0.0,0.0,0.0,0.0,0.0,-0.0493,-0.0,0.0,0.0,-0.0864,-0.0864,-0.0864,0.0,-0.0993,-0.1025,-0.0985,-0.1157,-0.1174,-0.1104,-0.1067,-0.1042,0.0,0.0,0.0,-0.0939,-0.0797,0.0,0.0,0.0,0.0,0.0,0.0,0.0,0.0,0.0,0.0,-0.4083,-0.3921,-0.4044,-0.4065,0.0,0.0,0.0,0.0,0.0,0.0,0.0,0.0,0.0,-0.9432,-1.0264,-1.0931,-1.1246,-1.1262,-1.144,-1.1796,-1.1796,-1.1877,-1.2118,-1.2284,-1.2546,-1.2903,-1.3338,-1.3507,-1.3667,-1.3939,-1.4022,-1.4022,-1.4022,-1.4298,-1.4765,-1.4765,-1.5051,-1.5425,-1.6075,-1.6075,-1.6089,-1.8466,-1.9551,-1.9979,0.2398,0.0,0.0,0.0,0.0,0.0,0.0,0.0,0.0,0.0,0.3599,0.0,0.323,0.0,0.1831,0.0,0.0235,0.0313,0.1211,0.071,0.0,0.148,0.1717,0.0,0.0,0.0,0.0,0.0,0.0,0.187,0.197,0.1497,0.1263,0.1235,0.0,-0.0313,-0.0355,0.0,-0.1238,0.0,0.0,-0.0724,0.0,0.0,-0.0692,-0.1275,0.0,-0.11,-0.0864,-0.1178,-0.1218,-0.118,-0.1239,-0.1178,-0.1095,-0.1153,-0.1115,-0.1049,-0.1026,-0.1047,0.0,-0.1229,-0.1411,0.0,-0.1403,0.0,0.0,0.0,0.0,0.0,0.0,0.0,-0.404,-0.4204,-0.4021,-0.385,0.0,-0.3635,0.0,0.0,0.0,0.0,0.0,0.0,-0.8454,-0.9357,-1.0204,-1.0907,0.0,0.0,-1.144,-1.1791,-1.1791,-1.1871,-1.2118,-1.2283,-1.259,-1.2951,-1.3207,-1.3371,-1.3532,-1.3808,-1.3931,-1.3931,-1.4022,-1.4112,-1.4298,-1.4298,-1.4298,-1.4388,-1.5045,-1.5045,-1.514,-1.739,-1.8696,-1.9296,0.0,0.0,0.0,0.0,0.2379,0.0,0.0,0.0,0.329,0.0,0.3478,0.3813,0.4149,0.3167,0.2665,0.2923,0.1173,0.0,0.1611,0.0456,0.0,0.0,0.0338,0.0132,-0.0421,0.0,0.0,0.0,0.0,0.0,0.1888,0.1449,0.1212,0.1169,0.0196,0.0,-0.0411,-0.0883,-0.1198,-0.1335,-0.1335,-0.1333,-0.1251,-0.0784,-0.0888,-0.1302,-0.1291,-0.1335,-0.1335,-0.1335,-0.1335,-0.1335,-0.1335,-0.1335,-0.1335,-0.1335,-0.1335,-0.1309,-0.1116,-0.1084,-0.1254,-0.1986,0.0,0.0,0.0,0.0,-0.3623,0.0,0.0,0.0,0.0,0.0,0.0,-0.4623,-0.4141,-0.3705,-0.3705,0.0,0.0,0.0,0.0,0.0,0.0,-0.5611,-0.6704,-0.9227,-0.9534,-1.0089,0.0,0.0,-1.1391,-1.1699,-1.1699,-1.1952,-1.2363,-1.2448,-1.2665,-1.3109,-1.3093,-1.3256,-1.3514,-1.3784,-1.3823,-1.3931,-1.4112,-1.4298,-1.4298,-1.4298,-1.4298,-1.4298,-1.4298,-1.486,-1.5893,-1.6922,-1.7296,-1.7296,0.2326,0.2299,0.2246,0.0,0.2195,0.2324,0.0,0.0,0.0,0.0,0.4271,0.4296,0.3768,0.3189,0.2528,0.1906,0.1319,0.0,0.0,0.0,0.0,0.1161,0.0922,0.0333,-0.0504,0.0525,0.0,0.0998,0.0,0.0,0.1732,0.1633,0.1574,0.1521,0.0,0.0,0.0057,-0.0875,-0.1264,-0.1335,-0.1335,-0.1293,0.0,0.0,-0.1196,-0.1334,-0.1299,-0.1335,-0.1335,-0.1335,-0.1335,-0.1335,-0.1335,-0.1335,-0.1335,-0.1335,-0.1335,-0.1328,-0.1296,-0.1286,-0.1476,-0.2444,-0.2803,-0.3157,0.0,0.0,0.0,0.0,0.0,0.0,0.0,0.0,0.0,-0.3976,-0.3807,-0.3672,0.0,0.0,0.0,-0.3377,0.0,0.0,0.0,-0.5815,-0.7226,-0.7891,-0.9037,-1.016,-1.1271,0.0,0.0,-1.1677,-1.1871,-1.2123,-1.2363,-1.2534,-1.2655,-1.2813,-1.3003,-1.2997,-1.2877,-1.3222,-1.3446,-1.3636,-1.3636,-1.3919,-1.4298,-1.4298,-1.4298,-1.4298,-1.4298,-1.4484,-1.486,-1.664,-1.7296,-1.7296,0.2128,0.0,0.0,0.2238,0.0,0.0,0.2528,0.0,0.0,0.4074,0.4367,0.0,0.4024,0.3678,0.3314,0.2685,0.2326,0.0,0.344,0.0,0.0,0.2158,0.1081,0.0226,-0.0311,0.0199,0.0,0.0557,0.0,0.0,0.1645,0.1673,0.1661,0.1616,0.0,0.0505,0.0206,-0.083,-0.127,-0.1257,-0.125,0.0,0.0,-0.1272,-0.1265,-0.1304,-0.1279,-0.1288,-0.1279,-0.1292,-0.1297,-0.1297,-0.1297,-0.1297,-0.1294,-0.1281,-0.1277,-0.1274,-0.1261,-0.1335,-0.1627,-0.3209,-0.3702,-0.4151,-0.5122,-0.5649,-0.5998,0.0,0.0,0.0,0.0,0.0,0.0,0.0,0.0,0.0,0.0,0.0,0.0,0.0,-0.393,0.0,0.0,-0.5676,-0.7221,-0.7435,-0.8212,-0.8954,0.0,0.0,0.0,-1.0884,-1.1506,-1.2037,-1.2363,-1.2534,-1.2619,-1.2705,-1.2814,-1.2808,-1.2689,-1.2938,-1.3193,-1.3346,-1.3443,-1.3732,-1.4118,-1.4118,-1.4202,-1.4298,-1.4298,-1.4298,-1.449,-1.5609,-1.5981,-1.5981,0.0,0.0,0.0,0.0,0.0,0.0,0.0,0.3214,0.0,0.3889,0.0,0.4313,0.4437,0.4368,0.43,0.43,0.0,0.3413,0.4207,0.2602,0.1992,0.2961,0.1096,-0.0,0.0084,-0.0384,0.0,0.0,0.0,0.0,0.156,0.1581,0.1609,0.0,0.0,0.0,0.0,-0.0857,-0.1223,-0.1187,-0.1249,-0.1307,-0.1316,-0.1339,-0.1266,-0.1354,-0.1354,-0.1334,-0.1313,-0.1339,-0.1263,-0.1263,-0.1263,-0.1263,-0.1259,-0.1316,-0.1309,-0.1303,-0.1277,-0.1348,-0.19,-0.4021,-0.4802,-0.5416,-0.6305,-0.6798,-0.7065,-0.6982,-0.6379,-0.6428,0.0,0.0,0.0,0.0,0.0,0.0,0.0,0.0,0.0,0.0,0.0,0.0,0.0,0.0,-0.6775,-0.7236,-0.7198,-0.739,0.0,0.0,0.0,-1.0101,-1.1144,-1.1952,-1.2369,0.0,-1.2448,-1.2619,-1.2685,-1.2684,-1.2689,-1.2997,-1.3159,-1.3244,-1.3443,-1.3636,-1.3931,-1.3931,-1.4022,-1.4298,-1.4298,-1.4298,-1.4298,-1.4298,-1.4298,-1.4202,0.0,0.0,0.0,0.0,0.0,0.3001,0.327,0.3756,0.4101,0.3947,0.4431,0.4753,0.4374,0.4349,0.43,0.43,0.4119,0.0,0.0,0.0,0.0,0.2894,0.1045,-0.0,-0.0,-0.0388,-0.0345,0.0,0.0,0.0,0.1438,0.1543,0.0,0.0,0.0,0.0,-0.0437,-0.0952,0.0,-0.1265,-0.1292,-0.1331,-0.1373,-0.1354,-0.1362,-0.1382,-0.1382,-0.1365,-0.1341,-0.1262,-0.1263,-0.1263,-0.1263,-0.1263,-0.1263,-0.1341,-0.134,-0.1339,-0.1333,-0.1663,-0.249,-0.4625,-0.5524,-0.6407,-0.8272,-0.8783,-0.8802,-0.8594,-0.8505,-0.8212,-0.7796,0.0,0.0,0.0,0.0,0.0,0.0,0.0,0.0,0.0,0.0,0.0,0.0,0.0,0.0,0.0,0.0,0.0,0.0,0.0,0.0,0.0,-1.1503,0.0,0.0,0.0,-1.2448,-1.2448,-1.2582,-1.2768,-1.278,-1.3008,-1.338,-1.3738,-1.3539,-1.3636,-1.3931,-1.3931,-1.4022,-1.4298,-1.4298,-1.4298,-1.4298,-1.4298,-1.4208,-1.3925,0.0,0.0,0.0,0.0,0.0,0.0,0.0,0.4055,0.0,0.4019,0.432,0.4439,0.4189,0.4274,0.43,0.43,0.43,0.43,0.43,0.3851,0.3583,0.3583,0.2305,0.0,0.0706,0.0083,-0.0149,0.0126,0.0,0.0,0.1564,0.0,0.0,0.152,0.0,0.0174,0.0,0.0,0.0,-0.1293,-0.131,-0.1365,-0.1391,-0.1393,-0.1401,-0.1413,-0.1413,-0.1405,-0.1393,-0.1393,-0.1393,-0.1393,-0.1393,-0.1393,-0.139,-0.1374,-0.1369,-0.1367,-0.1267,-0.1683,-0.2519,-0.418,-0.5341,-0.6503,-0.8168,-0.891,-0.9294,-0.92,-0.9181,-0.8859,-0.7751,-0.6801,0.0,0.0,0.0,0.0,0.0,0.0,0.0,0.0,0.0,0.0,0.0,0.0,0.0,0.0,0.0,0.0,0.0,0.0,0.0,0.0,0.0,0.0,0.0,0.0,0.0,-1.2363,-1.2534,-1.2546,-1.2597,-1.2774,-1.3147,-1.3443,-1.3346,-1.3539,-1.3931,-1.4022,-1.4208,-1.4298,-1.4112,-1.4112,-1.4118,-1.3919,-1.3829,-1.3738,0.0,0.2827,0.0,0.0,0.3425,0.0,0.3876,0.4153,0.4285,0.4162,0.412,0.412,0.412,0.4216,0.43,0.43,0.43,0.43,0.43,0.4119,0.403,0.403,0.2867,0.1881,0.1164,0.0176,-0.0161,0.0,0.0,0.0,0.0,0.0,0.0,0.0,0.0,0.0,0.0,0.0,-0.1293,-0.134,-0.1416,-0.1394,-0.1402,-0.1426,-0.1436,-0.1436,-0.1436,-0.1436,-0.1436,-0.1436,-0.1436,-0.1436,-0.1436,-0.1436,-0.1431,-0.1407,-0.1399,-0.1395,-0.1459,-0.1877,-0.2555,-0.3819,-0.5083,-0.6347,-0.77,-0.8621,-0.9193,-0.9316,-0.9356,-0.8927,-0.7822,-0.7126,0.0,0.0,0.0,0.0,0.0,0.0,0.0,0.0,0.0,0.0,0.0,0.0,0.0,0.0,0.0,0.0,0.0,0.0,0.0,0.0,0.0,-1.1144,-1.1643,0.0,-1.1952,-1.2283,-1.2448,-1.2458,-1.2409,-1.2683,-1.2961,-1.3147,-1.3147,-1.3346,-1.3835,-1.4112,-1.4202,-1.4298,-1.4022,-1.3931,-1.3835,-1.3642,-1.3443,-1.3443,0.0,0.0,0.0,0.0,0.0,0.0,0.0,0.4153,0.4287,0.4253,0.4249,0.4249,0.4249,0.4279,0.43,0.43,0.43,0.43,0.43,0.3494,0.3045,0.3045,0.1254,0.0269,0.009,-0.0806,-0.1015,0.0,0.0,0.0,0.0,0.0,0.0,0.0,0.0,0.0,0.0,-0.1079,-0.1318,-0.1366,-0.1383,-0.1406,-0.1431,-0.1434,-0.1436,-0.1436,-0.1436,-0.1436,-0.1436,-0.1436,-0.1436,-0.1436,-0.1436,-0.1436,-0.1435,-0.1431,-0.1431,-0.152,-0.1964,-0.2497,-0.3115,-0.4528,-0.5326,-0.621,-0.8055,-0.8491,-0.8797,-0.94,-0.946,-0.9006,-0.7971,-0.8321,-0.8453,0.0,0.0,0.0,0.0,0.0,0.0,0.0,0.0,0.0,0.0,0.0,0.0,0.0,0.0,0.0,0.0,0.0,0.0,-0.9534,0.0,-0.9966,-1.0483,-1.1472,-1.1957,-1.2037,-1.2454,-1.2546,-1.2415,-1.2871,-1.3246,-1.3443,-1.3244,-1.3249,-1.3539,-1.3835,-1.4118,-1.4298,-1.4022,-1.3931,-1.3835,-1.3642,-1.3346,-1.3147,0.0,0.0,0.0,0.0,0.0,0.0,0.0,0.4122,0.4034,0.4034,0.421,0.421,0.4036,0.421,0.43,0.43,0.43,0.43,0.43,0.3941,0.3494,0.2957,0.2151,0.1165,-0.0,-0.0359,-0.06,0.0,0.0,0.0,0.0,0.0,0.0,0.0,0.0,-0.0532,-0.1026,-0.1262,-0.1335,-0.1392,-0.141,-0.1425,-0.1436,-0.1436,-0.1436,-0.1436,-0.1436,-0.1436,-0.1436,-0.1436,-0.1436,-0.1436,-0.1436,-0.1436,-0.1436,-0.1436,-0.1615,-0.1885,-0.2154,-0.278,-0.3496,-0.4028,-0.4919,-0.6071,-0.7394,-0.8101,-0.8786,-0.967,-0.9663,-0.9389,-0.8978,-0.8505,-0.8296,0.0,0.0,0.0,0.0,0.0,0.0,0.0,0.0,0.0,0.0,0.0,0.0,0.0,0.0,0.0,0.0,0.0,0.0,-0.9556,0.0,-1.0886,-1.1289,-1.1624,-1.1952,-1.2203,-1.2454,-1.2546,-1.2689,-1.2962,-1.3246,-1.3539,-1.3545,-1.3636,-1.3738,-1.3835,-1.4022,-1.4298,-1.3829,-1.3738,-1.3835,-1.3642,-1.3346,-1.3147,0.3293,0.0,0.3497,0.0,0.4003,0.4091,0.4174,0.4036,0.3859,0.3857,0.4034,0.4123,0.3946,0.4123,0.43,0.43,0.43,0.43,0.43,0.376,0.3133,0.2508,0.1971,0.0,-0.0359,-0.0448,-0.0523,-0.0736,-0.0289,0.0,0.0,0.0,0.0,0.0,-0.0642,-0.0903,-0.133,-0.1358,-0.1403,-0.1406,-0.1427,-0.1436,-0.1436,-0.1436,-0.1436,-0.1436,-0.1436,-0.1436,-0.1436,-0.1436,-0.1436,-0.1436,-0.1436,-0.1525,-0.1615,-0.1615,-0.1973,-0.2422,-0.2602,-0.3139,-0.3676,-0.3765,-0.4565,-0.563,-0.6858,-0.7654,-0.8452,-0.9772,-0.9838,-0.9719,-0.9658,-0.8881,-0.842,-0.8968,0.0,0.0,0.0,0.0,0.0,0.0,-0.7898,-0.7797,-0.8247,0.0,0.0,0.0,0.0,0.0,0.0,0.0,0.0,0.0,0.0,0.0,0.0,-1.1691,-1.1952,-1.2363,-1.2448,-1.2639,-1.2786,-1.3118,-1.3297,-1.3539,-1.3738,-1.3835,-1.3835,-1.3835,-1.3925,-1.401,-1.3539,-1.3539,-1.3642,-1.3346,-1.3152,-1.305,0.3532,0.3599,0.3708,0.423,0.4293,0.4206,0.3946,0.3859,0.3857,0.3587,0.3767,0.3948,0.3859,0.4123,0.43,0.43,0.43,0.43,0.43,0.2505,0.1431,0.0,0.0,-0.1345,-0.1346,-0.1346,-0.1345,-0.1433,0.0,0.0,-0.0677,0.0,-0.0199,-0.0831,-0.0756,-0.097,-0.1432,-0.1433,-0.1435,-0.1435,-0.1436,-0.1436,-0.1436,-0.1436,-0.1436,-0.1436,-0.1436,-0.1436,-0.1436,-0.1436,-0.1436,-0.1436,-0.1436,-0.1794,-0.2154,-0.2154,-0.2511,-0.2957,-0.3497,-0.3587,-0.3676,-0.421,-0.43,-0.483,-0.6684,-0.7122,-0.765,-0.9598,-1.0038,-0.9885,-0.9686,-0.955,-0.9493,-0.9325,0.0,0.0,0.0,0.0,0.0,0.0,-0.7484,-0.7802,-0.8635,0.0,0.0,0.0,0.0,0.0,0.0,0.0,0.0,-0.9572,-0.9593,0.0,-1.0333,-1.1421,-1.2118,-1.2363,-1.2619,-1.2726,-1.2797,-1.3299,-1.3534,-1.3539,-1.3738,-1.3738,-1.3539,-1.3835,-1.3738,-1.3443,-1.3244,-1.3147,-1.3055,-1.2856,-1.2764,-1.2764,0.351,0.3442,0.3473,0.3927,0.408,0.4099,0.3774,0.3721,0.3737,0.3593,0.3678,0.3767,0.3859,0.4123,0.43,0.0,0.43,0.403,0.0,0.2776,0.1791,0.0538,-0.009,-0.0718,-0.1346,-0.1436,-0.1436,-0.1436,0.0,0.0,0.0,-0.0373,-0.062,-0.1194,-0.1364,-0.1564,-0.1705,-0.1884,-0.1884,-0.1705,-0.1705,-0.1525,-0.1436,-0.1436,-0.1436,-0.1436,-0.1436,-0.1436,-0.1436,-0.1794,-0.1974,-0.1973,-0.2331,-0.2332,-0.2243,-0.2334,-0.2871,-0.3406,-0.3587,-0.3855,-0.4121,-0.43,-0.43,-0.4654,-0.5894,-0.7129,-0.8448,-0.9772,-1.0038,-0.9932,-0.9866,-0.9684,-0.9596,-0.9493,-0.9082,0.0,0.0,0.0,0.0,0.0,-0.8243,-0.8529,0.0,-0.8965,0.0,0.0,0.0,0.0,0.0,0.0,0.0,0.0,-1.0363,0.0,-1.1444,-1.1843,-1.2203,-1.2619,-1.2705,-1.2901,-1.3259,-1.3596,-1.3738,-1.3738,-1.3835,-1.3738,-1.3539,-1.3545,-1.3539,-1.3443,-1.3443,-1.3443,-1.3642,-1.3817,-1.3727,-1.3545,0.354,0.356,0.367,0.4131,0.4264,0.4189,0.3862,0.3779,0.3684,0.3816,0.3694,0.3676,0.4036,0.4212,0.0,0.43,0.3941,0.3673,0.3405,0.2418,0.1433,0.0537,-0.0179,-0.0807,-0.1346,0.0,0.0,-0.1525,-0.1191,-0.0993,-0.0993,-0.091,-0.1108,-0.1525,-0.1705,-0.1884,-0.1974,-0.2154,-0.2064,-0.1794,-0.1794,-0.1615,-0.1436,-0.1525,-0.1525,-0.1436,-0.1525,-0.1615,-0.1794,-0.2064,-0.2333,-0.2511,-0.2868,-0.2957,-0.2869,-0.2872,-0.3408,-0.3853,-0.3853,-0.4121,-0.43,-0.43,-0.43,-0.4654,-0.5894,-0.7394,-0.8719,-0.9336,-0.9772,-0.9864,-0.951,-0.9602,-0.9712,-0.9597,-0.9285,-0.9023,-0.8983,0.0,0.0,0.0,0.0,0.0,0.0,-0.9125,0.0,0.0,0.0,0.0,0.0,0.0,0.0,-1.025,-1.105,0.0,-1.2043,-1.2123,-1.2375,-1.2705,-1.291,-1.3242,-1.3676,-1.3921,-1.4022,-1.3931,-1.3931,-1.3738,-1.3346,-1.3346,-1.3346,-1.3346,-1.3346,-1.3539,-1.3738,-1.3919,-1.3925,-1.3738,0.3708,0.395,0.0,0.0,0.4577,0.0,0.4191,0.3939,0.3798,0.4066,0.3814,0.3765,0.421,0.43,0.43,0.43,0.0,0.0,0.0,0.1612,0.0448,0.1164,-0.0448,-0.1436,-0.1436,-0.1436,-0.1525,-0.1794,-0.1794,-0.1794,-0.1794,-0.1615,-0.1615,-0.1794,-0.1794,-0.1974,-0.2243,-0.2243,-0.2064,-0.1794,-0.1794,-0.1705,-0.1436,-0.1705,-0.1705,-0.1525,-0.1705,-0.1974,-0.2243,-0.2243,-0.2601,-0.2957,-0.3226,-0.3583,-0.3939,-0.3674,-0.3942,-0.43,-0.43,-0.43,-0.43,-0.43,-0.43,-0.4741,-0.6593,-0.7654,-0.8368,-0.8452,-0.9244,-0.9598,-0.8807,-0.9336,-0.9889,-0.97,-0.9569,-0.9428,-0.9119,0.0,0.0,0.0,0.0,0.0,0.0,-0.8903,-0.9468,0.0,0.0,0.0,0.0,0.0,-0.9956,-1.1311,-1.1613,-1.1785,-1.2043,-1.2283,-1.2546,-1.2741,-1.3266,-1.3652,-1.3918,-1.4177,-1.4112,-1.3931,-1.3835,-1.3539,-1.3147,-1.3147,-1.3147,-1.3147,-1.3147,-1.3244,-1.3539,-1.3539,-1.3539,-1.3539,0.0,0.0,0.4003,0.4284,0.4338,0.4264,0.4012,0.408,0.4043,0.4072,0.3904,0.3944,0.43,0.43,0.421,0.4036,0.3942,0.3401,0.2148,0.1432,0.0537,-0.0717,-0.1166,-0.1436,-0.1436,-0.1436,-0.1525,-0.1794,-0.1794,-0.1885,-0.2064,-0.2064,-0.2064,-0.2064,-0.2064,-0.2243,-0.2424,-0.2424,-0.2334,-0.2064,-0.2064,-0.1974,-0.1705,-0.1794,-0.1974,-0.2243,-0.1885,-0.2242,-0.2778,-0.2778,-0.3047,-0.3496,-0.3942,-0.43,-0.4478,-0.421,-0.4389,-0.4569,-0.4569,-0.4478,-0.43,-0.43,-0.43,-0.4565,-0.5805,-0.616,-0.6779,-0.8189,-0.8719,-0.8982,-0.951,-0.9864,-0.9937,-0.9889,-0.9577,-0.9363,-0.9428,-0.9196,0.0,0.0,-0.888,-0.9056,-0.9183,-0.9657,-0.9754,0.0,0.0,0.0,0.0,-0.9786,-1.0264,-1.1832,-1.1871,-1.2037,-1.2283,-1.2369,-1.2641,-1.3025,-1.3357,-1.3652,-1.3912,-1.3999,-1.3931,-1.3931,-1.3636,-1.3443,-1.3147,-1.3147,-1.3147,-1.3147,-1.3346,-1.3539,-1.3835,-1.4016,-1.4106,-1.4106,0.3945,0.4181,0.4304,0.4495,0.4534,0.4439,0.4164,0.4026,0.4067,0.4075,0.3814,0.3764,0.421,0.376,0.3314,0.3227,0.3494,0.3133,0.197,0.1164,0.0269,-0.0718,-0.1166,-0.1436,-0.1436,-0.1436,-0.1615,-0.1974,-0.2064,-0.2154,-0.2334,-0.2243,-0.2243,-0.2243,-0.2243,-0.2244,-0.2334,-0.2334,-0.2243,-0.2064,-0.2154,-0.2064,-0.1794,-0.2064,-0.2333,-0.269,-0.2511,-0.2868,-0.3314,-0.3314,-0.3583,-0.3942,-0.421,-0.448,-0.4659,-0.4654,-0.4743,-0.4835,-0.4835,-0.4659,-0.4478,-0.43,-0.43,-0.4565,-0.5453,-0.6071,-0.6511,-0.7132,-0.7925,-0.8544,-0.8623,-0.9065,-0.9336,-0.9336,-0.8875,-0.864,-0.8906,-0.8569,0.0,-0.917,-0.9391,-0.9507,-0.9764,-1.0224,-1.0294,-0.9839,0.0,0.0,-1.092,-1.092,-1.1237,-1.202,-1.2123,-1.2283,-1.2363,-1.2573,-1.2943,-1.3308,-1.3568,-1.3833,-1.4093,-1.3962,-1.3835,-1.3738,-1.3443,-1.3147,-1.2958,-1.2958,-1.305,-1.3147,-1.3443,-1.3642,-1.3931,-1.4208,-1.4298,-1.4298,0.4215,0.4585,0.4834,0.4734,0.4724,0.4591,0.4322,0.4043,0.396,0.4073,0.3631,0.3496,0.403,0.2955,0.2238,0.2238,0.2418,0.2418,0.2059,0.0717,-0.0179,-0.0359,-0.1076,-0.1525,-0.1525,-0.1525,-0.1794,-0.2243,-0.2424,-0.2513,-0.2513,-0.2424,-0.2334,-0.2334,-0.2244,-0.2243,-0.2243,-0.2243,-0.2064,-0.1885,-0.2154,-0.2154,-0.2063,-0.2423,-0.2869,-0.3136,-0.3227,-0.3583,-0.4028,-0.3939,-0.4119,-0.4389,-0.4389,-0.448,-0.475,-0.4924,-0.501,-0.501,-0.501,-0.4924,-0.4661,-0.4389,-0.43,-0.4476,-0.5277,-0.6068,-0.6508,-0.5808,-0.6956,-0.7834,-0.721,-0.7746,-0.8321,-0.8279,-0.7897,-0.7725,-0.7958,0.0,-0.8012,-0.9247,-0.9606,-0.9847,-1.0188,-1.0554,-1.0901,-1.1241,-1.1602,-1.1952,-1.2363,-1.2363,-1.2283,-1.2123,-1.2369,-1.2466,-1.2514,-1.2919,-1.3272,-1.3574,-1.3797,-1.4045,-1.4202,-1.3925,-1.3738,-1.3443,-1.3152,-1.2958,-1.2764,-1.2764,-1.2958,-1.3147,-1.3443,-1.3642,-1.3931,-1.4208,-1.4298,-1.4298,0.399,0.4425,0.4736,0.4537,0.438,0.4326,0.402,0.3992,0.4079,0.4066,0.3904,0.3587,0.3136,0.2597,0.1879,0.1074,0.0984,0.0715,-0.0179,-0.0447,-0.0985,-0.1794,-0.1974,-0.2064,-0.2064,-0.2064,-0.2243,-0.2424,-0.2513,-0.2604,-0.2873,-0.2784,-0.2784,-0.2784,-0.2513,-0.2424,-0.2424,-0.2424,-0.2334,-0.2154,-0.2334,-0.2691,-0.2959,-0.3048,-0.3674,-0.4302,-0.3765,-0.4121,-0.4741,-0.4117,-0.4208,-0.4661,-0.4661,-0.4661,-0.475,-0.475,-0.4835,-0.501,-0.528,-0.5015,-0.4661,-0.4661,-0.448,-0.4297,-0.4476,-0.4652,-0.4919,-0.5542,-0.5897,-0.6337,-0.6949,-0.721,-0.7261,-0.7153,-0.7193,-0.7184,-0.7084,0.0,-0.8435,-0.8661,-0.9378,-1.0005,-1.0033,-1.0641,-1.0987,-1.1068,-1.1602,-1.2123,-1.2363,-1.2363,-1.2448,-1.2625,-1.2619,-1.2733,-1.2973,-1.3103,-1.3369,-1.3845,-1.3888,-1.3956,-1.3931,-1.3636,-1.3443,-1.3147,-1.2958,-1.2861,-1.2764,-1.2764,-1.2958,-1.3147,-1.3443,-1.3642,-1.3931,-1.4208,-1.4298,-1.4298,0.4141,0.4369,0.4468,0.4371,0.4241,0.3992,0.3718,0.3742,0.3682,0.291,0.2793,0.2597,0.197,0.0895,0.0179,-0.0,-0.0806,-0.1433,-0.1882,-0.1164,-0.1164,-0.2154,-0.2243,-0.2243,-0.2243,-0.2334,-0.2424,-0.2513,-0.2604,-0.2784,-0.2875,-0.2875,-0.2784,-0.2694,-0.2513,-0.2424,-0.2334,-0.2334,-0.2244,-0.2243,-0.2691,-0.3048,-0.3227,-0.3673,-0.4208,-0.4835,-0.4478,-0.4743,-0.5191,-0.4835,-0.4746,-0.4748,-0.4837,-0.4748,-0.475,-0.5018,-0.5104,-0.5191,-0.5191,-0.5102,-0.5015,-0.475,-0.4569,-0.448,-0.43,-0.4654,-0.501,-0.4921,-0.5364,-0.5808,-0.6245,-0.6334,-0.6322,-0.6261,-0.6078,0.0,0.0,-0.6891,-0.7585,-0.8396,-0.9423,-1.0125,-1.0294,-1.0727,-1.1154,-1.1499,-1.194,-1.2283,-1.2534,-1.2534,-1.2619,-1.2705,-1.285,-1.2988,-1.3127,-1.3405,-1.367,-1.3912,-1.4051,-1.4088,-1.4118,-1.3732,-1.3443,-1.3346,-1.2958,-1.2764,-1.2764,-1.2764,-1.2958,-1.3147,-1.3443,-1.3642,-1.3931,-1.4208,-1.4298,-1.4298,0.4064,0.419,0.419,0.4188,0.3783,0.3351,0.2971,0.2946,0.2554,0.1614,0.1432,0.1253,0.0716,-0.0537,-0.1345,-0.1164,-0.2242,-0.2875,-0.2875,-0.1882,-0.1523,-0.2334,-0.2334,-0.2334,-0.2334,-0.2513,-0.2604,-0.2604,-0.2784,-0.2875,-0.2875,-0.2875,-0.2784,-0.2604,-0.2604,-0.2513,-0.2244,-0.2423,-0.2423,-0.2333,-0.3138,-0.3496,-0.3494,-0.4208,-0.4743,-0.5191,-0.5099,-0.528,-0.5463,-0.5371,-0.5193,-0.4926,-0.5013,-0.4924,-0.4837,-0.5193,-0.5371,-0.5371,-0.5191,-0.528,-0.5282,-0.4837,-0.475,-0.4659,-0.4389,-0.4832,-0.5188,-0.4476,-0.4832,-0.5364,-0.5364,-0.5364,-0.5323,-0.5279,0.0,0.0,0.0,-0.5798,-0.6642,-0.802,-0.9069,-0.9859,-1.0376,-1.0809,-1.1241,-1.1843,-1.2186,-1.2534,-1.2705,-1.2705,-1.2735,-1.2801,-1.3012,-1.3181,-1.3302,-1.3707,-1.3936,-1.4002,-1.4201,-1.4202,-1.4106,-1.3732,-1.3443,-1.3346,-1.2958,-1.2861,-1.2861,-1.2861,-1.2958,-1.3244,-1.3443,-1.3738,-1.3931,-1.4208,-1.4298,-1.4298,0.3806,0.3919,0.3919,0.3823,0.2819,0.1946,0.1662,0.109,0.0627,0.0537,0.0537,0.0268,-0.0447,-0.1075,-0.1705,-0.2333,-0.2694,-0.2875,-0.2875,-0.2784,-0.2784,-0.2873,-0.2873,-0.2873,-0.2873,-0.2873,-0.2873,-0.2873,-0.2875,-0.2875,-0.2875,-0.2875,-0.2875,-0.2873,-0.2873,-0.2694,-0.2513,-0.3229,-0.3139,-0.2603,-0.3764,-0.421,-0.4297,-0.4743,-0.528,-0.5644,-0.546,-0.5463,-0.5644,-0.5463,-0.5371,-0.5371,-0.5371,-0.5191,-0.501,-0.501,-0.5191,-0.546,-0.5644,-0.5552,-0.5371,-0.501,-0.4835,-0.4659,-0.4389,-0.4387,-0.4389,-0.43,-0.4387,-0.4389,-0.4389,-0.4389,-0.4336,-0.4135,0.0,0.0,-0.4119,-0.5085,-0.6104,-0.7119,-0.8009,-0.8982,-0.9946,-1.0809,-1.1327,-1.1327,-1.2186,-1.2705,-1.2705,-1.2705,-1.2825,-1.3085,-1.3115,-1.3357,-1.3845,-1.3888,-1.4026,-1.4268,-1.4286,-1.4016,-1.3539,-1.3539,-1.3249,-1.2861,-1.2861,-1.2953,-1.305,-1.305,-1.3249,-1.3539,-1.3738,-1.3835,-1.3931,-1.4208,-1.4298,-1.4298,0.3447,0.2711,0.2149,0.2524,0.1578,0.0735,0.0636,0.045,0.0089,-0.0627,-0.0627,-0.0895,-0.1703,-0.2153,-0.2334,-0.2513,-0.2784,-0.2875,-0.2875,-0.2875,-0.2875,-0.2875,-0.2875,-0.3053,-0.332,-0.3053,-0.3053,-0.332,-0.3053,-0.2875,-0.2875,-0.2875,-0.2875,-0.2875,-0.2875,-0.2873,-0.2784,-0.332,-0.3408,-0.3229,-0.4297,-0.4743,-0.4743,-0.5282,-0.5552,-0.5733,-0.5644,-0.5644,-0.5644,-0.5644,-0.5463,-0.546,-0.5552,-0.546,-0.528,-0.5371,-0.5463,-0.5644,-0.5644,-0.5644,-0.5552,-0.5282,-0.5102,-0.4835,-0.4569,-0.4389,-0.43,-0.43,-0.43,-0.43,-0.43,-0.43,-0.4244,-0.4157,0.0,-0.4238,-0.4238,-0.5058,-0.6071,-0.6946,-0.7921,-0.8982,-1.0289,-1.0895,-1.1413,-1.1671,-1.2357,-1.2705,-1.2705,-1.2868,-1.3163,-1.3598,-1.361,-1.3707,-1.3906,-1.4063,-1.4201,-1.4298,-1.4298,-1.4112,-1.3738,-1.3539,-1.3346,-1.2953,-1.2861,-1.2953,-1.3147,-1.3147,-1.3346,-1.3738,-1.3642,-1.3829,-1.4112,-1.4118,-1.4208,-1.4298,0.1822,0.1097,0.0457,0.0913,0.0183,-0.0455,-0.0629,-0.0627,-0.0896,-0.1794,-0.1792,-0.1882,-0.2513,-0.2784,-0.2784,-0.2604,-0.2963,-0.3142,-0.3142,-0.323,-0.323,-0.3142,-0.3142,-0.332,-0.3855,-0.3497,-0.3409,-0.3587,-0.332,-0.3053,-0.2875,-0.2875,-0.2963,-0.3142,-0.2963,-0.3053,-0.332,-0.3676,-0.3855,-0.3944,-0.4835,-0.5099,-0.501,-0.5552,-0.5733,-0.5733,-0.5733,-0.5733,-0.5733,-0.5733,-0.5644,-0.5552,-0.5644,-0.5644,-0.5552,-0.5644,-0.5733,-0.5733,-0.5733,-0.5733,-0.5644,-0.5463,-0.528,-0.5013,-0.4748,-0.4569,-0.4389,-0.43,-0.43,-0.43,-0.43,-0.43,-0.43,-0.43,-0.43,-0.43,-0.43,-0.4832,-0.5716,-0.6946,-0.7654,-0.8711,-1.0289,-1.0982,-1.1408,-1.1757,-1.2357,-1.2741,-1.2831,-1.3175,-1.3538,-1.3894,-1.3984,-1.4032,-1.4032,-1.4208,-1.4298,-1.4298,-1.4202,-1.4016,-1.3738,-1.3539,-1.3249,-1.2953,-1.2861,-1.2953,-1.3147,-1.3147,-1.3346,-1.3738,-1.3539,-1.3823,-1.4112,-1.3931,-1.4118,-1.4298,-0.116,-0.0893,-0.0805,-0.1071,-0.1253,-0.1614,-0.2059,-0.2601,-0.2875,-0.2875,-0.2875,-0.2875,-0.2875,-0.2875,-0.2875,-0.2875,-0.332,-0.3587,-0.3587,-0.4032,-0.4121,-0.3587,-0.3587,-0.3855,-0.43,-0.43,-0.4032,-0.3587,-0.3587,-0.3409,-0.2875,-0.2875,-0.3141,-0.3587,-0.3142,-0.3409,-0.43,-0.43,-0.43,-0.4389,-0.5285,-0.546,-0.5099,-0.5552,-0.5733,-0.5733,-0.5733,-0.5733,-0.5733,-0.5733,-0.5733,-0.5733,-0.5733,-0.5733,-0.5733,-0.5733,-0.5733,-0.5733,-0.5733,-0.5733,-0.5644,-0.5463,-0.5371,-0.5282,-0.4839,-0.4661,-0.4659,-0.4389,-0.43,-0.43,-0.43,-0.43,-0.43,-0.43,-0.43,-0.43,-0.43,-0.43,-0.5008,-0.6858,-0.7122,-0.783,-0.9772,-1.0809,-1.1327,-1.1327,-1.2186,-1.2831,-1.3115,-1.3622,-1.3906,-1.3912,-1.4159,-1.4298,-1.4298,-1.4298,-1.4298,-1.4298,-1.4022,-1.3738,-1.3443,-1.3244,-1.2958,-1.2764,-1.2764,-1.2953,-1.3147,-1.3147,-1.3249,-1.3539,-1.3539,-1.3642,-1.3931,-1.3931,-1.4118,-1.4298,-0.1428,-0.2234,-0.2861,-0.2412,-0.2952,-0.3492,-0.3582,-0.3496,-0.3409,-0.3409,-0.3142,-0.2875,-0.2875,-0.3232,-0.323,-0.2964,-0.332,-0.3587,-0.3587,-0.4032,-0.4389,-0.4565,-0.4297,-0.43,-0.4743,-0.4478,-0.4389,-0.4565,-0.421,-0.3853,-0.3409,-0.3765,-0.3765,-0.3587,-0.3765,-0.4032,-0.43,-0.4654,-0.4832,-0.4832,-0.5463,-0.5644,-0.5463,-0.5644,-0.5733,-0.5733,-0.5733,-0.5733,-0.5733,-0.5733,-0.5733,-0.5733,-0.5733,-0.5733,-0.5733,-0.5733,-0.5733,-0.5733,-0.5733,-0.5733,-0.5644,-0.5644,-0.5463,-0.5371,-0.5196,-0.4928,-0.4661,-0.4569,-0.4389,-0.43,-0.43,-0.43,-0.43,-0.43,-0.43,-0.43,-0.43,-0.43,-0.4743,-0.5983,-0.6684,-0.7566,-0.8807,-1.0371,-1.1327,-1.1327,-1.236,-1.3194,-1.3646,-1.3821,-1.399,-1.4171,-1.4256,-1.4298,-1.4298,-1.4298,-1.4298,-1.4298,-1.4022,-1.3738,-1.3443,-1.3244,-1.2958,-1.2764,-1.2764,-1.2953,-1.3147,-1.3147,-1.3249,-1.3443,-1.3244,-1.3539,-1.3835,-1.3738,-1.3925,-1.4298,-0.3215,-0.3755,-0.4293,-0.4024,-0.4206,-0.4387,-0.4565,-0.421,-0.3855,-0.3855,-0.3587,-0.3499,-0.3499,-0.3676,-0.3765,-0.3499,-0.3855,-0.421,-0.4391,-0.4659,-0.5013,-0.528,-0.5015,-0.5015,-0.528,-0.5015,-0.4924,-0.501,-0.4743,-0.4297,-0.3855,-0.421,-0.421,-0.4121,-0.43,-0.4478,-0.4837,-0.4921,-0.5099,-0.5282,-0.5552,-0.5733,-0.5733,-0.5733,-0.5733,-0.5733,-0.5733,-0.5733,-0.5733,-0.5733,-0.5733,-0.5733,-0.5733,-0.5733,-0.5733,-0.5733,-0.5733,-0.5733,-0.5733,-0.5733,-0.5733,-0.5733,-0.5644,-0.5463,-0.528,-0.5013,-0.4748,-0.4569,-0.4389,-0.43,-0.43,-0.43,-0.4387,-0.4832,-0.4832,-0.4832,-0.4832,-0.4832,-0.5186,-0.6157,-0.6773,-0.7654,-0.8982,-1.0458,-1.1537,-1.1989,-1.2862,-1.3568,-1.3888,-1.4002,-1.4135,-1.4292,-1.4298,-1.4298,-1.4298,-1.4298,-1.4298,-1.4298,-1.4022,-1.3738,-1.3443,-1.3244,-1.2958,-1.2764,-1.2764,-1.2861,-1.2953,-1.2953,-1.3055,-1.3249,-1.305,-1.3249,-1.3738,-1.3545,-1.3823,-1.4298,-0.5733,-0.5371,-0.5191,-0.5644,-0.5015,-0.4567,-0.501,-0.4654,-0.4387,-0.4387,-0.43,-0.43,-0.43,-0.4297,-0.4387,-0.43,-0.4743,-0.5191,-0.5644,-0.5644,-0.5733,-0.5733,-0.5733,-0.5733,-0.5733,-0.5733,-0.5463,-0.5099,-0.5099,-0.4832,-0.4387,-0.4389,-0.4654,-0.5008,-0.4565,-0.4926,-0.5644,-0.528,-0.5282,-0.5733,-0.5733,-0.5733,-0.5733,-0.5733,-0.5733,-0.5733,-0.5733,-0.5733,-0.5733,-0.5733,-0.5733,-0.5733,-0.5733,-0.5733,-0.5733,-0.5733,-0.5733,-0.5733,-0.5822,-0.5822,-0.5822,-0.5908,-0.5911,-0.573,-0.5191,-0.501,-0.4921,-0.4476,-0.43,-0.43,-0.43,-0.43,-0.4565,-0.5542,-0.563,-0.563,-0.5719,-0.5719,-0.5983,-0.6861,-0.7122,-0.7918,-0.9772,-1.0829,-1.1908,-1.3081,-1.3634,-1.3918,-1.3936,-1.4165,-1.4298,-1.4298,-1.4298,-1.4298,-1.4298,-1.4298,-1.4298,-1.4298,-1.4022,-1.3738,-1.3443,-1.3244,-1.2958,-1.2764,-1.2764,-1.2764,-1.2861,-1.2764,-1.2764,-1.2861,-1.2764,-1.3055,-1.3539,-1.3539,-1.3823,-1.4298,-0.5733,-0.5644,-0.5552,-0.5644,-0.5555,-0.5463,-0.5552,-0.5191,-0.4832,-0.4832,-0.4565,-0.43,-0.43,-0.4654,-0.4743,-0.43,-0.4743,-0.501,-0.5102,-0.5463,-0.5733,-0.5733,-0.5733,-0.5733,-0.5733,-0.5733,-0.5644,-0.5552,-0.5552,-0.5282,-0.4832,-0.5193,-0.5282,-0.501,-0.5282,-0.5552,-0.5733,-0.5552,-0.5644,-0.5733,-0.5733,-0.5733,-0.5733,-0.5733,-0.5733,-0.5733,-0.5733,-0.5733,-0.5733,-0.5733,-0.5733,-0.5733,-0.5733,-0.5733,-0.5733,-0.5733,-0.5733,-0.5822,-0.6612,-0.6789,-0.6966,-0.7665,-0.7316,-0.6612,-0.5727,-0.528,-0.5008,-0.4832,-0.4565,-0.43,-0.43,-0.43,-0.4565,-0.5542,-0.5099,-0.4832,-0.563,-0.5719,-0.5808,-0.5983,-0.7305,-0.8536,-0.9327,-1.1056,-1.2601,-1.3609,-1.3839,-1.3996,-1.4201,-1.4268,-1.4298,-1.4298,-1.4298,-1.4298,-1.4298,-1.4298,-1.4298,-1.4298,-1.4022,-1.3738,-1.3443,-1.3244,-1.2958,-1.2764,-1.2764,-1.2861,-1.305,-1.2861,-1.2861,-1.305,-1.2861,-1.3055,-1.3539,-1.3539,-1.3823,-1.4394,-0.5733,-0.5733,-0.5733,-0.5733,-0.5733,-0.5733,-0.5733,-0.5463,-0.5371,-0.5371,-0.5104,-0.4926,-0.4926,-0.5193,-0.5193,-0.5015,-0.5193,-0.5371,-0.5371,-0.5552,-0.5733,-0.5733,-0.5733,-0.5733,-0.5733,-0.5733,-0.5733,-0.5733,-0.5733,-0.5552,-0.5371,-0.5552,-0.5552,-0.5371,-0.5552,-0.5733,-0.5733,-0.5733,-0.5733,-0.5733,-0.5733,-0.5733,-0.5733,-0.5733,-0.5733,-0.5733,-0.5733,-0.5733,-0.5733,-0.5733,-0.5733,-0.5733,-0.5733,-0.5997,-0.6349,-0.6349,-0.67,-0.7139,-0.7669,-0.7753,-0.7929,-0.8368,-0.7753,-0.6962,-0.6346,-0.5633,-0.501,-0.4835,-0.4567,-0.43,-0.43,-0.43,-0.4741,-0.6157,-0.598,-0.598,-0.6868,-0.7044,-0.7044,-0.7044,-0.8097,-0.927,-1.0426,-1.1637,-1.2774,-1.3602,-1.3838,-1.4064,-1.4292,-1.4298,-1.4298,-1.4298,-1.4298,-1.4298,-1.4298,-1.4298,-1.4298,-1.4298,-1.4022,-1.3738,-1.3443,-1.3244,-1.2958,-1.2764,-1.2764,-1.2861,-1.2953,-1.2861,-1.2861,-1.2953,-1.2861,-1.3055,-1.3539,-1.3539,-1.3823,-1.4394,-0.5733,-0.5733,-0.5733,-0.5733,-0.5733,-0.5733,-0.5733,-0.5733,-0.5733,-0.5733,-0.5733,-0.5733,-0.5733,-0.5733,-0.5733,-0.5733,-0.5733,-0.5733,-0.5733,-0.5733,-0.5733,-0.5733,-0.5733,-0.5733,-0.5733,-0.5733,-0.5733,-0.5733,-0.5733,-0.5733,-0.5733,-0.5733,-0.5733,-0.5733,-0.5733,-0.5733,-0.5733,-0.5733,-0.5733,-0.5733,-0.5733,-0.5733,-0.5733,-0.5733,-0.5733,-0.5733,-0.5733,-0.5733,-0.5733,-0.5733,-0.5733,-0.5733,-0.5733,-0.6349,-0.7139,-0.7139,-0.7753,-0.8544,-0.8719,-0.8719,-0.8807,-0.8894,-0.8281,-0.7577,-0.7397,-0.6248,-0.5277,-0.5191,-0.501,-0.483,-0.483,-0.4741,-0.5184,-0.7122,-0.7126,-0.7302,-0.8364,-0.8544,-0.8544,-0.8544,-0.9091,-1.0245,-1.1909,-1.2324,-1.2786,-1.3496,-1.3706,-1.4022,-1.4202,-1.4298,-1.4298,-1.4298,-1.4298,-1.4298,-1.4298,-1.4298,-1.4298,-1.4298,-1.4022,-1.3738,-1.3443,-1.3244,-1.2958,-1.2764,-1.2764,-1.2861,-1.2861,-1.2764,-1.2861,-1.2861,-1.2764,-1.3055,-1.3443,-1.3539,-1.3919,-1.449,-0.5733,-0.5733,-0.5733,-0.5733,-0.5733,-0.5733,-0.5733,-0.5733,-0.5733,-0.5733,-0.5733,-0.5733,-0.5733,-0.5733,-0.5733,-0.5733,-0.5733,-0.5733,-0.5733,-0.5733,-0.5733,-0.5733,-0.5733,-0.5733,-0.5733,-0.5733,-0.5733,-0.5733,-0.5733,-0.5733,-0.5733,-0.5733,-0.5733,-0.5733,-0.5733,-0.5733,-0.5733,-0.5733,-0.5733,-0.5733,-0.5733,-0.5733,-0.5733,-0.5733,-0.5733,-0.5733,-0.5733,-0.5733,-0.5733,-0.5733,-0.5733,-0.5733,-0.5733,-0.6349,-0.7139,-0.7139,-0.7753,-0.8719,-0.9506,-0.9685,-0.9946,-1.0733,-1.0207,-0.9506,-0.9506,-0.7749,-0.6428,-0.7217,-0.7037,-0.677,-0.7031,-0.6416,-0.6508,-0.836,-0.7302,-0.6776,-0.8281,-0.8544,-0.8544,-0.8544,-1.0014,-1.1378,-1.2246,-1.2794,-1.3142,-1.3471,-1.3721,-1.3931,-1.3931,-1.4208,-1.4298,-1.4298,-1.4298,-1.4298,-1.4298,-1.4298,-1.4298,-1.4298,-1.4022,-1.3738,-1.3443,-1.3244,-1.2958,-1.2764,-1.2764,-1.2861,-1.305,-1.2861,-1.2861,-1.305,-1.2861,-1.2953,-1.3244,-1.3642,-1.4316,-1.4981,-0.5733,-0.5733,-0.5733,-0.5733,-0.5733,-0.5733,-0.5733,-0.5733,-0.5733,-0.5733,-0.5733,-0.5733,-0.5733,-0.5733,-0.5733,-0.5733,-0.5733,-0.5733,-0.5733,-0.5733,-0.5733,-0.5733,-0.5733,-0.5733,-0.5733,-0.5733,-0.5733,-0.5733,-0.5733,-0.5733,-0.5733,-0.5733,-0.5733,-0.5733,-0.5733,-0.5733,-0.5733,-0.5733,-0.5733,-0.5733,-0.5733,-0.5733,-0.5733,-0.5733,-0.5733,-0.5733,-0.5733,-0.5733,-0.5733,-0.5733,-0.5733,-0.5822,-0.6349,-0.7139,-0.8017,-0.8544,-0.9331,-1.012,-1.0559,-1.0646,-1.0824,-1.1176,-1.0559,-1.0033,-1.0559,-0.9419,-0.8101,-0.7834,-0.765,-0.7467,-0.7471,-0.7119,-0.7298,-0.8715,-0.8097,-0.7921,-0.9157,-0.9506,-0.9892,-1.0362,-1.1199,-1.1984,-1.2598,-1.2842,-1.3126,-1.3437,-1.3636,-1.3829,-1.4112,-1.4202,-1.4298,-1.4298,-1.4298,-1.4298,-1.4298,-1.4298,-1.4202,-1.4118,-1.3829,-1.3738,-1.3738,-1.3443,-1.3249,-1.3152,-1.3055,-1.305,-1.305,-1.2856,-1.2861,-1.2958,-1.2861,-1.3244,-1.3817,-1.4214,-1.479,-1.5547]},{"header":{"parameterUnit":"m.s-1","parameterCategory":1,"la1":30.6,"la2":28.766,"lo1":-90.7593,"lo2":-88.6598,"dy":0.0162,"dx":0.0183,"nx":116,"ny":114,"refTime":"2023-04-24T18:00:00:Z","depth":0,"parameterNumber":3,"parameterNumberName":"V-component_of_WINDS"},"data":[0.0,0.0,0.0,0.0,0.0,0.0,0.0,0.0,0.0,0.0,0.0,0.0,0.0,0.0,0.0,0.0,0.0,0.0,0.0,0.0,0.0,0.0,0.0,0.0,0.0,0.0,0.0,0.0,0.0,0.0,0.0,0.0,0.0,0.0,0.0,0.0,0.0,0.0,0.0,0.0,0.0,0.0,0.0,0.0,0.0,0.0,0.0,0.0,0.0,0.0,0.0,0.0,0.0,0.0,0.0,0.0,0.0,0.0,0.0,0.0,0.0,0.0,0.0,0.0,0.0,0.0,0.0,0.0,0.0,0.0,0.0,0.0,0.0,0.0,0.0,0.0,0.0,0.0,0.0,0.0,0.0,0.0,0.0,0.0,0.0,0.0,0.0,0.0,0.0,0.0,0.0,0.0,0.0,0.0,0.0,0.0,0.0,0.0,0.0,0.0,0.0,0.0,0.0,0.0,0.0,0.0,0.0,0.0,0.0,0.0,0.0,0.0,0.0,0.0,0.0,0.0,0.0,0.0,0.0,0.0,0.0,0.0,0.0,0.0,0.0,0.0,0.0,0.0,0.0,0.0,0.0,0.0,0.0,0.0,0.0,0.0,0.0,0.0,0.0,0.0,0.0,0.0,0.0,0.0,0.0,0.0,0.0,0.0,0.0,0.0,0.0,0.0,0.0,0.0,0.0,0.0,0.0,0.0,0.0,0.0,0.0,0.0,0.0,0.0,0.0,0.0,0.0,0.0,0.0,0.0,0.0,0.0,0.0,0.0,0.0,0.0,0.0,0.0,0.0,0.0,0.0,0.0,0.0,0.0,0.0,0.0,0.0,0.0,0.0,0.0,0.0,0.0,0.0,0.0,0.0,0.0,0.0,0.0,0.0,0.0,0.0,0.0,0.0,0.0,0.0,0.0,0.0,0.0,0.0,0.0,0.0,0.0,0.0,0.0,0.0,0.0,0.0,0.0,0.0,0.0,0.0,0.0,0.0,0.0,0.0,0.0,0.0,0.0,0.0,0.0,0.0,0.0,0.0,0.0,0.0,0.0,0.0,0.0,0.0,0.0,0.0,0.0,0.0,0.0,0.0,0.0,0.0,0.0,0.0,0.0,0.0,0.0,0.0,0.0,0.0,0.0,0.0,0.0,0.0,0.0,0.0,0.0,0.0,0.0,0.0,0.0,0.0,0.0,0.0,0.0,0.0,0.0,0.0,0.0,0.0,0.0,0.0,0.0,0.0,0.0,0.0,0.0,0.0,0.0,0.0,0.0,0.0,0.0,0.0,0.0,0.0,0.0,0.0,0.0,0.0,0.0,0.0,0.0,0.0,0.0,0.0,0.0,0.0,0.0,0.0,0.0,0.0,0.0,0.0,0.0,0.0,0.0,0.0,0.0,0.0,0.0,0.0,0.0,0.0,0.0,0.0,0.0,0.0,0.0,0.0,0.0,0.0,0.0,0.0,0.0,0.0,0.0,0.0,0.0,0.0,0.0,0.0,0.0,0.0,0.0,0.0,0.0,0.0,0.0,0.0,0.0,0.0,0.0,0.0,0.0,0.0,0.0,0.0,0.0,0.0,0.0,0.0,0.0,0.0,0.0,0.0,0.0,0.0,0.0,0.0,0.0,0.0,0.0,0.0,0.0,0.0,0.0,0.0,0.0,0.0,0.0,0.0,0.0,0.0,0.0,0.0,0.0,0.0,0.0,0.0,0.0,0.0,0.0,0.0,0.0,0.0,0.0,0.0,0.0,0.0,0.0,0.0,0.0,0.0,0.0,0.0,0.0,0.0,0.0,0.0,0.0,0.0,0.0,0.0,0.0,0.0,0.0,0.0,0.0,0.0,0.0,0.0,0.0,0.0,0.0,0.0,0.0,0.0,0.0,0.0,0.0,0.0,0.0,0.0,0.0,0.0,0.0,0.0,0.0,0.0,0.0,0.0,0.0,0.0,0.0,0.0,0.0,0.0,0.0,0.0,0.0,0.0,0.0,0.0,0.0,0.0,0.0,0.0,0.0,0.0,0.0,0.0,0.0,0.0,0.0,0.0,0.0,0.0,0.0,0.0,0.0,0.0,0.0,0.0,0.0,0.0,0.0,0.0,0.0,0.0,0.0,0.0,0.0,0.0,0.0,0.0,0.0,0.0,0.0,0.0,0.0,0.0,0.0,0.0,0.0,0.0,0.0,0.0,0.0,0.0,0.0,0.0,0.0,0.0,0.0,0.0,0.0,0.0,0.0,0.0,0.0,0.0,0.0,0.0,0.0,0.0,0.0,0.0,0.0,0.0,0.0,0.0,0.0,0.0,0.0,0.0,0.0,0.0,0.0,0.0,0.0,0.0,0.0,0.0,0.0,0.0,0.0,0.0,0.0,0.0,0.0,0.0,0.0,0.0,0.0,0.0,0.0,0.0,0.0,0.0,0.0,0.0,0.0,0.0,0.0,0.0,0.0,0.0,0.0,0.0,0.0,0.0,0.0,0.0,0.0,0.0,0.0,0.0,0.0,0.0,0.0,0.0,0.0,0.0,0.0,0.0,0.0,0.0,0.0,0.0,0.0,0.0,0.0,0.0,0.0,0.0,0.0,0.0,0.0,0.0,0.0,0.0,0.0,0.0,0.0,0.0,0.0,0.0,0.0,0.0,0.0,0.0,0.0,0.0,0.0,0.0,0.0,0.0,0.0,0.0,0.0,0.0,0.0,0.0,0.0,0.0,0.0,0.0,0.0,0.0,0.0,0.0,0.0,0.0,0.0,0.0,0.0,0.0,0.0,0.0,0.0,0.0,0.0,0.0,0.0,0.0,0.0,0.0,0.0,0.0,0.0,0.0,0.0,0.0,0.0,0.0,0.0,0.0,0.0,0.0,0.0,0.0,0.0,0.0,0.0,0.0,0.0,0.0,0.0,0.0,0.0,0.0,0.0,0.0,0.0,0.0,0.0,0.0,0.0,0.0,0.0,0.0,0.0,0.0,0.0,0.0,0.0,0.0,0.0,0.0,0.0,0.0,0.0,0.0,0.0,0.0,0.0,0.0,0.0,0.0,0.0,0.0,0.0,0.0,0.0,0.0,0.0,0.0,0.0,0.0,0.0,0.0,0.0,0.0,0.0,0.0,0.0,0.0,0.0,0.0,0.0,0.0,0.0,0.0,0.0,0.0,0.0,0.0,0.0,0.0,0.0,0.0,0.0,0.0,0.0,0.0,0.0,0.0,0.0,0.0,0.0,0.0,0.0,0.0,0.0,0.0,0.0,0.0,0.0,0.0,0.0,0.0,0.0,0.0,0.0,0.0,0.0,0.0,0.0,0.0,0.0,0.0,0.0,0.0,0.0,0.0,0.0,0.0,0.0,0.0,0.0,0.0,0.0,0.0,0.0,0.0,0.0,0.0,0.0,0.0,0.0,0.0,0.0,0.0,0.0,0.0,0.0,0.0,0.0,0.0,0.0,0.0,0.0,0.0,0.0,0.0,0.0,0.0,0.0,0.0,0.0,0.0,0.0,0.0,0.0,0.0,0.0,0.0,0.0,0.0,0.0,0.0,0.0,0.0,0.0,0.0,0.0,0.0,0.0,0.0,0.0,0.0,0.0,0.0,0.0,0.0,0.0,0.0,0.0,0.0,0.0,0.0,0.0,0.0,0.0,0.0,0.0,0.0,0.0,0.0,0.0,0.0,0.0,0.0,0.0,0.0,0.0,0.0,0.0,0.0,0.0,0.0,0.0,0.0,0.0,0.0,0.0,0.0,0.0,0.0,0.0,0.0,0.0,0.0,0.0,0.0,0.0,0.0,0.0,0.0,0.0,0.0,0.0,0.0,0.0,0.0,0.0,0.0,0.0,0.0,0.0,0.0,0.0,0.0,0.0,0.0,0.0,0.0,0.0,0.0,0.0,0.0,0.0,0.0,0.0,0.0,0.0,0.0,0.0,0.0,0.0,0.0,0.0,0.0,0.0,0.0,0.0,0.0,0.0,0.0,0.0,0.0,0.0,0.0,0.0,0.0,0.0,0.0,0.0,0.0,0.0,0.0,0.0,0.0,0.0,0.0,0.0,0.0,0.0,0.0,0.0,0.0,0.0,0.0,0.0,0.0,0.0,0.0,0.0,0.0,0.0,0.0,0.0,0.0,0.0,0.0,0.0,0.0,0.0,0.0,0.0,0.0,0.0,0.0,0.0,0.0,0.0,0.0,0.0,0.0,0.0,0.0,0.0,0.0,0.0,0.0,0.0,0.0,0.0,0.0,0.0,0.0,0.0,0.0,0.0,0.0,0.0,0.0,0.0,0.0,0.0,0.0,0.0,0.0,0.0,0.0,0.0,0.0,0.0,0.0,0.0,0.0,0.0,0.0,0.0,0.0,0.0,0.0,0.0,0.0,0.0,0.0,0.0,0.0,0.0,0.0,0.0,0.0,0.0,0.0,0.0,0.0,0.0,0.0,0.0,0.0,0.0,0.0,0.0,0.0,0.0,0.0,0.0,0.0,0.0,0.0,0.0,0.0,0.0,0.0,0.0,0.0,0.0,0.0,0.0,0.0,0.0,0.0,0.0,0.0,0.0,0.0,0.0,0.0,0.0,0.0,0.0,0.0,0.0,0.0,0.0,0.0,0.0,0.0,0.0,0.0,0.0,0.0,0.0,0.0,0.0,0.0,0.0,0.0,0.0,0.0,0.0,0.0,0.0,0.0,0.0,0.0,0.0,0.0,0.0,0.0,0.0,0.0,0.0,0.0,0.0,0.0,0.0,0.0,0.0,0.0,0.0,0.0,0.0,0.0,0.0,0.0,0.0,0.0,0.0,0.0,0.0,0.0,0.0,0.0,0.0,0.0,0.0,0.0,0.0,0.0,0.0,0.0,0.0,0.0,0.0,0.0,0.0,0.0,0.0,0.0,0.0,0.0,0.0,0.0,0.0,0.0,0.0,0.0,0.0,0.0,0.0,0.0,0.0,0.0,0.0,0.0,0.0,0.0,0.0,0.0,0.0,0.0,0.0,0.0,0.0,0.0,0.0,0.0,0.0,0.0,0.0,0.0,0.0,0.0,0.0,0.0,0.0,0.0,0.0,0.0,0.0,0.0,0.0,0.0,0.0,0.0,0.0,0.0,0.0,0.0,0.0,0.0,0.0,0.0,0.0,0.0,0.0,0.0,0.0,0.0,0.0,0.0,0.0,0.0,0.0,0.0,0.0,0.0,0.0,0.0,0.0,0.0,0.0,0.0,0.0,0.0,0.0,0.0,0.0,0.0,0.0,0.0,0.0,0.0,0.0,0.0,0.0,0.0,0.0,0.0,0.0,0.0,0.0,0.0,0.0,0.0,0.0,0.0,0.0,0.0,0.0,0.0,0.0,0.0,0.0,0.0,0.0,0.0,0.0,0.0,0.0,0.0,0.0,0.0,0.0,0.0,0.0,0.0,0.0,0.0,0.0,0.0,0.0,0.0,0.0,0.0,0.0,0.0,0.0,0.0,0.0,0.0,0.0,0.0,0.0,0.0,0.0,0.0,0.0,0.0,0.0,0.0,0.0,0.0,0.0,0.0,0.0,0.0,0.0,0.0,0.0,0.0,0.0,0.0,0.0,0.0,0.0,0.0,0.0,0.0,0.0,0.0,0.0,0.0,0.0,0.0,0.0,0.0,0.0,0.0,0.0,0.0,0.0,0.0,0.0,0.0,0.0,0.0,0.0,0.0,0.0,0.0,0.0,0.0,0.0,0.0,0.0,0.0,0.0,0.0,0.0,0.0,0.0,0.0,0.0,0.0,0.0,0.0,0.0,0.0,0.0,0.0,0.0,0.0,0.0,0.0,0.0,0.0,0.0,0.0,0.0,0.0,0.0,0.0,0.0,0.0,0.0,0.0,0.0,0.0,0.0,0.0,0.0,0.0,0.0,0.0,0.0,0.0,0.0,0.0,0.0,0.0,0.0,0.0,0.0,0.0,0.0,0.0,0.0,0.0,0.0,0.0,0.0,0.0,0.0,0.0,0.0,0.0,0.0,0.0,0.0,0.0,0.0,0.0,0.0,0.0,0.0,0.0,0.0,0.0,0.0,0.0,0.0,0.0,0.0,0.0,0.0,0.0,0.0,0.0,0.0,0.0,0.0,0.0,0.0,0.0,0.0,0.0,0.0,-2.6609,0.0,0.0,0.0,0.0,0.0,0.0,0.0,0.0,0.0,0.0,0.0,0.0,0.0,0.0,0.0,0.0,0.0,0.0,0.0,0.0,0.0,0.0,0.0,0.0,0.0,0.0,0.0,0.0,0.0,0.0,0.0,0.0,0.0,0.0,0.0,0.0,0.0,0.0,0.0,-1.9815,-2.1355,-2.3446,-2.2384,-2.1914,-2.1953,0.0,0.0,0.0,0.0,0.0,0.0,0.0,0.0,0.0,0.0,0.0,0.0,0.0,0.0,0.0,0.0,0.0,0.0,0.0,0.0,0.0,0.0,0.0,0.0,0.0,0.0,0.0,0.0,0.0,0.0,0.0,0.0,0.0,0.0,0.0,0.0,0.0,0.0,0.0,0.0,0.0,0.0,0.0,0.0,0.0,0.0,0.0,0.0,0.0,0.0,0.0,0.0,0.0,0.0,0.0,0.0,0.0,0.0,0.0,0.0,0.0,0.0,0.0,0.0,0.0,0.0,0.0,0.0,0.0,0.0,0.0,-2.7074,0.0,0.0,0.0,0.0,0.0,0.0,0.0,0.0,0.0,0.0,0.0,0.0,0.0,0.0,0.0,0.0,0.0,0.0,0.0,0.0,0.0,0.0,0.0,0.0,-1.992,-1.955,-1.9257,0.0,0.0,0.0,0.0,0.0,0.0,0.0,0.0,-1.8982,-1.9149,-1.9449,-2.093,-2.2755,-2.4849,-2.5299,-2.5153,-2.4465,-2.3194,0.0,0.0,0.0,0.0,0.0,0.0,0.0,0.0,0.0,0.0,0.0,0.0,0.0,0.0,0.0,0.0,0.0,0.0,0.0,0.0,0.0,0.0,0.0,0.0,0.0,0.0,0.0,0.0,0.0,0.0,0.0,0.0,0.0,0.0,0.0,0.0,0.0,0.0,0.0,0.0,0.0,0.0,0.0,0.0,0.0,0.0,0.0,0.0,0.0,0.0,0.0,0.0,0.0,0.0,0.0,0.0,0.0,0.0,0.0,0.0,0.0,0.0,0.0,-3.0563,-3.0852,-3.0863,-3.1075,-3.1867,-3.2978,-3.0791,-3.0718,-3.1785,0.0,0.0,0.0,0.0,0.0,0.0,0.0,0.0,0.0,0.0,0.0,0.0,0.0,0.0,0.0,0.0,0.0,0.0,0.0,0.0,0.0,0.0,-1.8759,-1.8902,-2.0309,-1.9041,-1.8457,0.0,0.0,0.0,0.0,0.0,0.0,-1.9065,-1.9034,-1.974,-2.1266,-2.5154,-2.7199,-2.7422,-2.7263,-2.7109,-2.6868,-2.5152,-2.362,-2.2338,0.0,0.0,0.0,0.0,0.0,0.0,0.0,0.0,0.0,0.0,0.0,0.0,0.0,0.0,0.0,0.0,0.0,0.0,0.0,0.0,0.0,0.0,0.0,0.0,0.0,0.0,0.0,0.0,0.0,0.0,0.0,0.0,0.0,0.0,0.0,0.0,0.0,0.0,0.0,0.0,0.0,-2.8536,-2.7833,0.0,0.0,0.0,0.0,0.0,0.0,0.0,0.0,0.0,0.0,0.0,0.0,0.0,-2.9101,-2.9336,-3.1599,-3.2393,-3.1784,-3.4827,-3.6274,-3.6298,-3.7063,-3.7442,-3.7444,-3.7046,0.0,-3.2968,-3.2115,0.0,0.0,0.0,0.0,0.0,0.0,0.0,0.0,0.0,0.0,0.0,0.0,0.0,0.0,0.0,0.0,0.0,0.0,0.0,0.0,0.0,-1.9885,-1.9922,-2.1222,-2.062,-2.0117,-1.9949,0.0,0.0,0.0,0.0,-1.913,-1.91,-2.0499,-2.2566,-2.5251,-2.7166,-2.8512,-2.9303,-2.9078,-2.894,-2.8821,-2.7905,-2.6059,-2.3585,-2.3658,0.0,0.0,0.0,0.0,0.0,0.0,0.0,0.0,0.0,0.0,0.0,0.0,0.0,0.0,0.0,0.0,0.0,0.0,0.0,0.0,0.0,0.0,0.0,0.0,0.0,0.0,0.0,0.0,0.0,0.0,0.0,0.0,0.0,0.0,0.0,0.0,0.0,0.0,0.0,-2.6625,-2.6997,-2.6676,-2.7067,-2.6784,0.0,0.0,0.0,0.0,0.0,0.0,0.0,0.0,0.0,-3.2344,-3.242,-3.3119,-3.4537,-3.5681,-3.6066,-3.5711,-3.7238,-3.7975,-3.7995,-3.8374,-3.8472,-3.835,-3.8287,-3.737,-3.5798,-3.3744,-3.1833,-3.0037,0.0,0.0,0.0,0.0,-2.8358,-2.846,0.0,0.0,0.0,0.0,0.0,0.0,0.0,0.0,0.0,0.0,0.0,0.0,-2.0943,-2.0748,-2.0987,-2.2115,-2.2008,-2.168,-2.1208,-2.0755,0.0,0.0,0.0,-2.0359,-2.0755,-2.3079,-2.5557,-2.8097,-2.8489,-2.9369,-3.0681,-3.049,-3.0456,-3.0509,-3.0222,-2.8256,-2.5215,-2.545,-2.4469,-2.2734,0.0,0.0,0.0,0.0,0.0,0.0,0.0,0.0,0.0,0.0,0.0,0.0,0.0,0.0,0.0,0.0,0.0,0.0,0.0,0.0,0.0,0.0,0.0,0.0,0.0,0.0,0.0,0.0,0.0,0.0,0.0,0.0,0.0,0.0,0.0,0.0,0.0,-2.6356,-2.6898,-2.652,-2.7628,-2.7489,0.0,0.0,0.0,0.0,0.0,0.0,-3.1735,-3.2012,-3.3221,-3.5593,-3.5669,-3.6579,-3.8475,-3.8491,-3.851,-3.853,-3.874,-3.8833,-3.8838,-3.9024,-3.909,-3.9015,-3.8927,-3.872,-3.8183,-3.5361,-3.3807,-3.3006,-3.1047,-3.0286,-3.0337,-3.0939,-3.1159,-3.156,0.0,0.0,0.0,0.0,0.0,0.0,0.0,0.0,0.0,0.0,0.0,-2.0158,-1.9417,-2.0084,-2.1243,-2.2896,-2.2285,-2.2148,-2.2922,-2.3641,-2.4066,-2.4149,-2.3283,-2.3587,-2.5245,-2.6967,-2.7931,-2.8097,-2.9564,-3.0675,-3.1443,-3.1298,-3.1504,-3.1975,-3.1388,-2.9612,-2.7071,-2.7003,-2.6066,-2.4417,-2.2558,0.0,0.0,0.0,0.0,0.0,0.0,0.0,0.0,0.0,0.0,0.0,0.0,0.0,0.0,0.0,0.0,0.0,0.0,0.0,0.0,0.0,0.0,0.0,0.0,0.0,0.0,0.0,0.0,0.0,0.0,0.0,0.0,0.0,0.0,0.0,0.0,0.0,0.0,-2.9302,-3.1275,0.0,0.0,0.0,0.0,-3.052,-3.1422,-3.2714,-3.4413,-3.5286,-3.6526,-3.8241,-3.8315,-3.8374,-3.8498,-3.8506,-3.8534,-3.8609,-3.9369,-3.9735,-3.9763,-4.0455,-4.0729,-4.0674,-4.0532,-4.0009,-3.9157,-3.8093,-3.6223,-3.4012,-3.3829,-3.2292,-3.0505,-3.2917,-3.3796,-3.4273,0.0,0.0,0.0,0.0,0.0,0.0,0.0,0.0,0.0,-1.8945,-1.9387,-2.037,-2.2289,-2.2316,-2.3129,-2.5408,-2.5291,-2.5234,-2.5585,-2.5844,-2.5226,-2.3566,-2.4209,-2.5413,-2.7175,-2.7791,-2.8899,-3.0543,-3.11,-3.1716,-3.2391,-3.222,-3.2197,-3.2278,-3.194,-3.1243,-3.0302,-2.9286,-2.7859,-2.6251,-2.56,-2.4004,0.0,0.0,0.0,0.0,0.0,0.0,0.0,0.0,0.0,0.0,0.0,0.0,0.0,0.0,0.0,0.0,0.0,0.0,0.0,0.0,0.0,0.0,0.0,0.0,0.0,0.0,0.0,0.0,0.0,0.0,0.0,0.0,0.0,0.0,0.0,0.0,0.0,-3.0346,-3.2396,0.0,-3.1622,-3.2999,-3.4003,-3.4029,-3.539,-3.6498,-3.7106,-3.7435,-3.8135,-3.9298,-3.9334,-3.9607,-4.0176,-4.0164,-4.0184,-4.0212,-4.0496,-4.0647,-4.0647,-4.0851,-4.0894,-4.0791,-4.0711,-4.0428,-4.0046,-3.9711,-3.8681,-3.7329,-3.728,-3.7056,-3.6814,-3.7731,-3.8056,-3.8228,0.0,0.0,0.0,0.0,0.0,0.0,0.0,0.0,-1.8246,-1.9405,-1.9869,-2.1055,-2.361,-2.4196,-2.5091,-2.6856,-2.746,-2.777,-2.784,-2.7507,-2.6525,-2.4802,-2.5782,-2.6916,-2.8047,-2.893,-3.0189,-3.1863,-3.2126,-3.2604,-3.3294,-3.3135,-3.3105,-3.3221,-3.2789,-3.2579,-3.2443,-3.113,-2.9907,-2.8838,-2.8273,-2.6664,-2.4522,0.0,0.0,0.0,0.0,0.0,0.0,0.0,0.0,0.0,0.0,0.0,0.0,0.0,0.0,0.0,0.0,0.0,0.0,0.0,0.0,0.0,0.0,0.0,0.0,0.0,0.0,0.0,0.0,0.0,0.0,0.0,0.0,0.0,0.0,0.0,-3.2919,-3.1217,-3.3789,-3.5058,-3.3372,-3.5343,-3.6741,-3.6776,-3.8118,-3.8935,-3.8935,-3.9213,-3.9642,-4.0212,-4.0246,-4.052,-4.1085,-4.11,-4.11,-4.11,-4.11,-4.1091,-4.105,-4.0953,-4.0849,-4.0765,-4.0675,-4.0579,-4.0489,-4.0499,-4.0104,-3.9553,-3.9501,-3.9831,-4.031,-4.031,-4.031,-4.0291,0.0,0.0,0.0,0.0,0.0,0.0,0.0,-1.7364,-1.7939,-1.8018,-2.0205,-2.2135,-2.3118,-2.5418,-2.6955,-2.7062,-2.8493,-2.9419,-2.9455,-2.8612,-2.8102,-2.8102,-2.8109,-2.8094,-2.8131,-3.0606,-3.1893,-3.1894,-3.2617,-3.3404,-3.4186,-3.4078,-3.4363,-3.4965,-3.4074,-3.3639,-3.3456,-3.2611,-3.2275,-3.2144,-3.032,-2.9664,-2.9435,0.0,0.0,0.0,0.0,0.0,0.0,0.0,0.0,0.0,0.0,0.0,0.0,0.0,0.0,0.0,0.0,0.0,0.0,0.0,0.0,0.0,0.0,0.0,0.0,0.0,0.0,0.0,0.0,0.0,0.0,0.0,0.0,0.0,-3.0965,-3.288,-3.3866,-3.2203,-3.5742,-3.7693,-3.6079,-3.7537,-3.8572,-3.8573,-3.9364,-3.9833,-3.9833,-4.0638,-4.1115,-4.1135,-4.1135,-4.1154,-4.1174,-4.1183,-4.1172,-4.1172,-4.1187,-4.1145,-4.1064,-4.0869,-4.0769,-4.0764,-4.0623,-4.0572,-4.0585,-4.0575,-4.0545,-4.0456,-4.0344,-4.029,-4.031,-4.031,-4.031,-4.0291,0.0,0.0,0.0,0.0,0.0,0.0,0.0,-1.8088,-1.854,-2.0464,-2.0802,-2.2133,-2.5485,-2.647,-2.7425,-2.8695,-2.9218,-2.9209,-2.8606,-2.8273,-2.8078,-2.8031,-2.8031,-2.8874,-3.0714,-3.1449,-3.2445,-3.3692,-3.4522,-3.533,-3.6149,-3.6443,-3.6682,-3.6841,-3.6362,-3.6114,-3.6066,-3.5822,-3.539,-3.468,-3.2388,-3.0734,-2.957,0.0,0.0,0.0,0.0,0.0,0.0,0.0,0.0,0.0,0.0,0.0,0.0,0.0,0.0,0.0,0.0,0.0,0.0,0.0,0.0,0.0,0.0,0.0,0.0,0.0,0.0,0.0,0.0,0.0,0.0,0.0,0.0,-3.3896,-3.3421,-3.5007,-3.6284,-3.6488,-3.8133,-3.9104,-3.8743,-3.968,-4.0331,-4.0384,-4.0617,-4.0738,-4.074,-4.0974,-4.1393,-4.2026,-4.2037,-4.2349,-4.2982,-4.2997,-4.2997,-4.2978,-4.289,-4.2836,-4.2805,-4.2499,-4.2367,-4.2356,-4.2268,-4.2235,-4.2234,-4.2288,-4.2253,-4.2029,-4.0766,-4.029,-4.031,-4.031,-4.0234,-4.0157,0.0,0.0,0.0,0.0,0.0,0.0,0.0,-1.8063,-1.8372,-2.1361,-2.1329,-2.2535,-2.647,-2.7556,-2.84,-2.9407,-2.914,-2.8567,-2.7714,-2.6932,-2.6967,-2.7997,-2.8349,-2.9571,-3.1758,-3.2512,-3.3557,-3.493,-3.5781,-3.6632,-3.7452,-3.7647,-3.7682,-3.758,-3.7351,-3.7175,-3.7099,-3.7099,-3.6817,-3.6273,-3.483,-3.3233,-3.1654,-3.1017,-3.0133,-2.9157,-2.8481,-2.7545,-2.665,-2.6651,0.0,0.0,0.0,0.0,0.0,0.0,0.0,0.0,0.0,0.0,0.0,0.0,0.0,0.0,0.0,0.0,0.0,0.0,0.0,0.0,0.0,0.0,0.0,0.0,-3.4496,-3.6187,-3.6566,-3.7417,-3.8199,-3.8791,-3.9635,-4.0217,-4.0303,-4.0756,-4.1051,-4.1106,-4.1432,-4.1651,-4.1632,-4.1964,-4.2378,-4.2895,-4.29,-4.3148,-4.3646,-4.3665,-4.366,-4.3655,-4.3491,-4.3403,-4.3363,-4.3086,-4.2934,0.0,-4.2833,-4.2814,-4.2832,-4.2851,-4.2833,0.0,0.0,0.0,0.0,0.0,-4.1163,-4.1081,0.0,0.0,0.0,0.0,0.0,0.0,0.0,-1.7767,-1.7975,-2.1409,-2.1818,-2.3143,-2.666,-2.8506,-2.9464,-2.9355,-2.8594,-2.7728,-2.6807,-2.5482,-2.5783,-2.8138,-2.9113,-3.038,-3.2048,-3.3702,-3.4979,-3.5839,-3.6748,-3.7599,-3.8353,-3.8246,-3.8101,-3.7921,-3.7756,-3.7591,-3.7408,-3.7385,-3.7324,-3.723,-3.723,-3.628,-3.4666,-3.3118,-3.2518,-3.2276,-3.0657,-2.9962,-2.9813,-2.9791,0.0,0.0,0.0,0.0,0.0,0.0,0.0,0.0,0.0,0.0,0.0,0.0,0.0,0.0,0.0,0.0,0.0,0.0,0.0,0.0,0.0,0.0,0.0,0.0,-3.6392,-3.8829,-3.9727,-3.9746,-3.9685,-3.9758,-4.0489,-4.1056,-4.1146,-4.1205,-4.1277,-4.1382,-4.2105,-4.2538,-4.2538,0.0,0.0,0.0,0.0,-4.3806,-4.3903,-4.3896,-4.389,-4.3897,-4.3674,-4.3544,-4.3471,-4.3253,-4.3081,-4.2964,-4.2964,-4.2966,-4.2967,-4.2986,-4.2986,-4.2947,-4.2812,-4.2692,-4.2566,-4.25,-4.2477,-4.2454,0.0,0.0,0.0,0.0,0.0,0.0,0.0,-1.8634,-1.8822,-2.2372,-2.2224,-2.3369,-2.7493,-2.8885,-2.9215,-2.8513,-2.8293,-2.7518,-2.5954,-2.6801,-2.79,-2.9096,-3.0637,-3.2244,-3.3868,-3.4923,-3.5843,-3.6671,-3.8218,-3.9069,-3.9262,-3.9755,-3.9973,-3.9922,-3.9565,-3.9399,-3.9353,-3.9185,-3.8694,-3.8075,-3.8075,-3.7099,-3.5638,-3.5284,-3.4779,-3.4179,-3.3879,-3.2861,-3.1674,-3.1633,-3.058,-2.925,-2.8773,-2.8623,0.0,0.0,0.0,0.0,0.0,0.0,0.0,0.0,0.0,0.0,0.0,0.0,0.0,0.0,0.0,0.0,0.0,0.0,0.0,-3.6182,-3.8059,-3.9691,-4.0626,-4.0738,-4.0729,-4.0808,-4.0974,-4.1363,-4.2065,-4.213,-4.2422,-4.3072,-4.3329,-4.3412,-4.3362,-4.3568,0.0,-4.4719,-4.4685,-4.5016,-4.5767,-4.5727,-4.5696,-4.569,0.0,0.0,-4.5206,-4.4844,-4.4655,-4.463,-4.463,-4.4652,-4.4636,-4.476,-4.4739,-4.45,-4.3102,-4.25,-4.2431,-4.2295,-4.2246,-4.2246,0.0,0.0,0.0,0.0,0.0,0.0,0.0,-1.9181,-1.9347,-2.2011,-2.2021,-2.2944,-2.5964,-2.7089,-2.741,-2.6949,-2.6504,-2.609,-2.5676,-2.6812,-2.8462,-3.0614,-3.1955,-3.3223,-3.4408,-3.5717,-3.6784,-3.7589,-3.8905,-3.9766,-4.0161,-4.0488,-4.0598,-4.0489,-4.0286,-4.0158,-4.004,-3.9937,-3.9646,-3.9248,-3.9135,-3.8354,-3.7147,-3.6227,-3.566,-3.5246,-3.4837,-3.412,-3.3362,-3.332,-3.2713,-3.1787,-3.0878,-3.0597,-3.0158,0.0,0.0,0.0,0.0,0.0,0.0,0.0,0.0,0.0,0.0,0.0,0.0,0.0,0.0,-3.2578,0.0,0.0,-3.679,-3.8133,-3.9487,-4.0535,-4.1032,-4.1442,-4.1704,-4.1691,-4.1694,-4.2061,-4.2959,-4.3046,-4.3212,-4.361,-4.4055,-4.43,-4.43,-4.4753,-4.5206,-4.564,-4.5592,-4.5777,-4.6254,-4.6222,-4.6391,-4.6789,-4.5984,-4.5831,-4.6205,-4.5371,-4.4991,-4.4991,-4.4991,-4.4991,-4.501,-4.5061,-4.5033,-4.4862,-4.3937,-4.3591,-4.3591,-4.3441,-4.3389,-4.3389,0.0,0.0,0.0,0.0,0.0,0.0,0.0,0.0,-1.9625,-2.1384,-2.172,-2.2465,-2.4218,-2.5173,-2.5545,-2.5148,-2.4774,-2.4882,-2.5644,-2.6911,-2.9021,-3.2129,-3.2947,-3.3764,-3.4719,-3.6448,-3.7653,-3.8305,-3.9335,-4.0178,-4.0828,-4.082,-4.0713,-4.0564,-4.0519,-4.0425,-4.0251,-4.0214,-4.0196,-4.0196,-4.002,-3.9445,-3.8496,-3.6852,-3.6123,-3.5832,-3.5011,-3.467,-3.4607,-3.4588,-3.4524,-3.4188,-3.2879,-3.22,-3.1383,-2.8701,-2.8639,0.0,0.0,0.0,0.0,0.0,0.0,0.0,0.0,0.0,-2.9931,-3.162,-3.3225,-3.4731,-3.611,-3.7174,-3.826,-3.967,-4.0565,-4.1177,-4.1401,-4.1988,-4.2506,-4.2797,-4.2674,-4.2939,-4.3835,-4.3942,-4.4016,-4.4178,-4.4807,-4.5206,-4.525,-4.5917,-4.6386,-4.6542,-4.6489,-4.6532,-4.6703,-4.669,-4.7003,-4.7641,-4.6506,-4.6352,-4.7009,-4.5891,-4.5388,-4.5388,-4.5388,-4.5388,-4.5388,-4.5388,-4.5338,-4.5306,-4.5236,-4.5236,-4.5224,-4.4745,-4.4578,-4.4578,0.0,0.0,0.0,0.0,0.0,0.0,0.0,0.0,0.0,-2.1459,-2.1761,-2.2465,-2.4218,-2.518,-2.507,-2.3522,-2.4656,-2.5519,-2.5696,-2.8571,-3.1137,-3.3081,-3.3307,-3.4094,-3.5616,-3.7362,-3.8268,-3.8305,-3.9947,-4.0801,-4.0898,-4.0834,-4.0781,-4.0754,-4.0593,-4.0489,-4.0457,-4.0286,-4.0196,-4.0196,-4.0177,-3.9641,-3.8776,-3.784,-3.6918,-3.5987,-3.5354,-3.5086,-3.5016,-3.4959,-3.4906,-3.4794,-3.4623,-3.3507,-3.1918,-3.027,-2.8836,-2.7426,-2.5823,-2.6246,-2.7441,-2.8733,-2.9573,-3.1039,0.0,0.0,-3.5162,-3.6883,-3.7968,-3.87,-3.9007,-3.9792,-4.0501,-4.0868,-4.1035,-4.1364,-4.216,-4.2342,-4.2968,-4.4504,-4.4017,-4.3863,-4.4682,-4.4831,-4.5152,-4.5877,-4.6065,-4.6156,-4.6147,-4.6253,-4.6651,-4.7428,-4.7401,-4.7723,-4.8504,-4.8451,-4.8463,-4.8552,-4.7994,-4.7778,-4.7856,-4.7357,-4.7119,-4.7125,-4.7125,-4.7125,-4.7125,-4.7138,-4.7112,-4.7087,-4.7053,-4.7008,-4.6811,-4.5124,-4.4515,-4.4515,0.0,0.0,0.0,0.0,0.0,0.0,0.0,0.0,0.0,0.0,-2.0892,-2.1235,-2.2037,-2.2465,-2.2377,-2.1656,-2.4043,-2.5622,-2.5703,-2.8864,-3.1313,-3.2549,-3.3117,-3.3935,-3.5081,-3.68,-3.7689,-3.7656,-3.8871,-3.9701,-4.0207,-4.0141,-4.0363,-4.0848,-4.0773,-4.0738,-4.0732,-4.0629,-4.0582,-4.0496,-3.9923,-3.9469,-3.8988,-3.7618,-3.6204,-3.4821,-3.3995,-3.3658,0.0,-3.3579,-3.3527,-3.3494,-3.346,-3.2609,-3.1257,-2.9254,-2.8485,-2.8536,-2.9514,-2.9693,0.0,0.0,-3.2767,-3.3865,-3.565,-3.617,-3.6735,-3.851,-3.9532,-4.0144,-4.0243,-4.0621,-4.0956,0.0,-4.1524,-4.1972,-4.2343,-4.3262,-4.4176,-4.4914,-4.5132,-4.5355,-4.5687,-4.5699,-4.585,-4.6221,-4.6288,-4.6292,-4.6292,-4.6784,-4.7217,-4.7588,-4.8033,-4.8406,-4.8743,-4.8716,-4.8876,-4.92,-4.8398,-4.8203,-4.8566,-4.7753,-4.7403,-4.7397,-4.7397,-4.7397,-4.7403,-4.7397,-4.7397,-4.7397,-4.7345,-4.7299,-4.7197,-4.6382,-4.6064,-4.6082,0.0,0.0,0.0,0.0,0.0,0.0,0.0,0.0,0.0,0.0,0.0,-2.0357,-2.0495,-2.0506,-2.05,-2.05,-2.3194,-2.5135,-2.5679,-2.8454,-3.0687,-3.2036,-3.2937,-3.3774,-3.4579,-3.6314,-3.7205,-3.7208,-3.802,-3.8758,-3.9365,-3.9293,-3.9606,-4.0218,-4.0179,-4.0179,-4.017,-4.017,-4.014,-4.0042,-3.9325,-3.8883,-3.8496,-3.6764,-3.5168,-3.3751,-3.2756,-3.2096,-3.1621,-3.1345,-3.1412,-3.1546,-3.125,-3.0758,-2.9926,-2.7941,-2.7792,-2.8814,-3.1205,0.0,0.0,-3.4141,-3.5572,-3.6573,-3.6633,-3.7276,-3.8207,-3.9482,-4.0268,-4.0731,-4.0835,-4.0955,-4.1057,-4.1129,-4.1835,-4.248,-4.2715,-4.4043,-4.5096,-4.5327,-4.5925,-4.63,-4.6295,-4.6257,-4.6245,-4.6296,-4.6526,-4.6663,-4.6651,-4.7471,-4.8037,-4.8291,-4.8849,-4.924,-4.9445,-4.9403,-4.9575,-4.995,-4.9095,-4.8914,-4.9302,-4.8465,-4.8105,-4.809,-4.809,-4.8071,-4.8079,-4.8079,-4.8079,-4.8079,-4.8053,-4.8007,-4.8007,-4.7945,-4.7634,-4.7183,0.0,0.0,0.0,0.0,0.0,0.0,0.0,0.0,0.0,0.0,0.0,0.0,0.0,-2.0492,-2.049,-2.0506,-2.2141,-2.3886,-2.5586,-2.7323,-2.9411,-3.1989,-3.2928,-3.3779,-3.4585,-3.6306,-3.7206,-3.719,-3.8066,-3.8501,-3.8533,-3.8478,-3.8455,-3.8478,-3.8419,-3.8373,-3.8373,-3.8373,-3.8373,-3.8373,-3.8346,-3.7859,-3.6981,-3.5238,-3.4054,-3.3196,-3.2266,-3.079,-2.9178,-2.8394,-2.8657,-2.9147,-2.8308,-2.8058,-2.7913,-2.6998,-2.6745,-2.7138,-2.8772,-3.1045,-3.3369,-3.5046,-3.7338,-3.921,-3.9262,-3.9904,-4.0506,-4.0648,-4.0684,-4.0761,-4.0952,-4.1054,-4.1112,-4.1183,-4.1875,-4.2695,-4.3535,-4.4433,-4.5311,-4.6167,-4.6284,-4.6299,0.0,-4.63,-4.6296,-4.6308,-4.7073,-4.7569,-4.7569,-4.833,-4.915,-5.0008,-5.0045,-5.0477,-5.1316,-5.1178,-5.1042,-5.0868,-5.0561,-5.0337,-5.0168,-4.9917,-4.9803,-4.9803,-4.9803,-4.9803,-4.9803,-4.9803,-4.9803,-4.9803,-4.9803,-4.9803,-4.9803,-4.9822,-4.8718,-4.7202,0.0,0.0,0.0,0.0,0.0,0.0,0.0,0.0,0.0,0.0,0.0,0.0,0.0,0.0,0.0,0.0,-2.2081,-2.3347,-2.3935,-2.663,-2.859,-2.9469,-3.2012,-3.3532,-3.38,-3.5515,-3.6381,-3.6338,-3.6631,-3.7058,-3.7571,-3.7583,-3.7895,-3.8408,-3.8427,-3.842,-3.8366,-3.8366,-3.8369,-3.8324,-3.775,-3.6653,-3.5247,-3.412,-3.2105,-2.9656,0.0,-2.7636,-2.7478,-2.6629,-2.6513,-2.6695,-2.6401,-2.6323,-2.6273,-2.5998,-2.6683,-2.818,-3.0942,-3.3604,-3.597,-3.761,-3.9105,-4.0183,-4.0235,-4.0447,-4.0626,-4.0746,-3.987,-3.9134,-3.9256,-3.9333,-3.9393,-3.9468,-4.1601,-4.3359,-4.3652,-4.4957,-4.5963,-4.6276,-4.6303,0.0,0.0,0.0,0.0,-4.7112,-4.7428,-4.7822,-4.8369,-4.9208,-4.9805,-5.0084,-5.0659,-5.1064,-5.1276,-5.123,-5.1097,-5.0894,-5.0485,-5.0283,-5.019,-4.999,-4.9898,-4.9898,-4.9898,-4.9898,-4.9898,-4.9898,-4.9898,-4.9898,-4.9898,-4.9898,-4.9898,-4.9898,-4.9511,-4.8991,0.0,0.0,0.0,0.0,0.0,0.0,0.0,0.0,0.0,0.0,0.0,0.0,0.0,0.0,0.0,0.0,0.0,-2.2386,-2.2984,-2.5125,-2.6788,-2.7702,-3.0208,-3.1718,-3.1991,-3.3417,-3.4113,-3.4082,-3.4679,-3.5237,-3.5749,-3.643,-3.7007,-3.7513,-3.7546,-3.7546,-3.7474,-3.6832,-3.6584,-3.6464,-3.5286,-3.4144,-3.3014,-3.1887,-3.0059,0.0,-2.58,-2.5413,-2.5653,-2.4159,-2.3883,-2.4135,-2.4141,-2.4781,-2.5718,-2.6633,-2.8089,-3.0114,-3.3442,-3.5809,-3.7732,-3.9359,-4.0198,-4.0617,-4.072,-4.0668,-4.0668,-4.0778,-3.9489,-3.8252,-3.7987,-3.8252,-3.8246,-3.7342,-4.0109,-4.2436,-4.2733,-4.3995,-4.5255,-4.6198,-4.6306,-4.6296,0.0,0.0,0.0,-4.7569,-4.7861,-4.8388,-4.9228,-5.0098,-5.0552,-5.0555,-5.1057,-5.1292,-5.1211,-5.121,-5.1049,-5.0758,-5.0371,-5.0157,-5.0096,-4.9955,-4.9898,-4.9898,-4.9898,-4.9898,-4.9898,-4.9898,-4.9898,-4.9898,-4.9898,-4.9898,-4.9898,-4.9898,-4.9898,-4.9898,0.0,0.0,0.0,0.0,0.0,0.0,0.0,0.0,0.0,0.0,0.0,0.0,0.0,0.0,0.0,0.0,0.0,0.0,-2.2656,-2.296,-2.4164,-2.6597,-2.7725,-2.8654,-2.9414,-3.0332,-3.08,-3.0801,-3.2381,-3.3165,-3.3204,-3.4859,-3.5632,-3.5639,-3.5639,-3.5639,-3.5541,-3.3861,-3.3161,-3.3025,-3.1372,-3.0646,-3.0393,-2.8727,-2.8046,-2.7651,-2.5182,-2.4266,-2.3823,-2.1352,-2.1146,-2.194,-2.2107,-2.3851,-2.6307,-2.8922,-3.0815,-3.2792,-3.6014,-3.7539,-3.8621,-4.0216,-4.0612,-4.0651,-4.0778,-4.0765,-4.0694,-4.0694,-3.9354,-3.7931,0.0,0.0,-3.7595,-3.5092,-3.7698,-4.0309,-4.1121,-4.1984,-4.3466,0.0,0.0,0.0,0.0,0.0,0.0,-4.7725,0.0,-4.9247,-5.0122,-5.0962,-5.1394,-5.1388,-5.1276,-5.1211,-5.1201,-5.1186,-5.0978,-5.0516,-5.031,-5.0106,-4.9906,-4.9906,-4.9898,-4.9898,-4.9898,-4.9898,-4.9898,-4.9898,-4.9898,-4.9898,-4.9898,-4.9898,-4.9898,-4.9898,-4.9898,-4.9898,0.0,0.0,0.0,0.0,0.0,0.0,0.0,0.0,0.0,0.0,0.0,0.0,0.0,0.0,0.0,0.0,0.0,0.0,-2.086,-2.2233,-2.331,-2.3961,-2.6763,-2.8391,-2.8594,-3.0045,-3.0798,-3.0798,-3.1224,-3.1431,-3.1445,-3.1886,-3.2101,-3.2108,-3.2108,-3.2108,-3.2069,-3.162,-3.1441,-3.1395,-3.0955,-3.0005,-2.8787,-2.834,-2.7375,-2.6067,-2.4767,-2.429,-2.4073,-2.2771,-2.3353,-2.5053,-2.7666,-2.8495,-2.9129,-3.2338,-3.4003,-3.5262,-3.7348,-3.898,-4.0217,-4.063,-4.0746,-4.0765,-4.0868,-4.0868,-4.0507,-3.9277,-3.7179,-3.5109,0.0,0.0,0.0,-3.4801,-3.8671,0.0,-4.292,-4.3796,0.0,-4.6147,0.0,-4.7276,-4.7276,-4.8017,0.0,0.0,-4.9657,-5.0156,-5.1015,-5.1283,-5.1349,-5.1248,-5.122,-5.121,-5.1206,-5.1214,-5.105,-5.0793,-5.0548,-5.0323,-5.013,-4.9967,-4.9898,-4.9898,-4.9898,-4.9898,-4.9898,-4.9898,-4.9898,-4.9898,-4.9898,-4.9898,-4.9898,-4.9898,-4.9898,-4.9898,0.0,0.0,0.0,0.0,0.0,0.0,0.0,0.0,0.0,0.0,0.0,0.0,0.0,0.0,0.0,0.0,0.0,0.0,0.0,-2.1229,-2.2037,-2.2406,-2.4736,-2.6205,-2.6576,-2.7889,-2.8564,-2.8553,-2.9297,-2.9664,-2.9674,-3.0443,-3.0791,-3.0796,-3.0796,-3.0796,-3.0757,-2.9988,-2.967,0.0,0.0,-2.7979,-2.7106,-2.7095,-2.6476,-2.5551,-2.5088,-2.5343,-2.5976,0.0,0.0,-2.7672,-3.0058,-3.0998,-3.181,-3.4854,0.0,-3.7345,-3.9021,-4.0164,-4.09,-4.09,-4.0868,-4.0551,-3.9475,-3.9508,-3.9081,-3.6616,-3.471,0.0,-3.1282,-3.3014,0.0,0.0,0.0,0.0,-4.2399,-4.299,-4.4045,0.0,-4.7061,0.0,-4.7608,-4.8662,-4.9579,0.0,-5.0106,-5.0484,-5.1355,-5.1362,-5.1308,-5.1191,-5.121,-5.1197,-5.1202,-5.1202,-5.1042,-5.0713,-5.0567,-5.0347,-5.0057,-4.9959,-4.9898,-4.9898,0.0,-4.9898,-4.9898,-4.9898,-4.9898,-4.9898,-4.9898,-4.9898,-4.9871,-4.9898,-4.9898,-4.9843,0.0,0.0,0.0,0.0,0.0,0.0,0.0,0.0,0.0,0.0,0.0,0.0,0.0,0.0,0.0,0.0,0.0,0.0,0.0,0.0,-2.0735,-2.1487,-2.2441,-2.3339,-2.4202,-2.508,-2.559,-2.5707,-2.7167,-2.7871,-2.7909,-2.9423,-3.0116,-3.0116,-3.0116,-3.0116,-3.0018,-2.8499,-2.7865,-2.7732,-2.6293,-2.5691,-2.5698,0.0,-2.5656,-2.5618,-2.5671,-2.6629,0.0,0.0,-3.0416,-3.0121,-3.1422,-3.2865,-3.4579,-3.7006,-3.8257,-3.9154,-4.0624,-4.1009,-4.1006,-4.1006,-4.0967,-4.0281,-3.7841,-3.775,-3.7191,-3.3779,0.0,-3.1172,-2.9475,-3.1723,-3.326,-3.1439,0.0,-3.8998,-4.1142,-4.1443,-4.2646,-4.5909,-4.7159,-4.7764,-4.7764,-4.9286,-5.0278,-5.0278,-5.0278,-5.0596,-5.1349,-5.1316,-5.1256,-5.1201,-5.1206,-5.1202,-5.1202,-5.1202,-5.0961,-5.0491,-5.0491,-5.0301,-4.9898,-4.9898,-4.9898,-4.9898,0.0,0.0,-4.9898,-4.9898,-4.9879,-4.9898,-4.9898,-4.9843,-4.9807,-4.9871,-4.9843,-4.9778,0.0,0.0,0.0,0.0,0.0,0.0,0.0,0.0,0.0,0.0,-2.0004,-1.9996,0.0,0.0,0.0,0.0,0.0,0.0,0.0,0.0,0.0,-2.0623,-2.1584,-2.2483,-2.332,-2.4181,-2.4983,-2.5707,-2.5986,-2.6124,-2.6143,-2.6439,-2.6577,-2.6577,-2.6577,-2.6577,-2.6557,-2.6265,-2.6132,-2.6113,-2.5816,-2.5697,-2.5699,-2.5702,0.0,0.0,-2.5704,0.0,-2.7477,-3.0029,-3.1621,-3.3091,-3.6244,-3.7459,-3.8064,-3.994,-4.0566,-4.0703,-4.1008,-4.1037,-4.0991,-4.0991,-4.0991,-4.0493,-3.867,-3.7822,0.0,0.0,-3.1113,-2.9486,-2.7754,-2.8528,-3.0193,-3.2554,0.0,0.0,0.0,0.0,-4.4008,0.0,0.0,0.0,0.0,0.0,0.0,0.0,0.0,-5.1213,-5.1316,-5.1245,-5.1211,-5.1194,-5.1202,-5.1202,-5.1202,-5.1202,-5.0961,-5.0491,-5.0491,-5.0301,-4.9898,-4.9898,-4.9898,-4.9898,-4.9898,0.0,-4.9898,-4.9898,-4.9871,-4.9835,-4.9825,-4.9797,-4.9721,-4.9807,-4.9807,-4.9807,0.0,0.0,0.0,0.0,0.0,0.0,0.0,-1.9996,-2.0007,-2.0048,-2.0038,-2.0048,-2.0049,-2.0079,-2.0125,0.0,0.0,0.0,0.0,0.0,0.0,0.0,0.0,0.0,-2.2425,-2.3727,0.0,0.0,0.0,-2.5707,-2.5707,0.0,-2.5707,-2.5707,-2.5707,-2.5707,-2.5707,-2.5707,-2.5691,-2.5694,-2.5698,-2.5699,-2.57,0.0,0.0,0.0,0.0,0.0,-2.7731,-2.9096,-3.1172,-3.3819,-3.7468,-3.8594,-3.8945,-4.0684,-4.1172,-4.1152,-4.1152,-4.1126,-4.1108,-4.1108,-4.1108,-4.0301,-3.7219,0.0,0.0,0.0,-2.8827,-2.785,-2.6568,-2.7747,0.0,-3.0559,-3.4079,0.0,0.0,0.0,0.0,0.0,0.0,0.0,0.0,0.0,0.0,0.0,0.0,-5.1316,-5.1256,-5.123,-5.1197,-5.1202,-5.1202,-5.1202,-5.1202,-5.1102,-5.0867,-5.051,-5.0389,-5.0183,-4.9898,-4.9898,-4.9898,-4.9898,-4.9898,0.0,-4.9898,-4.9898,-4.9871,-4.9807,-4.9835,-4.9778,-4.9721,-4.9816,-4.9816,-4.9759,0.0,0.0,0.0,0.0,0.0,0.0,0.0,-2.0009,-2.0048,-2.0088,-2.0108,-2.0117,-2.0127,-2.0182,-2.0203,0.0,0.0,0.0,0.0,0.0,0.0,0.0,0.0,0.0,0.0,0.0,0.0,0.0,0.0,0.0,0.0,0.0,0.0,0.0,0.0,-2.5709,-2.5691,-2.5691,-2.5694,0.0,0.0,-2.5703,0.0,0.0,0.0,0.0,0.0,0.0,0.0,0.0,-2.988,-3.2498,-3.6098,-3.7598,-3.8398,-4.0137,-4.0644,-4.0723,-4.1094,-4.1191,-4.1191,-4.1191,-4.1191,-4.0117,-3.5937,-3.4687,0.0,-2.8261,-2.6972,-2.6505,-2.5823,-2.7189,-2.8437,0.0,-3.2389,-3.6122,-3.8272,-4.1055,-4.3645,0.0,0.0,0.0,0.0,0.0,0.0,0.0,0.0,0.0,-5.1191,-5.1197,-5.1202,-5.1202,-5.1202,-5.1202,-5.1202,-5.1015,-5.0767,-5.051,-5.0303,-5.0087,-4.9898,-4.9898,-4.9898,-4.9898,-4.9898,0.0,0.0,-4.9898,-4.9871,-4.9807,-4.9843,-4.9807,-4.9692,-4.9816,-4.9816,-4.975,0.0,0.0,0.0,0.0,0.0,0.0,0.0,-2.0049,-2.0088,-2.0108,-2.0153,-2.0188,-2.0195,-2.0205,-2.0219,0.0,0.0,0.0,0.0,0.0,0.0,0.0,0.0,0.0,0.0,0.0,0.0,0.0,0.0,0.0,0.0,0.0,0.0,0.0,0.0,0.0,0.0,-2.5699,0.0,0.0,0.0,0.0,0.0,0.0,0.0,0.0,0.0,0.0,0.0,0.0,0.0,-2.8175,-3.1698,-3.4375,-3.6582,-3.832,0.0,0.0,-4.0762,-4.1191,-4.1191,-4.1191,-4.1191,-4.0273,-3.6699,0.0,-3.2499,-2.8915,-2.6917,-2.5792,-2.571,-2.5242,-2.5857,-2.8902,-2.924,-3.1318,-3.7627,-3.9462,-4.1394,-4.4719,0.0,0.0,0.0,0.0,0.0,0.0,0.0,0.0,-5.1194,-5.1202,-5.1202,-5.1202,-5.1202,-5.1202,-5.1202,-5.1015,-5.0767,-5.051,-5.0289,-5.0078,-4.9898,-4.9898,-4.9898,-4.9898,-4.9898,0.0,0.0,-4.9898,-4.9871,-4.9807,-4.9807,-4.9721,-4.9623,-4.9692,-4.9721,-4.9692,0.0,0.0,0.0,0.0,0.0,0.0,-2.0001,-2.0011,-2.0069,-2.0152,-2.0169,-2.0214,-2.0262,-2.0265,-2.0292,-2.0355,0.0,0.0,0.0,0.0,0.0,0.0,0.0,0.0,0.0,0.0,0.0,-2.3618,0.0,0.0,0.0,0.0,0.0,0.0,0.0,0.0,0.0,0.0,0.0,0.0,0.0,0.0,0.0,0.0,0.0,0.0,0.0,0.0,0.0,0.0,0.0,0.0,-2.8177,-3.0059,0.0,0.0,-3.8184,-3.8984,-4.0723,-4.1191,-4.1191,-4.1191,-4.041,-3.8867,-3.5898,0.0,-3.1054,-2.8118,-2.6544,-2.5707,-2.5703,-2.543,-2.5453,-2.6298,-2.7888,0.0,-3.27,-3.696,-4.0519,0.0,0.0,0.0,0.0,0.0,0.0,0.0,0.0,0.0,-5.1202,-5.1202,-5.1202,-5.1202,-5.1202,-5.1146,-5.1029,-5.0784,-5.0529,-5.0323,-5.0116,-4.9981,-4.9898,-4.9898,-4.9898,-4.9898,-4.9898,0.0,0.0,-4.9898,-4.9871,-4.9807,-4.9807,-4.975,-4.9663,-4.9692,-4.9692,-4.9692,0.0,0.0,0.0,0.0,0.0,-2.0059,-2.003,-2.0041,-2.0097,-2.0195,-2.0205,-2.0233,-2.0289,-2.0296,-2.0321,-2.0391,-2.04,0.0,0.0,0.0,0.0,0.0,0.0,0.0,0.0,0.0,-2.2172,-2.276,-2.3851,0.0,0.0,0.0,0.0,0.0,0.0,0.0,0.0,0.0,0.0,0.0,0.0,0.0,0.0,0.0,0.0,0.0,0.0,0.0,0.0,0.0,0.0,0.0,0.0,-2.6758,-2.9414,0.0,-3.6582,-3.7871,-3.9883,-4.0801,-4.1191,-4.1191,-3.9883,-3.793,0.0,0.0,-3.0156,-2.7538,-2.6312,-2.5694,-2.5703,-2.5699,-2.5508,-2.4888,-2.6594,-2.8337,-2.9354,-3.4124,0.0,0.0,0.0,0.0,0.0,0.0,0.0,0.0,0.0,0.0,0.0,-5.1202,-5.1202,-5.1202,-5.1202,-5.1102,-5.0902,-5.0641,-5.041,-5.0206,-4.9993,-4.9898,-4.9898,-4.9898,-4.9898,-4.9898,0.0,0.0,0.0,-4.9871,-4.9816,-4.9778,-4.9778,-4.9721,-4.9663,-4.9663,-4.9663,-4.9663,0.0,0.0,0.0,0.0,0.0,0.0,-2.0098,-2.0162,-2.0203,-2.0197,-2.0197,-2.0225,-2.0285,-2.0301,-2.0332,-2.0395,-2.04,0.0,0.0,0.0,0.0,0.0,0.0,0.0,0.0,0.0,-2.1899,-2.1918,-2.3577,-2.4397,-2.4436,-2.5297,0.0,0.0,0.0,0.0,0.0,0.0,0.0,0.0,0.0,0.0,0.0,0.0,0.0,0.0,0.0,0.0,0.0,0.0,0.0,0.0,0.0,-2.5019,-2.6602,-3.0976,-3.3437,-3.5312,-3.793,-3.9883,-4.1191,-4.1191,-3.9883,-3.793,0.0,-3.2734,-3.0156,-2.7547,-2.6312,-2.5701,-2.5707,-2.5699,-2.5699,-2.5699,-2.4997,-2.5629,-2.9012,-3.1044,0.0,0.0,0.0,0.0,0.0,0.0,0.0,0.0,0.0,0.0,0.0,-5.1202,-5.1202,-5.1202,-5.1202,-5.1102,-5.0902,-5.0641,-5.041,-5.0206,-4.9993,-4.9898,-4.9898,-4.9898,-4.9898,0.0,0.0,0.0,0.0,-4.9807,-4.975,-4.9692,-4.9692,-4.9663,-4.9593,-4.9593,-4.9604,-4.9585,0.0,0.0,0.0,0.0,0.0,0.0,0.0,-2.0246,-2.0288,-2.0328,-2.0334,-2.0346,-2.0369,-2.0366,-2.0395,-2.046,-2.0472,0.0,0.0,0.0,0.0,0.0,0.0,0.0,0.0,0.0,-2.1296,-2.1899,-2.2426,-2.3285,-2.4417,-2.467,-2.5121,-2.5707,0.0,0.0,0.0,0.0,0.0,0.0,0.0,0.0,0.0,0.0,0.0,0.0,0.0,0.0,0.0,0.0,0.0,0.0,0.0,0.0,0.0,-2.7891,-3.0703,0.0,-3.5391,-3.6777,-3.7656,-3.7656,-3.6348,-3.4531,-3.2559,-3.0566,-2.8553,-2.6529,-2.5892,-2.5694,-2.5703,-2.5699,-2.5699,-2.5699,-2.5469,-2.5668,0.0,0.0,0.0,0.0,0.0,0.0,0.0,0.0,0.0,0.0,0.0,0.0,0.0,-5.0991,-5.0982,-5.0982,-5.0995,-5.0819,-5.0427,-5.0344,-5.0206,-4.9993,-4.9933,-4.9898,-4.9898,-4.9898,0.0,0.0,0.0,0.0,0.0,-4.9833,-4.9778,-4.9778,-4.9683,-4.9625,-4.9604,-4.9532,-4.9333,-4.9046,0.0,0.0,0.0,0.0,0.0,0.0,0.0,-2.0328,-2.0344,-2.0395,-2.0376,-2.0381,-2.0405,-2.0418,-2.0453,-2.051,-2.0519,0.0,0.0,0.0,0.0,0.0,0.0,0.0,0.0,-2.0593,-2.0866,-2.1413,-2.1743,-2.2426,-2.346,-2.4104,-2.469,-2.5219,-2.5551,0.0,0.0,0.0,0.0,0.0,0.0,0.0,-2.5254,0.0,0.0,0.0,0.0,0.0,0.0,0.0,0.0,0.0,0.0,0.0,0.0,0.0,-2.8515,-3.1094,-3.2793,-3.4355,-3.5508,-3.5508,-3.4219,0.0,-3.1211,-2.9297,-2.7401,-2.5998,-2.5701,-2.5699,-2.5699,-2.5699,-2.5582,-2.5251,-2.4923,-2.5161,0.0,0.0,0.0,0.0,0.0,0.0,0.0,0.0,0.0,0.0,0.0,0.0,0.0,-5.0794,-5.0715,-5.0645,-5.0721,-5.0567,-5.0206,-5.0206,-5.0106,-4.9898,-4.9898,-4.9898,-4.9898,-4.9898,0.0,0.0,0.0,0.0,0.0,-4.9805,-4.9769,-4.9702,-4.9596,-4.9555,-4.9563,-4.9521,-4.934,-4.9052,0.0,0.0,0.0,0.0,0.0,0.0,0.0,-2.0366,-2.0405,-2.041,-2.0357,-2.0342,-2.0409,-2.0464,-2.0516,-2.0503,0.0,0.0,0.0,0.0,0.0,0.0,0.0,0.0,-2.0594,-2.0594,-2.0593,-2.0593,-2.1413,-2.184,-2.1938,-2.3499,-2.428,-2.4436,-2.5258,-2.5648,0.0,0.0,0.0,0.0,0.0,0.0,0.0,0.0,0.0,0.0,0.0,0.0,0.0,0.0,0.0,0.0,0.0,0.0,0.0,0.0,0.0,0.0,0.0,-3.2441,-3.4394,-3.4277,-3.3125,-3.1777,-3.084,-2.873,0.0,-2.5879,-2.5705,-2.5703,-2.5699,-2.564,-2.5348,-2.453,-2.3712,0.0,0.0,0.0,0.0,0.0,0.0,0.0,0.0,0.0,0.0,0.0,0.0,0.0,0.0,-5.0606,-5.0388,-5.0172,-5.0374,-5.0368,-5.0183,-5.0183,-5.0081,-4.9898,-4.9898,-4.9898,-4.9898,-4.9898,0.0,0.0,0.0,0.0,0.0,-4.9721,-4.9663,-4.9585,-4.9521,-4.9509,-4.9509,-4.9471,-4.9434,-4.9327,0.0,0.0,0.0,0.0,0.0,0.0,0.0,0.0,0.0,0.0,-2.0533,-2.0536,-2.054,-2.0564,-2.0586,0.0,0.0,0.0,0.0,0.0,0.0,0.0,0.0,0.0,-2.0598,-2.0596,-2.0593,-2.0593,-2.0808,-2.1257,-2.1918,-2.2309,-2.3168,-2.4417,-2.4612,-2.5082,0.0,0.0,0.0,0.0,0.0,0.0,0.0,0.0,0.0,0.0,-2.4473,-2.3574,0.0,0.0,0.0,0.0,0.0,0.0,0.0,0.0,-2.5943,-2.7253,-2.6983,0.0,-3.1474,-3.0147,-3.0018,-2.9805,0.0,-2.7441,-2.6757,-2.5871,-2.5707,-2.5693,-2.5703,-2.5153,-2.4647,-2.4429,-2.4238,-2.5063,0.0,0.0,0.0,0.0,0.0,0.0,0.0,0.0,0.0,0.0,0.0,0.0,0.0,-5.0285,-5.0176,-4.9982,-5.0012,-5.0025,-4.9967,-4.9967,-4.9959,-4.9898,-4.9898,-4.9898,-4.9898,-4.9898,0.0,0.0,0.0,0.0,-4.9721,-4.9712,-4.9655,-4.9574,-4.9521,-4.9509,-4.9471,-4.9102,-4.8771,-4.8453,0.0,0.0,0.0,0.0,0.0,0.0,0.0,0.0,0.0,0.0,0.0,-2.0593,-2.0593,-2.0593,0.0,0.0,0.0,0.0,0.0,0.0,0.0,0.0,0.0,-2.0792,-2.1181,-2.0809,-2.0808,-2.1198,-2.0808,-2.0847,-2.1312,-2.1704,-2.2367,-2.3244,-2.4046,-2.4651,0.0,0.0,0.0,0.0,-2.5547,0.0,0.0,0.0,0.0,0.0,-2.3945,-2.2988,0.0,-2.1445,-2.0996,-2.0742,0.0,0.0,0.0,0.0,-2.5631,-2.6895,-2.6427,-2.8268,-2.9988,-2.8637,-2.8644,-2.8768,-2.7812,-2.6973,-2.6269,-2.5798,0.0,0.0,-2.518,-2.5999,-2.6096,-2.4121,-2.6091,0.0,0.0,0.0,0.0,0.0,0.0,0.0,0.0,0.0,0.0,0.0,0.0,0.0,0.0,-5.0115,-5.002,-4.9898,-4.9898,-4.9898,-4.9898,-4.9898,-4.9898,-4.9898,-4.9898,-4.9898,-4.9898,-4.986,-4.9814,0.0,0.0,0.0,-4.9712,-4.9674,-4.9636,-4.9596,-4.9551,-4.9509,-4.9471,-4.9196,-4.8844,-4.8399,0.0,0.0,0.0,0.0,0.0,0.0,0.0,0.0,0.0,0.0,0.0,0.0,0.0,0.0,0.0,0.0,0.0,0.0,0.0,0.0,0.0,0.0,0.0,-2.0946,-2.1684,-2.11,-2.1159,-2.1899,-2.1159,-2.0786,-2.08,-2.1409,-2.1741,-2.1876,-2.3617,-2.4397,0.0,0.0,0.0,0.0,-2.5391,0.0,0.0,0.0,0.0,0.0,0.0,0.0,0.0,-2.0859,-2.0605,-2.0723,-2.1465,0.0,0.0,0.0,0.0,0.0,-2.6995,-2.8465,-2.9719,-2.8576,-2.8303,-2.8273,-2.8124,-2.6855,0.0,0.0,0.0,0.0,0.0,-2.711,0.0,0.0,0.0,0.0,0.0,0.0,0.0,0.0,0.0,0.0,0.0,0.0,0.0,0.0,0.0,0.0,0.0,-5.0001,-4.9898,-4.9898,-4.9898,-4.9898,-4.9898,-4.9898,-4.9898,-4.9898,-4.9898,-4.9879,-4.9879,-4.9822,-4.9803,0.0,0.0,0.0,-4.9664,-4.9608,-4.9569,-4.9577,-4.9532,-4.9509,-4.949,-4.9434,-4.9104,-4.8649,0.0,0.0,0.0,0.0,0.0,0.0,0.0,0.0,0.0,0.0,0.0,0.0,0.0,0.0,0.0,0.0,0.0,0.0,0.0,0.0,0.0,-2.0597,-2.0599,-2.0657,-2.0808,-2.1393,-2.1762,-2.1899,-2.1762,-2.1665,-2.1602,-2.1056,-2.1154,-2.1876,-2.3617,-2.4397,-2.4456,-2.5336,-2.5616,-2.5506,-2.5644,0.0,0.0,0.0,0.0,0.0,0.0,0.0,0.0,-2.0644,-2.0605,-2.0625,-2.0762,0.0,0.0,0.0,0.0,0.0,-2.6995,-2.9303,-3.1177,-2.8869,-2.8309,-2.81,-2.7361,-2.6425,-2.5703,0.0,0.0,0.0,0.0,-2.6748,0.0,0.0,0.0,0.0,0.0,0.0,0.0,0.0,0.0,0.0,0.0,0.0,0.0,0.0,0.0,0.0,0.0,-4.9917,-4.9898,-4.9898,-4.9898,-4.9898,-4.9898,-4.9898,-4.9898,-4.9898,-4.9898,-4.986,-4.9803,-4.9803,-4.9749,0.0,0.0,-4.9634,-4.9544,-4.9577,-4.9566,-4.9502,-4.949,-4.9509,-4.9452,-4.9046,-4.8661,-4.8163,0.0,0.0,0.0,0.0,0.0,0.0,0.0,0.0,0.0,0.0,0.0,0.0,0.0,0.0,0.0,0.0,0.0,0.0,0.0,0.0,-2.0596,-2.0598,-2.0598,-2.0812,-2.1297,-2.1237,-2.1432,-2.1899,-2.1432,-2.1156,-2.1089,-2.0718,-2.0759,-2.1235,-2.2933,-2.3696,-2.3794,-2.5121,-2.5693,-2.5698,0.0,0.0,0.0,0.0,0.0,0.0,0.0,0.0,0.0,0.0,-2.0605,-2.0605,-2.0605,0.0,0.0,0.0,0.0,0.0,-2.688,-2.8149,-2.9515,-3.0179,-3.1062,-3.1653,-3.1249,-3.0488,-2.9472,0.0,0.0,0.0,0.0,0.0,0.0,0.0,0.0,0.0,0.0,0.0,0.0,0.0,0.0,0.0,0.0,0.0,0.0,0.0,0.0,0.0,0.0,0.0,-4.9898,-4.9898,-4.9898,-4.9898,-4.9898,-4.9898,-4.9898,-4.9898,-4.9871,-4.9824,-4.9805,-4.9712,-4.9655,-4.9598,0.0,-4.9551,-4.949,-4.9544,-4.9532,-4.9509,-4.9509,-4.9509,-4.9434,-4.8734,-4.8233,-4.779,0.0,0.0,0.0,0.0,0.0,0.0,0.0,0.0,0.0,0.0,0.0,0.0,0.0,0.0,0.0,0.0,0.0,0.0,0.0,0.0,-2.0596,-2.0599,-2.0596,-2.0907,-2.157,-2.1139,-2.1237,-2.1899,-2.1413,-2.1058,-2.0794,-2.0618,-2.0545,-2.0669,-2.235,-2.3091,-2.3208,-2.4965,-2.5691,-2.5676,0.0,0.0,0.0,0.0,0.0,0.0,0.0,0.0,0.0,0.0,0.0,0.0,0.0,0.0,0.0,-2.3109,-2.4339,-2.5883,-2.6763,-2.7446,-2.8598,-3.1392,-3.2504,-3.3211,-3.4412,-3.3554,-3.2128,0.0,0.0,0.0,0.0,0.0,0.0,0.0,0.0,0.0,0.0,0.0,0.0,0.0,0.0,0.0,0.0,0.0,0.0,0.0,0.0,0.0,0.0,0.0,-4.9898,-4.9898,-4.9898,-4.9898,-4.9871,-4.9871,-4.9871,-4.9871,-4.9816,-4.9778,-4.975,-4.9636,-4.9588,-4.9577,-4.9532,-4.9509,-4.9509,-4.9509,-4.9509,-4.9509,-4.9509,-4.9434,-4.924,-4.8472,-4.7959,-4.7545,0.0,0.0,0.0,0.0,0.0,0.0,0.0,0.0,0.0,0.0,0.0,0.0,0.0,0.0,0.0,0.0,0.0,0.0,0.0,0.0,-2.0594,-2.0594,-2.0594,-2.0632,-2.069,-2.1413,-2.184,-2.1899,-2.2584,-2.2504,-2.17,-2.0937,-2.0605,-2.0664,-2.2348,-2.3091,-2.3208,-2.4965,-2.5691,-2.5637,-2.4813,0.0,0.0,0.0,0.0,0.0,0.0,0.0,0.0,0.0,0.0,0.0,0.0,0.0,-2.31,-2.3091,-2.4339,-2.5883,-2.6763,-2.8774,-3.0862,-3.1843,-2.9816,-2.8802,-3.3619,-3.2203,0.0,-3.2689,0.0,0.0,0.0,0.0,0.0,0.0,0.0,0.0,0.0,0.0,0.0,0.0,0.0,0.0,0.0,0.0,0.0,0.0,0.0,0.0,0.0,0.0,0.0,-4.9898,-4.9898,-4.9871,-4.9807,-4.9807,-4.9807,-4.9807,-4.9807,-4.9731,-4.9615,-4.9615,-4.9574,-4.949,-4.949,-4.9509,-4.9509,-4.9509,-4.9509,-4.9509,-4.9509,-4.9215,-4.8814,-4.8343,-4.794,-4.7545,0.0,0.0,0.0,0.0,0.0,0.0,0.0,0.0,0.0,0.0,0.0,0.0,0.0,0.0,0.0,0.0,0.0,0.0,0.0,-2.0596,-2.0593,-2.0593,-2.0593,-2.0847,-2.1393,-2.1198,-2.1608,-2.2642,-2.2406,-2.1879,-2.104,-2.0744,-2.0607,-2.0669,-2.235,-2.3091,-2.3189,-2.438,-2.4889,-2.4811,-2.3932,-2.3287,0.0,0.0,0.0,0.0,0.0,0.0,0.0,0.0,-2.0605,-2.0683,-2.1245,-2.2182,-2.3218,-2.3757,-2.4768,-2.5765,-2.6097,-2.809,-3.0298,-3.1138,-2.9968,0.0,0.0,-3.5716,-3.4194,-3.3534,-3.4682,0.0,0.0,0.0,0.0,0.0,0.0,0.0,0.0,0.0,0.0,0.0,0.0,0.0,0.0,0.0,0.0,0.0,0.0,0.0,0.0,0.0,0.0,-4.9835,-4.9788,-4.9759,-4.9749,-4.974,-4.9721,-4.9682,-4.9692,-4.9663,-4.9604,-4.9563,-4.9521,-4.9509,-4.9509,-4.9509,-4.9509,-4.9509,-4.9509,-4.9509,-4.9509,-4.9196,-4.8744,-4.8327,-4.7949,-4.7522,0.0,0.0,0.0,0.0,0.0,0.0,0.0,0.0,0.0,0.0,0.0,0.0,0.0,0.0,0.0,0.0,0.0,0.0,-2.0599,-2.0869,-2.1003,-2.1003,-2.1257,-2.1666,-2.2272,-2.1452,-2.1569,-2.272,-2.186,-2.1274,-2.1003,-2.0726,-2.0746,-2.1061,-2.2467,-2.3247,-2.356,-2.4145,-2.4399,-2.43,-2.3169,-2.2389,0.0,0.0,0.0,0.0,0.0,0.0,0.0,0.0,-2.0605,-2.0742,-2.1629,-2.2449,-2.3273,-2.4145,-2.5414,-2.6527,-2.6527,-2.8032,-2.9945,-3.1333,0.0,0.0,-3.7283,-3.729,-3.6016,-3.5858,-3.6598,-3.6866,-3.5521,0.0,0.0,0.0,0.0,0.0,0.0,0.0,0.0,0.0,0.0,0.0,0.0,0.0,0.0,0.0,0.0,0.0,0.0,0.0,0.0,0.0,-4.9702,-4.9673,-4.9661,-4.9653,-4.9634,-4.9563,-4.9563,-4.9563,-4.9563,-4.9521,-4.9509,-4.9509,-4.9509,-4.9509,-4.9509,-4.9509,-4.9509,-4.9509,-4.9509,-4.914,-4.857,-4.8286,-4.7861,-4.7392,0.0,0.0,0.0,0.0,0.0,0.0,0.0,0.0,0.0,0.0,0.0,0.0,0.0,0.0,0.0,0.0,0.0,0.0,-2.0612,-2.1413,-2.1899,-2.1899,-2.2662,-2.3091,-2.3091,-2.2311,-2.1899,-2.1899,-2.1022,-2.1042,-2.186,-2.1003,-2.1061,-2.1938,-2.274,-2.3579,-2.4397,-2.4397,-2.4378,-2.4222,-2.2563,-2.1899,-2.1782,0.0,0.0,0.0,0.0,0.0,0.0,0.0,-2.0605,-2.0761,-2.1649,-2.2463,-2.3283,-2.4163,-2.6251,-2.8264,-2.8266,-2.8928,-3.0235,-3.2741,0.0,0.0,-3.7431,-3.5917,-3.4895,-4.0034,-3.9019,-3.7152,-3.7038,0.0,0.0,0.0,0.0,0.0,0.0,0.0,0.0,0.0,0.0,0.0,0.0,0.0,0.0,0.0,0.0,0.0,0.0,0.0,0.0,0.0,-4.9692,-4.9682,-4.9593,-4.9593,-4.9563,-4.9509,-4.9509,-4.9509,-4.9509,-4.9509,-4.9509,-4.9509,-4.9509,-4.9509,-4.9509,-4.9509,-4.9509,-4.9509,-4.9509,-4.899,-4.8215,-4.8184,-4.7684,-4.6998,0.0,0.0,0.0,0.0,0.0,0.0,0.0,0.0,0.0,0.0,0.0,0.0,0.0,0.0,0.0,0.0,0.0,0.0,-2.1471,-2.1762,-2.1899,-2.1899,-2.2133,-2.2252,-2.2252,-2.2016,-2.1608,-2.0983,-2.1335,-2.1335,-2.0983,-2.0726,-2.1077,-2.1938,-2.2736,-2.3244,-2.3482,-2.3482,-2.3169,-2.2543,-2.1432,-2.0983,-2.0964,0.0,0.0,0.0,0.0,0.0,0.0,0.0,0.0,0.0,-2.2473,-2.3329,-2.4183,-2.5063,-2.5863,-2.6332,-2.5726,-2.8403,0.0,-3.0821,0.0,0.0,0.0,-3.7329,0.0,0.0,-3.8804,-3.7084,-3.7667,0.0,0.0,0.0,0.0,0.0,0.0,0.0,0.0,0.0,0.0,0.0,0.0,0.0,0.0,0.0,0.0,0.0,0.0,0.0,0.0,0.0,-4.9563,-4.9551,-4.9521,-4.9521,-4.9521,-4.9509,-4.9509,-4.9509,-4.9509,-4.9509,-4.9509,-4.9509,-4.9509,-4.9509,-4.9509,-4.9509,-4.9509,-4.9471,-4.914,-4.8846,-4.8533,-4.8009,-4.7637,-4.7392,0.0,0.0,0.0,0.0,0.0,0.0,0.0,0.0,0.0,0.0,0.0,0.0,0.0,0.0,0.0,0.0,0.0,0.0,0.0,-2.2192,-2.2389,-2.2389,-2.2389,-2.2232,-2.1918,-2.1569,-2.1139,-2.0593,-2.1139,-2.11,-2.0593,-2.0591,-2.1234,-2.2408,-2.2873,-2.3283,-2.3599,-2.3247,-2.2642,-2.1821,-2.0944,-2.0593,-2.0593,0.0,0.0,0.0,0.0,0.0,0.0,0.0,0.0,0.0,-2.3351,-2.3973,-2.4709,-2.6273,-2.6488,-2.6468,-2.7659,-2.9513,0.0,-3.2836,-3.4601,-3.6618,-3.9002,0.0,0.0,0.0,0.0,-3.8537,0.0,0.0,0.0,0.0,0.0,0.0,0.0,0.0,0.0,0.0,0.0,0.0,0.0,0.0,0.0,0.0,0.0,0.0,0.0,0.0,0.0,0.0,-4.9521,-4.9509,-4.9509,-4.9509,-4.9509,-4.9509,-4.9509,-4.9509,-4.9509,-4.9509,-4.9509,-4.9509,-4.9509,-4.9509,-4.9509,-4.9509,-4.9509,-4.9452,-4.899,-4.8706,-4.8494,-4.7829,-4.75,-4.7311,0.0,0.0,0.0,0.0,0.0,0.0,0.0,0.0,0.0,0.0,0.0,0.0,0.0,0.0,0.0,0.0,0.0,0.0,0.0,0.0,-2.2994,-2.2994,-2.2916,-2.2525,-2.1801,-2.1003,-2.0593,-2.0593,-2.0593,-2.0593,-2.0593,-2.0593,-2.1491,-2.3091,-2.3013,-2.346,-2.4222,-2.3365,-2.2525,-2.1723,-2.1003,-2.071,-2.073,-2.0808,0.0,0.0,0.0,0.0,0.0,0.0,0.0,0.0,-2.4147,-2.4456,-2.4983,-2.7368,-2.7602,-2.7952,-3.178,-3.1404,0.0,-3.6845,-3.7343,0.0,-4.0304,-4.0985,-4.0951,-4.0896,0.0,0.0,0.0,0.0,0.0,0.0,0.0,0.0,0.0,0.0,0.0,0.0,0.0,0.0,0.0,0.0,0.0,0.0,0.0,0.0,0.0,0.0,0.0,-4.9509,-4.9509,-4.9509,-4.9509,-4.9509,-4.9509,0.0,-4.9509,-4.9509,-4.9509,-4.9509,-4.9509,-4.9509,-4.9509,-4.9509,-4.9509,-4.9509,-4.9509,-4.9452,-4.8952,-4.8514,-4.8146,-4.7724,-4.7293,-4.6998,0.0,0.0,0.0,0.0,0.0,0.0,0.0,0.0,0.0,0.0,0.0,0.0,0.0,0.0,0.0,0.0,0.0,0.0,0.0,0.0,-2.2153,-2.2153,-2.1491,-2.1061,-2.0886,-2.069,-2.0593,-2.0593,-2.0593,-2.0593,-2.0593,-2.0609,-2.1487,-2.3072,-2.2383,-2.2561,-2.3326,-2.2507,-2.1668,-2.0925,-2.1413,-2.1627,-2.1686,-2.2311,-2.2564,0.0,0.0,0.0,0.0,0.0,0.0,0.0,-2.4339,-2.4866,-2.5531,-2.6097,-2.71,-2.8079,-2.8307,-3.0448,0.0,0.0,-3.7751,-4.0108,-4.0842,-4.0917,-4.0803,0.0,0.0,0.0,0.0,0.0,0.0,0.0,0.0,0.0,0.0,0.0,0.0,0.0,0.0,0.0,0.0,0.0,0.0,0.0,0.0,0.0,0.0,0.0,0.0,-4.9471,-4.9509,-4.9509,-4.9509,-4.9509,-4.9509,0.0,-4.9509,-4.9509,-4.9509,-4.9509,-4.9509,-4.9509,-4.9509,-4.9509,-4.9509,-4.9509,-4.9509,-4.9434,-4.864,-4.8274,-4.811,-4.741,-4.7051,-4.6998,0.0,0.0,0.0,0.0,0.0,0.0,0.0,0.0,0.0,0.0,0.0,0.0,0.0,0.0,0.0,0.0,0.0,0.0,0.0,0.0,-2.1704,-2.1296,-2.0847,-2.0593,-2.0593,-2.0593,-2.0593,-2.0609,-2.0609,-2.0591,-2.0612,-2.1038,-2.1899,-2.3072,-2.2639,-2.2914,-2.3679,-2.2839,-2.2215,-2.1842,-2.2291,-2.2467,-2.2525,-2.2935,-2.3091,-2.3091,-2.3091,0.0,0.0,0.0,0.0,0.0,0.0,0.0,-2.5863,-2.6704,-2.6708,-2.6963,-2.9396,0.0,0.0,-3.5737,0.0,-4.0513,-4.0863,-4.0896,-4.0796,0.0,0.0,0.0,0.0,0.0,0.0,0.0,0.0,0.0,0.0,0.0,0.0,0.0,0.0,0.0,0.0,0.0,0.0,0.0,0.0,0.0,0.0,-4.7395,-4.7838,-4.8288,-4.8307,-4.8495,-4.887,-4.887,-4.9096,-4.9509,-4.9509,-4.9509,-4.9509,-4.9509,-4.9509,-4.9509,-4.9509,-4.9509,-4.949,-4.9252,-4.9159,-4.9084,-4.8253,-4.789,-4.7819,-4.7204,-4.6998,-4.6998,0.0,0.0,0.0,0.0,0.0,0.0,0.0,0.0,0.0,0.0,0.0,0.0,0.0,0.0,0.0,0.0,0.0,0.0,0.0,0.0,0.0,-2.0632,-2.0593,-2.0593,-2.0593,-2.0593,-2.059,-2.0605,-2.0584,-2.051,-2.0396,-2.1411,-2.2231,-2.2896,-2.3033,-2.3501,-2.4128,-2.3404,-2.3091,-2.3111,-2.3267,-2.3326,-2.3345,-2.3482,-2.354,-2.354,-2.354,-2.4009,-2.4612,-2.4612,0.0,0.0,0.0,0.0,-2.598,-2.7427,-2.6527,-2.6134,-3.0975,0.0,-3.1594,-3.7204,-3.9181,0.0,-4.0723,-4.0867,0.0,0.0,0.0,0.0,0.0,0.0,0.0,0.0,0.0,0.0,0.0,0.0,0.0,0.0,0.0,0.0,0.0,0.0,0.0,0.0,0.0,0.0,-4.5687,-4.6392,-4.6843,-4.7012,-4.7012,-4.7331,-4.7988,-4.7988,-4.842,-4.9283,-4.9434,-4.9509,-4.9509,-4.9509,-4.9509,-4.9509,-4.9509,-4.9452,-4.9358,-4.8971,-4.8765,-4.8632,-4.7895,-4.7611,-4.7562,-4.715,-4.6998,-4.6998,0.0,0.0,0.0,0.0,0.0,0.0,0.0,0.0,0.0,0.0,0.0,0.0,0.0,0.0,0.0,0.0,0.0,0.0,0.0,0.0,0.0,-2.0612,-2.0593,-2.0593,-2.0593,-2.0609,-2.0605,-2.0605,-2.054,-2.017,-1.9507,-2.1074,-2.1897,-2.2094,-2.2799,-2.315,-2.3267,-2.315,-2.3091,-2.3169,-2.3929,-2.4222,-2.43,-2.5063,-2.5356,-2.5356,-2.5356,-2.5434,-2.5531,-2.5531,-2.5609,0.0,0.0,0.0,-2.5746,-2.598,-2.688,-2.7798,-2.7835,0.0,-3.3802,0.0,-3.9059,-3.9781,0.0,0.0,0.0,0.0,0.0,0.0,0.0,0.0,0.0,0.0,0.0,0.0,0.0,0.0,0.0,0.0,0.0,0.0,0.0,0.0,0.0,0.0,0.0,0.0,-4.565,-4.581,-4.6223,-4.6993,-4.7012,-4.7049,-4.7162,-4.7162,-4.7575,-4.8382,-4.9133,-4.9509,-4.9509,-4.9509,-4.9509,-4.9509,-4.9509,-4.9252,-4.8884,-4.8827,-4.8598,-4.8218,-4.7776,-4.7609,-4.7561,-4.7169,-4.6998,-4.6998,0.0,0.0,0.0,0.0,0.0,0.0,0.0,0.0,0.0,0.0,0.0,0.0,0.0,0.0,0.0,0.0,0.0,0.0,0.0,0.0,0.0,-2.0593,-2.0593,-2.0593,-2.0609,-2.0119,-1.9862,-1.9873,-1.9344,-1.8915,-1.8603,-2.0289,-2.1349,-2.1879,-2.272,-2.3638,-2.4516,-2.4048,-2.4106,-2.4594,-2.4965,-2.5707,-2.6527,-2.5922,-2.6312,-2.7034,-2.6058,-2.5707,-2.5707,-2.5707,-2.5709,-2.5693,-2.5693,0.0,0.0,0.0,-2.6234,-2.7194,-2.8765,-3.0888,-3.3626,0.0,-3.8747,-3.9247,-4.0586,0.0,0.0,0.0,0.0,0.0,0.0,0.0,0.0,0.0,0.0,0.0,0.0,0.0,0.0,0.0,0.0,0.0,0.0,0.0,0.0,0.0,0.0,-4.4665,-4.4993,-4.504,-4.5209,-4.5604,-4.5604,-4.5829,-4.6279,-4.6279,-4.6682,-4.7477,-4.8352,-4.8746,-4.8734,-4.9252,-4.9509,-4.949,-4.9215,-4.9008,-4.8765,-4.8329,-4.8007,-4.7805,-4.7438,-4.7248,-4.724,-4.7051,-4.6998,-4.6998,0.0,0.0,0.0,0.0,0.0,0.0,0.0,0.0,0.0,0.0,0.0,0.0,0.0,0.0,0.0,0.0,0.0,0.0,0.0,0.0,0.0,-2.0591,-2.0399,-2.0263,-2.0279,-1.9422,-1.8971,-1.8962,-1.8301,-1.7987,-1.8039,-1.9727,-2.096,-2.1858,-2.2933,-2.4145,-2.5336,-2.4905,-2.5102,-2.5746,-2.6175,-2.7132,-2.8205,-2.7327,-2.7795,-2.8674,-2.6722,-2.6175,-2.6234,-2.5336,-2.534,-2.5616,-2.5187,-2.5184,0.0,0.0,0.0,-2.5437,0.0,0.0,-3.1292,-3.6088,-3.7327,-3.7938,0.0,0.0,0.0,0.0,0.0,0.0,0.0,0.0,0.0,0.0,0.0,0.0,0.0,0.0,0.0,0.0,0.0,0.0,0.0,0.0,0.0,0.0,0.0,-4.4515,-4.4515,-4.4515,-4.4515,-4.4515,-4.4515,-4.4796,-4.5397,-4.5604,-4.6006,-4.6604,-4.744,-4.7977,-4.814,-4.884,-4.9221,-4.9313,-4.8946,-4.8674,-4.8435,-4.7832,-4.7533,-4.7434,-4.7124,-4.6998,-4.6998,-4.6998,-4.6998,-4.6998,0.0,0.0,0.0,0.0,0.0,0.0,0.0,0.0,0.0,0.0,0.0,0.0,-2.0593,-2.0594,-2.0594,-2.0593,-2.0593,-2.0593,-2.0593,-2.0609,-2.0605,-2.0605,-1.9815,0.0,-1.937,-1.8515,-1.8066,-1.8066,-1.7969,-1.7948,-1.8033,-1.9723,-2.0969,-2.1867,-2.3576,-2.4378,-2.4514,-2.5297,-2.5668,-2.5844,-2.7503,-2.8225,-2.8459,-2.9962,-3.0587,-3.0333,-2.7832,-2.7462,-2.7659,-2.4358,-2.4339,-2.5414,-2.3753,-2.3792,-2.4319,0.0,0.0,0.0,0.0,-2.5406,0.0,-3.2187,-3.414,0.0,0.0,0.0,0.0,0.0,0.0,0.0,0.0,0.0,0.0,0.0,0.0,0.0,0.0,0.0,0.0,0.0,0.0,0.0,0.0,0.0,0.0,0.0,0.0,-4.4515,-4.4515,-4.4515,-4.4515,-4.4515,-4.4515,-4.4533,-4.4571,-4.5322,-4.5716,-4.5772,-4.6566,-4.7421,-4.8194,-4.819,-4.8436,-4.8841,-4.8819,-4.8365,-4.7653,-4.7617,-4.7374,-4.7053,-4.7025,-4.6998,-4.6998,-4.6998,-4.6998,-4.6998,0.0,0.0,0.0,0.0,0.0,0.0,0.0,0.0,0.0,0.0,0.0,0.0,0.0,-2.0593,-2.0593,-2.0593,-2.0591,-2.0588,-2.0545,-2.0534,-2.0539,-2.0539,-2.0234,-1.9824,-1.9316,-1.8457,-1.7734,-1.7168,-1.6582,-1.6582,-1.7203,-1.8923,-2.0464,-2.1884,-2.3625,-2.47,-2.5247,-2.558,-2.5385,-2.5071,-2.7376,-2.8642,-2.9144,-2.917,-3.0554,0.0,0.0,0.0,-2.7268,-2.6019,-2.4905,-2.3929,-2.3302,-2.3308,-2.3508,-2.3187,-2.2522,-2.2465,0.0,0.0,0.0,-2.9856,-3.2694,-3.4861,0.0,0.0,0.0,0.0,0.0,0.0,0.0,0.0,0.0,0.0,0.0,0.0,0.0,0.0,0.0,0.0,0.0,0.0,0.0,0.0,0.0,0.0,0.0,0.0,-4.4515,-4.4515,-4.4515,-4.4515,-4.4515,-4.4383,-4.4188,-4.4664,-4.4659,-4.4169,-4.5457,-4.6078,-4.6155,-4.7248,-4.767,-4.7591,-4.7794,-4.7797,-4.7571,-4.7311,-4.715,-4.6998,-4.6924,-4.687,-4.6845,-4.6778,-4.6731,-4.6731,0.0,0.0,0.0,0.0,0.0,0.0,0.0,0.0,0.0,-2.0565,0.0,0.0,0.0,0.0,-2.0576,-2.057,-2.0566,-2.0545,-2.051,-2.05,-2.0505,-2.0507,-2.0214,-1.9684,-1.8885,-1.8002,-1.7139,-1.6262,-1.5947,-1.6403,-1.7617,-1.9336,-2.1053,-2.2749,-2.4197,-2.5154,-2.57,-2.57,-2.5191,-2.4682,-2.7868,-2.8977,-2.8813,0.0,0.0,0.0,0.0,0.0,0.0,0.0,-2.6673,-2.5461,-2.4009,-2.2941,-2.2264,-2.2259,-2.1886,-2.183,-2.3533,0.0,0.0,0.0,0.0,-3.2119,0.0,0.0,0.0,0.0,0.0,0.0,0.0,0.0,0.0,0.0,0.0,0.0,0.0,0.0,0.0,0.0,0.0,0.0,0.0,0.0,0.0,0.0,0.0,0.0,-4.4102,-4.4364,-4.4515,-4.4515,-4.4515,-4.4354,-4.4005,-4.4218,-4.3968,-4.3284,-4.4295,-4.4767,-4.4812,-4.5877,-4.6469,-4.6653,-4.6873,-4.7089,-4.7308,-4.6966,-4.6877,-4.6877,-4.6784,-4.6713,-4.6717,-4.6631,-4.659,-4.6578,0.0,0.0,0.0,0.0,0.0,0.0,0.0,0.0,-2.0477,-2.0495,0.0,0.0,0.0,0.0,0.0,-2.0504,-2.0499,-2.051,-2.0504,-2.0503,-2.0506,-2.0507,-1.9682,-1.8858,-1.802,-1.7175,-1.63,-1.5448,-1.626,-1.7543,-1.9336,-2.1031,-2.2733,-2.4369,-2.5253,-2.5644,-2.5622,0.0,-2.517,-2.4731,0.0,-2.9272,-2.7507,0.0,0.0,0.0,-3.0033,-3.0189,0.0,-2.8963,0.0,0.0,0.0,-2.2592,-2.0605,-2.0605,-2.0605,-2.0605,0.0,0.0,0.0,0.0,0.0,0.0,0.0,0.0,0.0,0.0,0.0,0.0,0.0,0.0,0.0,0.0,0.0,0.0,0.0,0.0,0.0,0.0,0.0,0.0,0.0,0.0,0.0,0.0,0.0,-4.3257,-4.3257,-4.4026,-4.4496,-4.4515,-4.4515,-4.4325,-4.3974,-4.4005,-4.3726,-4.314,-4.3105,-4.3506,-4.4217,-4.4199,-4.4875,-4.6019,-4.6072,-4.6356,-4.6731,-4.6666,-4.6601,-4.6601,-4.6625,-4.6602,-4.6595,-4.6613,-4.659,-4.6601,0.0,0.0,0.0,0.0,0.0,0.0,-1.9565,-1.9609,-1.9844,0.0,0.0,0.0,-2.0509,-2.0494,-2.0505,-2.0508,-2.0508,-2.0508,-2.0508,-2.0507,-2.0503,-2.0501,-2.027,-1.9478,-1.8035,-1.775,-1.7193,-1.6263,-1.7167,-1.8178,-1.927,-2.1647,-2.2668,-2.2575,-2.4099,-2.4413,-2.3867,-2.4492,0.0,-2.3847,-2.8181,-2.9134,0.0,0.0,0.0,0.0,0.0,-3.0909,-2.9236,0.0,-2.7695,-2.3242,0.0,0.0,-2.0605,0.0,-2.0604,-2.0598,-2.0594,0.0,0.0,0.0,0.0,0.0,0.0,0.0,0.0,0.0,0.0,0.0,0.0,0.0,0.0,0.0,0.0,0.0,0.0,0.0,0.0,0.0,0.0,0.0,0.0,0.0,0.0,0.0,-4.2224,-4.2374,-4.2374,-4.3182,-4.3895,-4.4496,-4.444,-4.4091,-4.3422,-4.3642,-4.3301,-4.2351,-4.2772,-4.2938,-4.2922,-4.3508,-4.3969,-4.4354,-4.5147,-4.5581,-4.5765,-4.6363,-4.6613,-4.6578,-4.6495,-4.6489,-4.6466,-4.6363,-4.6319,-4.6305,0.0,0.0,0.0,0.0,0.0,-1.8901,-1.9627,-1.9468,-1.956,0.0,0.0,0.0,-1.9961,-2.0285,-2.0497,-2.0504,-2.0173,-1.9958,-1.9955,-1.9615,-1.9411,-1.9426,-1.9425,-1.879,-1.7488,-1.7793,-1.7534,-1.6645,-1.79,-1.8923,-1.9773,-2.1674,-2.2483,-2.2383,-2.3392,-2.3572,-2.3105,0.0,0.0,0.0,-2.7712,0.0,0.0,-3.1814,-3.3591,0.0,0.0,0.0,-3.0762,-3.3027,-2.9336,0.0,0.0,0.0,0.0,0.0,0.0,-2.0593,-2.0593,-2.0593,-2.0593,0.0,0.0,0.0,-2.7607,-3.1,0.0,0.0,0.0,0.0,0.0,0.0,0.0,0.0,0.0,0.0,0.0,0.0,0.0,0.0,0.0,0.0,0.0,0.0,0.0,-4.0915,-4.1297,-4.1635,-4.1927,-4.2798,-4.352,-4.3933,-4.4271,-4.4121,-4.3437,-4.3642,-4.3301,-4.2432,-4.258,-4.2673,-4.258,-4.2882,-4.3191,-4.3576,-4.4219,-4.4577,-4.4791,-4.5607,-4.6174,-4.6416,-4.635,-4.6315,-4.6328,-4.6253,-4.6172,-4.6172,0.0,0.0,-1.8181,-1.8804,-1.8261,-1.8277,-1.9839,-1.9407,-1.9219,0.0,-1.962,-1.9231,-1.9325,-1.9954,-2.0393,-2.0483,-1.9702,-1.9249,-1.9329,-1.8615,-1.8173,-1.8196,-1.8181,-1.7792,-1.7009,-1.7679,-1.7695,-1.6963,-1.8558,-1.9737,-2.051,-2.1489,-2.2259,-2.2825,0.0,0.0,0.0,0.0,0.0,-2.2584,-2.7182,-2.7806,0.0,0.0,-3.2516,-3.1669,-3.3144,-3.3516,-3.3457,-3.4726,-3.2285,0.0,0.0,0.0,0.0,0.0,-2.0798,-2.0964,-2.0671,-2.0593,-2.0593,0.0,0.0,0.0,-2.8315,-2.9931,-3.1832,0.0,0.0,0.0,0.0,0.0,0.0,0.0,0.0,0.0,0.0,0.0,0.0,0.0,0.0,0.0,0.0,-3.9656,-3.9571,-3.952,-4.0202,-4.0971,-4.1678,-4.2527,-4.2996,-4.3007,-4.3868,-4.4128,-4.3643,-4.3735,-4.349,-4.2977,-4.2559,-4.2508,-4.2727,-4.2381,-4.2581,-4.3279,-4.3383,-4.3625,-4.3915,-4.4716,-4.547,-4.6116,-4.6186,-4.6172,-4.6172,-4.6172,-4.6172,-4.6172,0.0,0.0,-1.7741,-1.72,-1.696,-1.6963,-1.7301,-1.7209,-1.7414,-1.8286,-1.8864,-1.9464,-2.0179,-1.9766,-1.9721,-2.0352,-1.9671,-1.9473,-2.0113,-2.0011,-1.9934,-2.0001,-1.9949,-1.9541,-1.8722,-1.8873,-1.8839,-1.8629,-1.9666,-2.0258,-2.0441,-2.2033,-2.2143,-2.1045,-2.1808,0.0,0.0,0.0,0.0,-2.4007,-2.5006,0.0,-2.8129,-3.1194,-3.3459,-3.504,-3.5389,-3.418,-3.2168,-3.0391,-3.0527,-3.0703,0.0,0.0,0.0,-2.1811,0.0,0.0,0.0,0.0,0.0,0.0,0.0,0.0,-2.4096,-2.666,-2.8942,0.0,0.0,0.0,0.0,0.0,0.0,0.0,0.0,0.0,0.0,0.0,0.0,0.0,0.0,0.0,0.0,-3.9703,-3.9577,-3.9577,-3.9696,-4.0005,-4.0589,-4.0933,-4.1325,-4.175,-4.2762,-4.3085,-4.2691,-4.3273,-4.3351,-4.2905,-4.2462,-4.2274,-4.2292,-4.2243,-4.2307,-4.249,-4.3466,-4.3757,-4.3571,-4.4324,-4.4893,-4.5378,-4.5993,-4.6172,-4.6172,-4.6172,-4.6172,-4.6172,0.0,-1.6598,-1.6594,-1.6592,-1.6238,-1.6243,-1.7128,-1.6882,-1.6905,-1.7787,-1.8671,-1.9364,-1.9799,-1.9854,-2.0005,-2.0413,-1.9681,-1.9361,-1.9784,-1.9391,-1.9173,-1.9197,-1.9139,-1.8915,-1.8503,-1.8885,-1.9104,-1.9095,-1.9973,-2.04,-2.0422,-2.1331,-2.1979,-2.2367,-2.1591,-2.1717,0.0,0.0,-2.1344,-2.274,-2.5317,0.0,-3.0481,-3.3066,-3.4866,-3.5991,-3.5996,-3.5176,-3.3887,-3.2578,-3.1308,0.0,0.0,-2.7362,-2.5857,0.0,-2.3404,-2.3831,0.0,0.0,0.0,-2.0593,0.0,0.0,0.0,-2.5615,-2.7349,0.0,0.0,0.0,0.0,0.0,0.0,0.0,0.0,0.0,0.0,0.0,0.0,0.0,0.0,0.0,0.0,-3.9703,-3.9602,-3.9602,-3.9546,-3.9612,-3.9906,-4.0244,-4.0626,-4.0989,-4.1789,-4.2355,-4.2686,-4.3083,-4.3365,-4.3542,-4.3087,-4.2822,-4.279,-4.2803,-4.2693,-4.2516,-4.3123,-4.3162,-4.2851,-4.3426,-4.3756,-4.4079,-4.5273,-4.6038,-4.6398,-4.6332,-4.6301,-4.6301,-1.5306,-1.5298,-1.5515,-1.6226,-1.5777,-1.5838,-1.7407,-1.7054,-1.6969,-1.7995,-1.9178,-1.9983,-2.0157,-2.1094,-2.1796,-2.1967,-2.1184,-2.053,-2.0201,-1.9503,-1.9119,-1.9098,-1.8567,-1.8505,-1.9008,-1.9182,-1.9297,-1.9323,-2.0039,-2.0395,-2.0398,-2.0464,-2.1602,-2.3528,-2.2006,-2.2206,0.0,0.0,0.0,-2.245,0.0,-2.923,-3.0895,-3.3524,-3.4838,-3.5332,-3.582,-3.5996,-3.5918,-3.543,-3.2498,-2.9231,-3.0294,-2.8435,0.0,0.0,0.0,0.0,0.0,0.0,0.0,0.0,0.0,-2.1269,0.0,0.0,0.0,0.0,0.0,0.0,0.0,0.0,0.0,0.0,0.0,0.0,0.0,0.0,0.0,0.0,0.0,0.0,0.0,-3.8738,-3.8925,-3.9564,-3.8946,-3.8796,-3.9399,-3.9862,-4.0179,-4.0262,-4.0921,-4.1667,-4.2511,-4.2828,-4.3322,-4.3972,-4.3666,-4.3467,-4.3421,-4.3417,-4.3213,-4.2904,-4.3018,-4.2749,-4.2358,-4.2658,-4.281,-4.3002,-4.4478,-4.5452,-4.61,-4.6177,-4.62,-4.6169,-1.5303,-1.5303,-1.5322,-1.5439,-1.5365,-1.5621,-1.6603,-1.6661,-1.7163,-1.8761,-2.1023,-2.2797,-2.3624,0.0,0.0,0.0,0.0,0.0,-2.3819,0.0,-2.3457,-2.3392,-2.122,-2.1077,-2.3338,-2.1327,-2.0218,-2.0171,-2.0316,-2.0406,-2.0408,-2.0475,-2.0685,-2.1109,-2.3085,0.0,0.0,0.0,-2.5301,0.0,-2.8057,-2.708,0.0,-2.8182,-3.0605,-3.293,-3.5195,-3.5996,-3.5644,0.0,-3.2186,-3.0996,0.0,-2.801,-2.9879,0.0,0.0,0.0,0.0,0.0,0.0,0.0,-2.0027,0.0,0.0,0.0,0.0,0.0,0.0,0.0,0.0,0.0,0.0,0.0,0.0,0.0,0.0,0.0,0.0,0.0,0.0,0.0,0.0,0.0,-3.6445,-3.9395,-3.685,-3.6334,-3.899,-3.9361,-3.9396,-3.9094,-4.0115,-4.0728,-4.0784,-4.224,-4.3034,-4.3146,-4.337,-4.3508,-4.3479,-4.3441,-4.3369,-4.3355,-4.3719,-4.3433,-4.2757,-4.2763,-4.2869,-4.3039,-4.3775,-4.4126,-4.4314,-4.5112,-4.5405,-4.5523,-1.5546,-1.5741,-1.6052,-1.6052,-1.6478,-1.6929,-1.7301,-1.734,-1.7774,-1.895,-2.0036,-2.1049,0.0,0.0,0.0,0.0,0.0,-2.5083,0.0,0.0,-2.3572,-2.2016,-2.0927,-2.0843,-2.1864,-2.0881,-2.0321,-2.0308,-2.0374,-2.039,-2.0393,-2.048,-2.1319,-2.2851,-2.3925,0.0,-2.5148,0.0,-2.6418,0.0,0.0,0.0,0.0,-3.0624,-3.3457,-3.4551,-3.5625,-3.5996,-3.582,0.0,-3.2381,0.0,0.0,0.0,0.0,0.0,0.0,0.0,0.0,0.0,0.0,0.0,0.0,0.0,-1.907,0.0,-1.91,0.0,0.0,0.0,0.0,0.0,0.0,0.0,0.0,0.0,0.0,0.0,0.0,0.0,0.0,0.0,0.0,0.0,0.0,0.0,-3.83,-3.804,-3.9317,-3.9295,-3.9222,-3.9239,-3.9517,-3.9984,-4.0614,-4.1287,-4.2081,-4.3015,-4.3107,-4.3245,-4.3456,-4.3644,-4.3629,-4.3431,-4.3603,-4.3451,-4.3123,-4.2917,-4.2817,-4.2875,-4.2903,-4.3439,-4.4152,-4.4505,-4.4611,-4.4647,-1.632,0.0,0.0,0.0,-1.7479,-1.7973,-1.821,-1.8435,0.0,0.0,0.0,0.0,-2.1735,-2.3263,0.0,0.0,-2.7442,-2.7462,0.0,0.0,-2.4822,0.0,0.0,0.0,0.0,-2.1037,-2.0334,-2.0328,-2.0385,-2.0424,-2.0391,-2.0465,-2.1519,-2.3359,0.0,-2.5442,-2.7284,0.0,0.0,-2.6685,-2.858,-2.8637,-2.8112,-3.3066,-3.5391,-3.5996,-3.5996,-3.5996,-3.5897,-3.5175,-3.2439,0.0,-3.2922,0.0,0.0,0.0,0.0,0.0,-2.2076,0.0,0.0,0.0,0.0,0.0,0.0,0.0,0.0,0.0,0.0,0.0,0.0,0.0,0.0,-1.8564,0.0,-2.0941,0.0,0.0,0.0,0.0,0.0,0.0,0.0,0.0,0.0,-3.8179,-3.8249,-3.8662,-3.9564,-3.9365,-3.9339,-3.9496,-3.9276,-3.9491,-4.0285,-4.0502,-4.1297,-4.2669,-4.2816,-4.3157,-4.3646,-4.3892,-4.3832,-4.3569,-4.3569,-4.3481,-4.3376,-4.3087,-4.2922,-4.2772,-4.2462,-4.2912,-4.374,-4.3792,-4.3862,-4.397,-1.7823,-1.7835,0.0,0.0,0.0,-1.8165,0.0,0.0,0.0,0.0,0.0,0.0,0.0,0.0,0.0,0.0,0.0,-3.5458,-3.207,0.0,-2.9149,0.0,0.0,-2.2714,0.0,0.0,-2.0394,-2.0399,-2.0449,-2.0469,-2.0391,-2.0471,-2.0543,-2.0739,-2.3274,-2.4458,-2.4699,-2.7225,-2.9679,-3.187,-3.1945,-3.3445,-3.539,0.0,-3.3848,-3.5996,-3.5996,0.0,0.0,-3.3078,-3.2124,0.0,0.0,0.0,0.0,0.0,0.0,0.0,0.0,0.0,0.0,-1.7841,0.0,0.0,0.0,0.0,-1.6865,0.0,0.0,0.0,0.0,0.0,-1.7602,-1.763,-1.7671,0.0,0.0,0.0,0.0,0.0,0.0,0.0,0.0,0.0,0.0,-3.4555,-3.4873,-3.6239,-3.9432,-3.9596,-3.9546,-3.9488,-3.9507,-3.941,-3.9248,-4.0149,-4.0989,-4.1772,-4.2526,-4.3346,-4.4184,-4.4055,-4.4005,-4.3974,-4.3974,-4.3744,-4.3406,-4.3406,-4.3141,-4.281,-4.281,-4.2577,-4.2335,-4.2864,-4.3261,-4.3674,0.0,0.0,0.0,0.0,0.0,0.0,0.0,-1.9806,0.0,0.0,0.0,0.0,0.0,-3.0735,-3.258,0.0,0.0,-3.5019,-3.382,-3.0804,0.0,0.0,0.0,-2.2011,0.0,0.0,0.0,0.0,-2.0491,-2.0484,-2.0476,-2.0486,-2.0189,-1.9782,0.0,-2.5034,0.0,0.0,0.0,0.0,0.0,-3.2301,-3.2773,0.0,0.0,-3.6005,-3.6005,-3.6005,0.0,-3.4986,-3.3539,-3.2251,-3.3124,-3.1638,-2.9745,-3.0567,-2.9826,0.0,0.0,0.0,-2.6898,-2.1489,0.0,0.0,0.0,0.0,0.0,0.0,0.0,0.0,0.0,0.0,-1.7338,-1.6815,-1.6685,-1.6458,0.0,0.0,0.0,0.0,0.0,0.0,0.0,0.0,0.0,-3.3725,-3.6393,-3.8437,-3.9545,-3.9602,-3.9571,-3.9507,-3.9507,-3.9462,-3.9328,-3.9562,-4.0095,-4.0924,-4.1667,-4.2515,-4.3346,-4.3874,-4.4135,-4.4135,-4.4135,-4.4005,-4.3809,-4.3809,-4.3712,-4.356,-4.3283,-4.3283,-4.332,-4.2723,-4.2409,-4.2361,-1.8852,0.0,0.0,0.0,0.0,0.0,0.0,0.0,0.0,0.0,-2.6022,0.0,-3.0729,0.0,-3.3544,0.0,-3.5917,-3.5917,-3.4686,-3.2551,0.0,-3.0804,-2.6194,0.0,0.0,0.0,0.0,0.0,0.0,-1.9873,-1.9569,-1.9572,-1.9275,-1.8846,0.0,-2.3943,-2.7146,0.0,-3.1519,0.0,0.0,-3.3176,0.0,0.0,-3.5247,-3.4351,0.0,-3.5999,-3.6005,-3.5996,-3.4881,-3.3788,-3.5467,-3.3729,-3.1368,-3.3007,-3.1934,-3.004,-2.9377,-2.9982,0.0,-2.4481,-2.4843,0.0,-2.0068,0.0,0.0,0.0,0.0,0.0,0.0,0.0,-1.6827,-1.751,-1.659,-1.5586,0.0,-1.4995,0.0,0.0,0.0,0.0,0.0,0.0,-3.0227,-3.3178,-3.5882,-3.8037,0.0,0.0,-3.9571,-3.9488,-3.9488,-3.9444,-3.9328,-3.9256,-3.963,-4.0458,-4.1258,-4.2087,-4.2917,-4.3793,-4.4184,-4.4184,-4.4135,-4.4085,-4.4005,-4.4005,-4.4005,-4.3955,-4.3693,-4.3693,-4.366,-4.2772,-4.2239,-4.2097,0.0,0.0,0.0,0.0,-1.9032,0.0,0.0,0.0,-2.2692,0.0,-2.7338,-2.9461,-3.2057,-3.5307,-3.6955,-3.6132,-3.838,0.0,-3.5139,-3.4821,0.0,0.0,-3.0975,-3.0332,-3.2126,0.0,0.0,0.0,0.0,0.0,-1.7967,-1.791,-1.7889,-1.7833,-1.7948,0.0,-2.693,-2.6978,-3.0484,-3.5991,-3.5991,-3.5913,-3.5818,-3.5948,-3.3895,-3.1399,-3.4781,-3.5991,-3.5991,-3.5991,-3.5991,-3.5991,-3.5991,-3.5991,-3.5991,-3.5991,-3.5991,-3.5288,-3.1953,-3.1055,-3.0228,-2.6723,0.0,0.0,0.0,0.0,-2.2246,0.0,0.0,0.0,0.0,0.0,0.0,-1.9257,-1.7083,-1.4998,-1.4998,0.0,0.0,0.0,0.0,0.0,0.0,-2.1123,-2.4591,-3.2444,-3.325,-3.5184,0.0,0.0,-3.9402,-3.9495,-3.9495,-3.9399,-3.921,-3.9183,-3.9565,-4.0346,-4.1212,-4.2042,-4.2861,-4.3718,-4.4177,-4.4184,-4.4085,-4.4005,-4.4005,-4.4005,-4.4005,-4.4005,-4.4005,-4.3777,-4.3371,-4.2959,-4.281,-4.281,-1.7089,-1.7466,-1.7966,0.0,-1.8208,-1.8271,0.0,0.0,0.0,0.0,-3.1903,-3.4991,-3.8252,-3.9422,-3.99,-3.9681,-4.0291,0.0,0.0,0.0,0.0,-3.799,-3.2506,-3.0565,-3.3004,-2.6733,0.0,-2.4061,0.0,0.0,-1.8846,-1.8208,-1.7547,-1.6963,0.0,0.0,-2.6074,-2.6724,-3.0482,-3.5991,-3.5991,-3.4839,0.0,0.0,-3.4256,-3.216,-3.4995,-3.5991,-3.5991,-3.5991,-3.5991,-3.5991,-3.5991,-3.5991,-3.5991,-3.5991,-3.5991,-3.5796,-3.4917,-3.4664,-3.3796,-3.0214,-2.979,-2.9421,0.0,0.0,0.0,0.0,0.0,0.0,0.0,0.0,0.0,-1.6561,-1.5557,-1.5006,0.0,0.0,0.0,-1.5076,0.0,0.0,0.0,-2.1513,-2.5622,-2.7747,-3.1259,-3.4858,-3.8359,0.0,0.0,-3.942,-3.9444,-3.9346,-3.921,-3.9156,-3.924,-3.9435,-4.0318,-4.1222,-4.2118,-4.2911,-4.3639,-4.4255,-4.4255,-4.4147,-4.4005,-4.4005,-4.4005,-4.4005,-4.4005,-4.3923,-4.3777,-4.3069,-4.281,-4.281,-1.7331,0.0,0.0,-1.7907,0.0,0.0,-2.0588,0.0,0.0,-2.9939,-3.2619,0.0,-3.8285,-4.0027,-4.096,-4.0967,-4.0969,0.0,-3.9322,0.0,0.0,-3.8005,-3.5394,-3.4472,-3.5604,-3.0351,0.0,-2.5541,0.0,0.0,-1.7481,-1.6988,-1.6499,-1.6052,0.0,-1.9271,-2.3651,-2.7175,-3.0618,-3.3883,-3.5798,0.0,0.0,-3.6423,-3.6228,-3.5132,-3.6618,-3.6891,-3.6638,-3.7009,-3.7145,-3.7145,-3.7145,-3.7145,-3.7067,-3.6677,-3.6579,-3.6482,-3.6111,-3.5991,-3.549,-3.3322,-3.3134,-3.2628,-2.9421,-2.8727,-2.8836,0.0,0.0,0.0,0.0,0.0,0.0,0.0,0.0,0.0,0.0,0.0,0.0,0.0,-1.6692,0.0,0.0,-2.1368,-2.5603,-2.5928,-2.8875,-3.1486,0.0,0.0,0.0,-3.6742,-3.8534,-3.9373,-3.921,-3.9156,-3.9129,-3.9101,-4.003,-4.0933,-4.1829,-4.2651,-4.3492,-4.4344,-4.4314,-4.4226,-4.4104,-4.4104,-4.4036,-4.4005,-4.4005,-4.4005,-4.3942,-4.3474,-4.3318,-4.3318,0.0,0.0,0.0,0.0,0.0,0.0,0.0,-2.4005,0.0,-3.0574,0.0,-3.3906,-3.6135,-3.9093,-4.0907,-4.0907,0.0,-4.0011,-3.7656,-3.97,-3.9657,-3.6599,-3.8617,-3.9453,-3.8691,-3.5213,0.0,0.0,0.0,0.0,-1.5488,-1.5368,-1.5306,0.0,0.0,0.0,0.0,-2.8053,-3.1128,-3.199,-3.5779,-3.7438,-3.7692,-3.8355,-3.8671,-3.8765,-3.8765,-3.8199,-3.7594,-3.8336,-3.8593,-3.8593,-3.8593,-3.8593,-3.8456,-3.7692,-3.7477,-3.7301,-3.656,-3.6323,-3.6259,-3.5987,-3.5871,-3.5191,-3.2818,-3.1641,-3.1222,-3.1821,-2.9074,-2.8122,0.0,0.0,0.0,0.0,0.0,0.0,0.0,0.0,0.0,0.0,0.0,0.0,0.0,0.0,-2.4429,-2.503,-2.5954,-2.6874,0.0,0.0,0.0,-3.4102,-3.7622,-3.9399,-3.9229,0.0,-3.9183,-3.9129,-3.9928,-4.0849,-4.1829,-4.2511,-4.338,-4.4354,-4.4314,-4.4255,-4.4184,-4.4184,-4.4135,-4.4005,-4.4005,-4.4005,-4.4005,-4.4005,-4.4005,-4.4036,0.0,0.0,0.0,0.0,0.0,-2.5842,-2.8151,-3.0591,-3.2811,-3.4639,-3.7434,-3.9421,-3.9937,-4.0529,-4.0907,-4.0907,-4.0906,0.0,0.0,0.0,0.0,-4.013,-3.9908,-3.9726,-3.957,-3.5525,-3.1619,0.0,0.0,0.0,-1.6441,-1.5666,0.0,0.0,0.0,0.0,-2.5055,-2.9086,0.0,-3.6228,-3.6989,-3.8121,-3.9312,-3.8785,-3.9,-3.9585,-3.9585,-3.9078,-3.8394,-3.8553,-3.8593,-3.8593,-3.8593,-3.8593,-3.8573,-3.8414,-3.8375,-3.8336,-3.818,-3.8089,-3.7985,-3.7666,-3.7525,-3.7286,-3.6556,-3.6236,-3.597,-3.5458,-3.4756,-3.3561,-3.1269,0.0,0.0,0.0,0.0,0.0,0.0,0.0,0.0,0.0,0.0,0.0,0.0,0.0,0.0,0.0,0.0,0.0,0.0,0.0,0.0,0.0,-3.9146,0.0,0.0,0.0,-3.9183,-3.9183,-3.9305,-4.0188,-4.1801,-4.1894,-4.276,-4.4244,-4.4285,-4.4255,-4.4184,-4.4184,-4.4135,-4.4005,-4.4005,-4.4005,-4.4005,-4.4005,-4.4055,-4.4165,0.0,0.0,0.0,0.0,0.0,0.0,0.0,-3.559,0.0,-3.5968,-3.7191,-3.822,-3.8248,-3.983,-4.0907,-4.0907,-4.0907,-4.0907,-4.0907,-4.0932,-4.0957,-4.0957,-4.0599,0.0,-4.0423,-3.7988,-3.414,-2.8867,0.0,0.0,-1.6626,0.0,0.0,-1.5433,0.0,-1.9882,0.0,0.0,0.0,-3.4839,-3.7516,-3.9078,-3.9819,-3.9878,-4.0132,-4.0464,-4.0464,-4.0229,-3.9897,-3.9897,-3.9897,-3.9897,-3.9897,-3.9897,-3.98,-3.9351,-3.9214,-3.9136,-3.871,-3.8557,-3.8433,-3.817,-3.8005,-3.7844,-3.7619,-3.7471,-3.7277,-3.6898,-3.6822,-3.5533,-3.1381,-2.7532,0.0,0.0,0.0,0.0,0.0,0.0,0.0,0.0,0.0,0.0,0.0,0.0,0.0,0.0,0.0,0.0,0.0,0.0,0.0,0.0,0.0,0.0,0.0,0.0,0.0,-3.921,-3.9156,-4.0095,-4.1856,-4.1782,-4.2669,-4.4314,-4.4344,-4.4285,-4.4184,-4.4135,-4.4055,-4.4005,-4.4085,-4.4085,-4.4104,-4.4147,-4.4195,-4.4244,0.0,-2.1475,0.0,0.0,-2.9489,0.0,-3.5394,-3.8703,-3.9927,-3.7249,-3.688,-3.688,-3.688,-3.9286,-4.0907,-4.0907,-4.0907,-4.0907,-4.0907,-4.0906,-4.0915,-4.0915,-4.0994,-4.1031,-4.1019,-4.041,-3.6972,0.0,0.0,0.0,0.0,0.0,0.0,0.0,0.0,0.0,0.0,0.0,-3.2904,-3.4095,-3.8157,-3.9917,-4.0151,-4.0834,-4.1108,-4.1108,-4.1108,-4.1108,-4.1108,-4.1108,-4.1108,-4.1108,-4.1108,-4.1108,-4.0971,-4.0288,-4.0073,-3.9937,-3.9309,-3.9076,-3.8979,-3.8777,-3.8612,-3.8444,-3.8276,-3.8099,-3.7925,-3.7714,-3.7523,-3.614,-3.1967,-2.9121,0.0,0.0,0.0,0.0,0.0,0.0,0.0,0.0,0.0,0.0,0.0,0.0,0.0,0.0,0.0,0.0,0.0,0.0,0.0,0.0,0.0,-3.8233,-3.8084,0.0,-3.9399,-3.9256,-3.9183,-4.0122,-4.1892,-4.181,-4.2726,-4.4383,-4.4383,-4.4344,-4.4214,-4.4085,-4.4036,-4.4005,-4.4135,-4.4184,-4.4214,-4.4274,-4.4314,-4.4314,0.0,0.0,0.0,0.0,0.0,0.0,0.0,-3.8703,-4.0791,-4.0461,-4.0422,-4.0422,-4.0422,-4.0713,-4.0907,-4.0907,-4.0907,-4.0907,-4.0907,-4.0964,-4.0981,-4.0981,-4.1055,-4.1093,-4.1094,-4.1027,-3.8756,0.0,0.0,0.0,0.0,0.0,0.0,0.0,0.0,0.0,0.0,-3.2971,-3.5522,-3.9117,-3.9605,-4.0268,-4.0991,-4.1069,-4.1108,-4.1108,-4.1108,-4.1108,-4.1108,-4.1108,-4.1108,-4.1108,-4.1108,-4.1108,-4.1088,-4.0991,-4.0971,-4.0968,-4.089,-4.0822,-4.0721,-4.0529,-4.0452,-4.0345,-4.0038,-3.9947,-3.9681,-3.8779,-3.794,-3.6121,-3.197,-3.3373,-3.3903,0.0,0.0,0.0,0.0,0.0,0.0,0.0,0.0,0.0,0.0,0.0,0.0,0.0,0.0,0.0,0.0,0.0,0.0,-3.325,0.0,-3.3918,-3.3761,-3.7524,-3.9418,-3.9373,-3.9202,-4.0095,-4.1911,-4.1773,-4.2659,-4.4314,-4.4354,-4.4373,-4.4285,-4.4214,-4.4104,-4.4005,-4.4135,-4.4184,-4.4214,-4.4274,-4.4344,-4.4383,0.0,0.0,0.0,0.0,0.0,0.0,0.0,-4.0062,-4.0954,-4.0954,-4.0917,-4.0917,-4.0974,-4.0917,-4.0907,-4.0907,-4.0907,-4.0907,-4.0907,-4.0924,-4.0964,-4.1007,-4.1037,-4.1058,-4.1094,-4.1092,-3.9253,0.0,0.0,0.0,0.0,0.0,0.0,0.0,0.0,-3.0484,-3.3578,-3.615,-3.8238,-3.9858,-4.0366,-4.0795,-4.1108,-4.1108,-4.1108,-4.1108,-4.1108,-4.1108,-4.1108,-4.1108,-4.1108,-4.1108,-4.1108,-4.1108,-4.1108,-4.1108,-4.1101,-4.1109,-4.1096,-4.1039,-4.0984,-4.0896,-4.0798,-4.0623,-4.0383,-4.0267,-4.0043,-3.9518,-3.8755,-3.7656,-3.6007,-3.4756,-3.3902,0.0,0.0,0.0,0.0,0.0,0.0,0.0,0.0,0.0,0.0,0.0,0.0,0.0,0.0,0.0,0.0,0.0,0.0,-3.3325,0.0,-3.7047,-3.6926,-3.8621,-3.9399,-3.9301,-3.9202,-4.0095,-4.1829,-4.1745,-4.2659,-4.4285,-4.4304,-4.4255,-4.4244,-4.4214,-4.4135,-4.4005,-4.4195,-4.4244,-4.4214,-4.4274,-4.4344,-4.4383,-3.1999,0.0,-3.3274,0.0,-3.7305,-3.8121,-4.0567,-4.0974,-4.101,-4.0991,-4.0954,-4.0945,-4.0982,-4.0945,-4.0907,-4.0907,-4.0907,-4.0907,-4.0907,-4.0921,-4.0954,-4.0998,-4.1027,0.0,-4.1092,-4.1091,-3.9918,-3.7493,-3.3143,0.0,0.0,0.0,0.0,0.0,-3.2708,-3.448,-3.5854,-3.8902,-4.0171,-4.0249,-4.0854,-4.1108,-4.1108,-4.1108,-4.1108,-4.1108,-4.1108,-4.1108,-4.1108,-4.1108,-4.1108,-4.1108,-4.1108,-4.1104,-4.1101,-4.1101,-4.1085,-4.1061,-4.107,-4.1032,-4.0988,-4.098,-4.0859,-4.0706,-4.0438,-4.0315,-4.0195,-3.9935,-3.9456,-3.8982,-3.8736,-3.6292,-3.4736,-3.5969,0.0,0.0,0.0,0.0,0.0,0.0,-3.1385,-2.9878,-2.9737,0.0,0.0,0.0,0.0,0.0,0.0,0.0,0.0,0.0,0.0,0.0,0.0,-3.8845,-3.9399,-3.921,-3.9183,-4.0086,-4.182,-4.2248,-4.3154,-4.4285,-4.4244,-4.4214,-4.4214,-4.4214,-4.4165,-4.4097,-4.4285,-4.4285,-4.4274,-4.4344,-4.4401,-4.4411,-3.5076,-3.5737,-3.6825,-4.0247,-4.0849,-4.0878,-4.0982,-4.101,-4.0991,-4.0996,-4.0999,-4.1002,-4.101,-4.0945,-4.0907,-4.0907,-4.0907,-4.0907,-4.0907,-4.0959,-4.0991,0.0,0.0,-4.1091,-4.1111,-4.1111,-4.1072,-4.103,0.0,0.0,-3.4485,0.0,-3.0468,-3.4619,-3.466,-3.7038,-4.101,-4.1049,-4.1088,-4.1088,-4.1108,-4.1108,-4.1108,-4.1108,-4.1108,-4.1108,-4.1108,-4.1108,-4.1108,-4.1108,-4.1108,-4.1108,-4.1108,-4.1094,-4.1096,-4.1096,-4.1056,-4.1007,-4.1003,-4.0996,-4.0988,-4.0917,-4.0907,-4.0809,-4.0487,-4.0392,-4.0296,-3.9977,-3.9889,-3.9646,-3.885,-3.8662,-3.8073,-3.6383,0.0,0.0,0.0,0.0,0.0,0.0,-3.0018,-2.9897,-2.9626,0.0,0.0,0.0,0.0,0.0,0.0,0.0,0.0,-3.3381,-3.3456,0.0,-3.3276,-3.7356,-3.9328,-3.921,-3.9129,-4.0058,-4.1857,-4.3501,-4.4266,-4.4285,-4.4244,-4.4244,-4.4285,-4.4214,-4.4244,-4.4314,-4.4354,-4.4383,-4.443,-4.4468,-4.4515,-4.4515,-3.914,-3.9342,-3.9692,-4.0788,-4.1421,-4.1615,-4.1077,-4.1494,-4.1669,-4.1073,-4.1007,-4.0999,-4.101,-4.0945,-4.0907,0.0,-4.0907,-4.0915,0.0,-4.098,-4.1016,-4.1071,-4.1094,-4.1107,-4.1111,-4.1108,-4.1108,-4.1108,0.0,0.0,0.0,-3.4178,-3.5502,-3.9064,-3.9058,-3.9813,-4.1097,-4.109,-4.109,-4.1097,-4.1097,-4.1104,-4.1108,-4.1108,-4.1108,-4.1108,-4.1108,-4.1108,-4.1108,-4.1094,-4.1105,-4.1085,-4.1047,-4.1067,-4.1091,-4.1106,-4.1052,-4.0991,-4.0996,-4.0971,-4.0926,-4.0907,-4.0907,-4.0849,-4.0649,-4.0431,-4.0176,-3.9935,-3.9889,-3.9835,-3.957,-3.9575,-3.9214,-3.8073,-3.747,0.0,0.0,0.0,0.0,0.0,-3.3372,-3.328,0.0,-3.3752,0.0,0.0,0.0,0.0,0.0,0.0,0.0,0.0,-3.6141,0.0,-3.743,-3.8738,-3.9301,-3.9129,-3.9101,-4.0002,-4.1733,-4.345,-4.4244,-4.4244,-4.4214,-4.4244,-4.4285,-4.4304,-4.4285,-4.4314,-4.4314,-4.4314,-4.4274,-4.4158,-4.4207,-4.4304,-4.1509,-4.1743,-4.1949,-4.1945,-4.2344,-4.2528,-4.203,-4.2135,-4.2105,-4.1524,-4.1182,-4.0988,-4.0974,-4.0936,0.0,-4.0907,-4.0924,-4.0949,-4.0972,-4.1003,-4.1049,-4.1051,-4.1093,-4.1105,-4.1111,0.0,0.0,-4.1104,-3.8966,-3.7917,-3.7917,-3.7919,-3.9047,-4.1104,-4.1097,-4.109,-4.1105,-4.1096,-4.11,-4.1094,-4.1094,-4.1101,-4.1108,-4.1104,-4.1104,-4.1108,-4.1104,-4.1101,-4.1094,-4.11,-4.1086,-4.1056,-4.1013,-4.1007,-4.1033,-4.1071,-4.1011,-4.0952,-4.0952,-4.0926,-4.0907,-4.0907,-4.0907,-4.0849,-4.0649,-4.0383,-4.0158,-4.0039,-3.9935,-3.9933,-3.9998,-3.9996,-3.9688,-3.8852,-3.8305,-3.7584,-3.6368,0.0,0.0,0.0,0.0,0.0,0.0,-3.4356,0.0,0.0,0.0,0.0,0.0,0.0,0.0,-3.5747,-3.822,0.0,-3.9391,-3.9346,-3.9248,-3.9101,-3.9733,-4.0754,-4.2092,-4.349,-4.4135,-4.4184,-4.4184,-4.4244,-4.4344,-4.4344,-4.4344,-4.4344,-4.4344,-4.4285,-4.4244,-4.4147,-4.4165,-4.4244,-4.2377,-4.2983,0.0,0.0,-4.3549,0.0,-4.3529,-4.2866,-4.2349,-4.2226,-4.1505,-4.098,-4.0917,-4.0907,-4.0907,-4.0907,0.0,0.0,0.0,-4.1023,-4.1072,-4.1019,-4.1072,-4.1108,-4.1108,-4.1108,-4.1104,-4.1094,-4.1094,-4.1094,-4.1094,-4.1101,-4.1101,-4.1094,-4.1094,-4.1105,-4.1091,-4.1091,-4.11,-4.1094,-4.1094,-4.1097,-4.1108,-4.1097,-4.1097,-4.1104,-4.1097,-4.1105,-4.1091,-4.1091,-4.105,-4.1007,-4.0986,-4.0957,-4.0904,-4.0968,-4.0943,-4.0907,-4.0907,-4.0907,-4.0907,-4.0907,-4.0907,-4.0819,-4.0482,-4.0315,-4.0233,-4.0195,-4.004,-3.9977,-4.0139,-4.0039,-3.9665,-3.8906,-3.8738,-3.8169,-3.6576,0.0,0.0,0.0,0.0,0.0,0.0,-3.2656,-3.4141,0.0,0.0,0.0,0.0,0.0,-3.5302,-3.9445,-3.952,-3.9469,-3.9391,-3.9256,-3.9193,-3.9212,-4.0828,-4.2017,-4.2835,-4.3633,-4.4085,-4.4184,-4.4214,-4.4285,-4.4383,-4.4383,-4.4383,-4.4383,-4.4383,-4.4354,-4.4285,-4.4285,-4.4285,-4.4285,0.0,0.0,-4.3566,-4.35,-4.4045,-4.4287,-4.3664,-4.3363,-4.2974,-4.2285,-4.1496,-4.0963,-4.0907,-4.0907,-4.0917,-4.0974,-4.0943,-4.0933,-4.0979,-4.101,-4.1032,-4.1068,-4.1097,-4.1108,-4.1108,-4.1108,-4.1104,-4.1094,-4.1094,-4.1109,-4.11,-4.11,-4.11,-4.11,-4.11,-4.1091,-4.11,-4.11,-4.1106,-4.11,-4.11,-4.1105,-4.1097,-4.1094,-4.1105,-4.1091,-4.1109,-4.1072,-4.1019,-4.1019,-4.1,-4.0984,-4.0943,-4.0907,-4.0888,-4.0917,-4.0898,-4.0898,-4.0898,-4.0888,-4.0907,-4.0907,-4.0907,-4.0859,-4.0662,-4.061,-4.0511,-4.025,-4.0158,-4.01,-3.9998,-3.9933,-3.9854,-3.9665,-3.9138,-3.8627,-3.8169,-3.7583,0.0,0.0,-3.5951,-3.5987,-3.6157,-3.668,-3.6088,0.0,0.0,0.0,0.0,-3.3848,-3.5214,-3.9313,-3.9444,-3.9373,-3.9256,-3.9229,-3.9491,-4.0085,-4.1107,-4.2017,-4.2816,-4.3732,-4.4184,-4.4184,-4.4255,-4.4314,-4.4383,-4.4383,-4.4383,-4.4383,-4.4344,-4.4285,-4.4214,-4.4116,-4.4067,-4.4067,-4.3984,-4.4433,-4.4696,-4.4637,-4.5026,-4.5075,-4.4258,-4.3819,-4.3227,-4.2324,-4.1505,-4.096,-4.0917,-4.0921,-4.096,-4.1006,-4.0964,-4.0954,-4.1007,-4.1038,-4.1054,-4.1107,-4.1097,-4.1108,-4.1108,-4.1108,-4.1101,-4.1105,-4.11,-4.1096,-4.1106,-4.1091,-4.1091,-4.1091,-4.1091,-4.1111,-4.1106,-4.1106,-4.1091,-4.11,-4.1096,-4.11,-4.1094,-4.11,-4.1086,-4.1045,-4.1056,-4.1013,-4.096,-4.096,-4.0957,-4.0943,-4.0917,-4.0908,-4.0888,-4.0849,-4.0839,-4.0848,-4.0848,-4.0888,-4.0888,-4.0907,-4.0907,-4.0859,-4.073,-4.0623,-4.0535,-4.045,-4.0302,-4.0196,-4.0139,-4.0061,-4.0039,-4.0039,-3.8061,-3.7053,-3.8575,-3.6749,0.0,-3.783,-3.8017,-3.813,-3.8447,-3.8833,-3.8086,-3.5781,0.0,0.0,-3.5997,-3.5997,-3.7044,-3.9317,-3.9346,-3.9256,-3.921,-3.9574,-4.0132,-4.0958,-4.1757,-4.2575,-4.3373,-4.3949,-4.4214,-4.4244,-4.4314,-4.4383,-4.4458,-4.4458,-4.4411,-4.4383,-4.4314,-4.4274,-4.4184,-4.4055,-4.4005,-4.4005,-4.4802,-4.5531,-4.5997,-4.6007,-4.591,-4.559,-4.489,-4.3994,-4.31,-4.2304,-4.1502,-4.0984,-4.0915,-4.0968,-4.0994,-4.0994,-4.1003,-4.1003,-4.1003,-4.1048,-4.1093,-4.1092,-4.1099,-4.1104,-4.1104,-4.1104,-4.1094,-4.1091,-4.11,-4.1095,-4.1095,-4.11,-4.1106,-4.1106,-4.1111,-4.1091,-4.1091,-4.1091,-4.11,-4.1109,-4.1096,-4.1096,-4.1081,-4.1081,-4.1033,-4.0993,-4.1006,-4.0957,-4.0896,-4.0904,-4.0906,-4.0898,-4.0898,-4.0908,-4.0897,-4.0837,-4.0807,-4.0807,-4.0807,-4.0837,-4.0907,-4.0898,-4.0907,-4.0869,-4.0773,-4.0604,-4.0516,-4.0681,-4.0481,-4.03,-4.0377,-4.0317,-4.0003,-3.9373,-3.6759,-3.5577,-3.7844,0.0,-3.5053,-3.8515,-3.889,-3.9131,-3.975,-3.9735,-3.9642,-3.9526,-3.9483,-3.9399,-3.921,-3.921,-3.9256,-3.9346,-3.9229,-3.9239,-3.9388,-4.0058,-4.0847,-4.1776,-4.2463,-4.3225,-4.4036,-4.4165,-4.4244,-4.4314,-4.4401,-4.4458,-4.4515,-4.4515,-4.4458,-4.4383,-4.4314,-4.4274,-4.4184,-4.4055,-4.4005,-4.4005,-4.5607,-4.5959,-4.6026,-4.6066,-4.5493,-4.4929,-4.482,-4.345,-4.2363,-4.2226,-4.1496,-4.0996,-4.0993,-4.0992,-4.0992,-4.1001,-4.1004,-4.099,-4.0996,-4.1013,-4.1043,-4.1094,-4.1105,-4.11,-4.11,-4.11,-4.1091,-4.11,-4.1095,-4.1109,-4.1091,-4.1097,-4.1097,-4.1097,-4.1095,-4.11,-4.11,-4.11,-4.1106,-4.1096,-4.1106,-4.1064,-4.1026,-4.102,-4.0968,-4.0927,-4.098,-4.0926,-4.0819,-4.0887,-4.0897,-4.0907,-4.0907,-4.0907,-4.0897,-4.0897,-4.0848,-4.0807,-4.0792,-4.0846,-4.0907,-4.0907,-4.0908,-4.0888,-4.0869,-4.0829,-4.0798,-4.0718,-4.0668,-4.0582,-4.0442,-4.0377,-3.9176,-3.5557,-3.744,-3.8297,-3.5212,0.0,-3.926,-3.9891,-3.9829,-3.9757,-3.987,-3.9712,-3.9618,-3.9575,-3.9483,-3.9346,-3.921,-3.921,-3.9183,-3.9147,-3.9129,-3.9482,-4.0225,-4.0327,-4.1144,-4.2612,-4.2742,-4.3274,-4.4184,-4.4255,-4.4314,-4.4383,-4.4458,-4.4487,-4.4515,-4.4515,-4.4458,-4.4383,-4.4314,-4.4274,-4.4184,-4.4055,-4.4005,-4.4005,-4.5064,-4.5376,-4.5366,-4.5395,-4.5074,-4.4509,-4.3592,-4.2766,-4.2085,-4.1617,-4.1234,-4.0992,-4.1007,-4.1025,-4.1035,-4.0996,-4.1027,-4.1049,-4.1051,-4.1019,-4.1038,-4.1096,-4.1091,-4.1091,-4.1091,-4.1106,-4.11,-4.1095,-4.1109,-4.1097,-4.111,-4.111,-4.1097,-4.1103,-4.1095,-4.11,-4.1106,-4.1106,-4.1111,-4.1091,-4.1064,-4.102,-4.1006,-4.0949,-4.0897,-4.0848,-4.0888,-4.0839,-4.0804,-4.0848,-4.0858,-4.0877,-4.0867,-4.0877,-4.0897,-4.0865,-4.0834,-4.0804,-4.0804,-4.0815,-4.0846,-4.0897,-4.0898,-4.0908,-4.0907,-4.0849,-4.0807,-4.0818,-4.0742,-4.0681,-4.0577,-4.0563,-3.9913,-3.7924,-3.7321,0.0,0.0,-3.7179,-3.7702,-3.9928,-4.0019,-3.9867,-3.9804,-3.9689,-3.9551,-3.9452,-3.9362,-3.9256,-3.9156,-3.9156,-3.9129,-3.9101,-3.9547,-3.9974,-4.0401,-4.1256,-4.2073,-4.2816,-4.3243,-4.3683,-4.4104,-4.4226,-4.4314,-4.4344,-4.4458,-4.4515,-4.4515,-4.4515,-4.4458,-4.4383,-4.4314,-4.4274,-4.4184,-4.4055,-4.4005,-4.4005,-4.4228,-4.453,-4.453,-4.451,-4.4351,-4.3798,-4.2494,-4.2124,-4.1758,-4.1081,-4.101,-4.0996,-4.1009,-4.1051,-4.1072,-4.1038,-4.1072,-4.111,-4.111,-4.1051,-4.1046,-4.1106,-4.1106,-4.1106,-4.1106,-4.1095,-4.1109,-4.1109,-4.1097,-4.111,-4.111,-4.111,-4.1097,-4.1109,-4.1109,-4.1095,-4.1111,-4.1081,-4.1081,-4.1086,-4.1013,-4.0984,-4.0964,-4.0897,-4.0839,-4.0804,-4.0796,-4.0792,-4.0808,-4.08,-4.0823,-4.0856,-4.0826,-4.0837,-4.0867,-4.0823,-4.08,-4.08,-4.0804,-4.0792,-4.0812,-4.0867,-4.0897,-4.0888,-4.0898,-4.0828,-4.0784,-4.0869,-4.0828,-4.0742,-4.0742,-4.0742,-4.0432,-3.9433,0.0,0.0,0.0,-3.7128,-3.6728,-3.9865,-4.008,-3.9914,-3.9762,-3.9647,-3.9526,-3.935,-3.9245,-3.9156,-3.9101,-3.9101,-3.9194,-3.9398,-4.0048,-4.0568,-4.094,-4.2184,-4.289,-4.3095,-4.3708,-4.4036,-4.4067,-4.4226,-4.4314,-4.4344,-4.4458,-4.4487,-4.4487,-4.4487,-4.4458,-4.4354,-4.4314,-4.4244,-4.4184,-4.4055,-4.4005,-4.4005,-4.3506,-4.3692,-4.3692,-4.37,-4.3013,-4.2436,-4.2311,-4.1607,-4.1069,-4.1012,-4.0992,-4.0995,-4.0994,-4.106,-4.1097,-4.1086,-4.1103,-4.111,-4.111,-4.1097,-4.1097,-4.1091,-4.1091,-4.1091,-4.1091,-4.1091,-4.1091,-4.1091,-4.111,-4.111,-4.111,-4.111,-4.111,-4.1091,-4.1091,-4.1103,-4.1095,-4.1025,-4.1032,-4.1089,-4.096,-4.0917,-4.0888,-4.0839,-4.0792,-4.0803,-4.0788,-4.0808,-4.0803,-4.0808,-4.08,-4.08,-4.08,-4.0804,-4.0807,-4.0807,-4.0804,-4.0788,-4.0803,-4.0796,-4.08,-4.0807,-4.0848,-4.0888,-4.0898,-4.0878,-4.0898,-4.0907,-4.0878,-4.0898,-4.0898,-4.0898,-3.9587,-3.56,0.0,0.0,-3.5465,-3.7981,-4.0243,-4.0373,-4.0266,-4.01,-3.9892,-3.9647,-3.9502,-3.9502,-3.9245,-3.9101,-3.9101,-3.9101,-3.9472,-4.0271,-4.0364,-4.1107,-4.2612,-4.2742,-4.3169,-4.3912,-4.3968,-4.4116,-4.4285,-4.4285,-4.4373,-4.4487,-4.4487,-4.444,-4.4411,-4.4411,-4.4373,-4.4285,-4.4244,-4.4214,-4.4184,-4.4055,-4.4005,-4.4005,-4.2615,-4.2785,-4.2798,-4.2797,-4.2529,-4.2122,-4.1636,-4.1247,-4.1015,-4.1069,-4.103,-4.1025,-4.1058,-4.1076,-4.1106,-4.1095,-4.1097,-4.111,-4.111,-4.111,-4.111,-4.111,-4.111,-4.1078,-4.1038,-4.1078,-4.1078,-4.1038,-4.1078,-4.111,-4.111,-4.111,-4.111,-4.111,-4.111,-4.1091,-4.1097,-4.1038,-4.1011,-4.1025,-4.0888,-4.0839,-4.0839,-4.0812,-4.0796,-4.079,-4.0803,-4.0803,-4.0803,-4.0803,-4.0808,-4.0788,-4.0796,-4.0788,-4.0792,-4.08,-4.0808,-4.0803,-4.0803,-4.0803,-4.0796,-4.0812,-4.0815,-4.0848,-4.0898,-4.0898,-4.0907,-4.0907,-4.0907,-4.0907,-4.0907,-4.0907,-4.0383,-3.8742,0.0,-4.0325,-3.8694,-3.9758,-4.0623,-4.0423,-4.0283,-4.01,-3.9785,-3.9623,-3.9477,-3.9401,-3.9192,-3.9101,-3.9101,-3.9602,-4.0513,-4.185,-4.1887,-4.2184,-4.2797,-4.328,-4.3708,-4.4005,-4.4005,-4.4085,-4.4244,-4.4285,-4.4344,-4.444,-4.4487,-4.444,-4.4383,-4.4383,-4.4344,-4.4244,-4.4274,-4.4195,-4.4085,-4.4104,-4.4055,-4.4005,-4.1737,-4.188,-4.1892,-4.1865,-4.1894,-4.1736,-4.1167,-4.105,-4.1045,-4.1094,-4.1055,-4.1051,-4.1095,-4.1097,-4.1097,-4.1109,-4.1085,-4.1071,-4.1071,-4.1045,-4.1045,-4.1071,-4.1071,-4.1038,-4.0971,-4.1003,-4.103,-4.0996,-4.1038,-4.1078,-4.111,-4.111,-4.1085,-4.1071,-4.1085,-4.1078,-4.1038,-4.0988,-4.0971,-4.0963,-4.0848,-4.0796,-4.0807,-4.0796,-4.079,-4.079,-4.079,-4.079,-4.079,-4.079,-4.0803,-4.0796,-4.0803,-4.0803,-4.0796,-4.0803,-4.079,-4.079,-4.079,-4.079,-4.0803,-4.0808,-4.0792,-4.0826,-4.0877,-4.0898,-4.0898,-4.0907,-4.0907,-4.0907,-4.0907,-4.0907,-4.0907,-4.0907,-4.0907,-4.0907,-4.0907,-4.0828,-4.0674,-4.0423,-4.0315,-4.012,-3.9785,-3.9599,-3.9458,-3.9376,-3.9192,-3.9212,-3.9491,-4.055,-4.1664,-4.276,-4.3039,-4.3188,-4.3188,-4.3726,-4.4005,-4.4005,-4.4036,-4.4116,-4.4244,-4.4285,-4.4373,-4.444,-4.4487,-4.444,-4.4383,-4.4383,-4.4344,-4.4244,-4.4285,-4.4177,-4.4085,-4.4184,-4.4104,-4.4005,-4.0901,-4.0947,-4.0988,-4.0904,-4.1016,-4.1081,-4.1003,-4.105,-4.111,-4.111,-4.111,-4.111,-4.111,-4.111,-4.111,-4.111,-4.1038,-4.0996,-4.0996,-4.0935,-4.0926,-4.0996,-4.0996,-4.0971,-4.0907,-4.0907,-4.0935,-4.0996,-4.0996,-4.103,-4.111,-4.111,-4.1052,-4.0996,-4.1071,-4.103,-4.0907,-4.0907,-4.0907,-4.0898,-4.0831,-4.0788,-4.0796,-4.0796,-4.079,-4.079,-4.079,-4.079,-4.079,-4.079,-4.079,-4.079,-4.079,-4.079,-4.079,-4.079,-4.079,-4.079,-4.079,-4.079,-4.0803,-4.0808,-4.08,-4.0812,-4.0886,-4.0907,-4.0888,-4.0898,-4.0907,-4.0907,-4.0907,-4.0907,-4.0907,-4.0907,-4.0907,-4.0907,-4.0907,-4.0907,-4.0787,-4.0438,-4.0392,-4.0281,-3.9935,-3.9647,-3.9502,-3.9502,-3.9245,-3.9491,-4.0364,-4.1924,-4.2797,-4.2816,-4.3578,-4.4005,-4.4005,-4.4005,-4.4005,-4.4005,-4.4135,-4.4244,-4.4314,-4.4354,-4.4458,-4.4515,-4.4515,-4.444,-4.4383,-4.4383,-4.4373,-4.4285,-4.4285,-4.4274,-4.4184,-4.4184,-4.4104,-4.4005,-4.0893,-4.0916,-4.0916,-4.0905,-4.0929,-4.0945,-4.0937,-4.0984,-4.103,-4.103,-4.1071,-4.111,-4.111,-4.1064,-4.1045,-4.1104,-4.1038,-4.0996,-4.0996,-4.0935,-4.0898,-4.0859,-4.0888,-4.0907,-4.0839,-4.0888,-4.0898,-4.0859,-4.0917,-4.0952,-4.103,-4.098,-4.098,-4.0996,-4.098,-4.0935,-4.0907,-4.0849,-4.0828,-4.0828,-4.0808,-4.0803,-4.0808,-4.0803,-4.079,-4.079,-4.079,-4.079,-4.079,-4.079,-4.079,-4.079,-4.079,-4.079,-4.079,-4.079,-4.079,-4.079,-4.079,-4.079,-4.0803,-4.0803,-4.0808,-4.08,-4.0843,-4.0876,-4.0907,-4.0898,-4.0898,-4.0907,-4.0907,-4.0907,-4.0907,-4.0907,-4.0907,-4.0907,-4.0907,-4.0907,-4.0839,-4.0636,-4.0487,-4.0332,-4.0139,-3.9743,-3.9502,-3.9502,-3.9805,-4.0606,-4.1999,-4.2537,-4.3058,-4.3615,-4.3875,-4.4005,-4.4005,-4.4005,-4.4005,-4.4005,-4.4135,-4.4244,-4.4314,-4.4354,-4.4458,-4.4515,-4.4515,-4.444,-4.4383,-4.4383,-4.4373,-4.4314,-4.4354,-4.4285,-4.4214,-4.4244,-4.4165,-4.4005,-4.085,-4.0863,-4.0849,-4.0857,-4.0878,-4.0878,-4.0859,-4.0917,-4.0971,-4.0971,-4.0996,-4.1023,-4.1023,-4.0988,-4.098,-4.1023,-4.0971,-4.0917,-4.0917,-4.0888,-4.0826,-4.0792,-4.0846,-4.0846,-4.0792,-4.0846,-4.0837,-4.0807,-4.0839,-4.0888,-4.0971,-4.0917,-4.0917,-4.0926,-4.0907,-4.0888,-4.0867,-4.0818,-4.0796,-4.0812,-4.0796,-4.079,-4.079,-4.079,-4.079,-4.079,-4.079,-4.079,-4.079,-4.079,-4.079,-4.079,-4.079,-4.079,-4.079,-4.079,-4.079,-4.079,-4.079,-4.079,-4.079,-4.079,-4.0803,-4.0808,-4.0792,-4.0826,-4.0877,-4.0898,-4.0898,-4.0907,-4.0907,-4.0907,-4.0878,-4.0828,-4.0828,-4.0828,-4.0828,-4.0828,-4.0765,-4.059,-4.0472,-4.0315,-4.01,-3.9721,-3.9583,-3.9836,-4.0794,-4.1757,-4.2742,-4.3095,-4.3503,-4.3986,-4.4005,-4.4005,-4.4005,-4.4005,-4.4005,-4.4005,-4.4135,-4.4244,-4.4314,-4.4354,-4.4458,-4.4515,-4.4515,-4.4487,-4.444,-4.444,-4.443,-4.4373,-4.4411,-4.4373,-4.4244,-4.4304,-4.4177,-4.4005,-4.079,-4.08,-4.0804,-4.0803,-4.0846,-4.0878,-4.0807,-4.0849,-4.0878,-4.0878,-4.0907,-4.0907,-4.0907,-4.0888,-4.0878,-4.0907,-4.0839,-4.0804,-4.0803,-4.0803,-4.079,-4.079,-4.079,-4.079,-4.079,-4.079,-4.0808,-4.0796,-4.0796,-4.0828,-4.0878,-4.0898,-4.0849,-4.0787,-4.0859,-4.0856,-4.0803,-4.0792,-4.0812,-4.079,-4.079,-4.079,-4.079,-4.079,-4.079,-4.079,-4.079,-4.079,-4.079,-4.079,-4.079,-4.079,-4.079,-4.079,-4.079,-4.079,-4.079,-4.079,-4.0778,-4.0778,-4.0778,-4.0746,-4.0765,-4.0771,-4.0804,-4.0807,-4.0818,-4.0869,-4.0907,-4.0907,-4.0907,-4.0907,-4.0859,-4.0718,-4.0706,-4.0706,-4.0694,-4.0694,-4.0636,-4.0457,-4.0392,-4.0264,-3.9935,-3.9722,-3.9881,-4.056,-4.1962,-4.2835,-4.289,-4.3596,-4.4005,-4.4005,-4.4005,-4.4005,-4.4005,-4.4005,-4.4005,-4.4005,-4.4135,-4.4244,-4.4314,-4.4354,-4.4458,-4.4515,-4.4515,-4.4515,-4.4487,-4.4515,-4.4515,-4.4487,-4.4515,-4.443,-4.4285,-4.4285,-4.4177,-4.4005,-4.079,-4.0803,-4.0796,-4.0803,-4.0815,-4.0808,-4.0796,-4.0804,-4.0828,-4.0828,-4.0859,-4.0907,-4.0907,-4.0849,-4.0839,-4.0907,-4.0839,-4.0807,-4.0815,-4.0808,-4.079,-4.079,-4.079,-4.079,-4.079,-4.079,-4.0803,-4.0796,-4.0796,-4.0812,-4.0828,-4.0823,-4.0812,-4.0807,-4.0812,-4.0796,-4.079,-4.0796,-4.0803,-4.079,-4.079,-4.079,-4.079,-4.079,-4.079,-4.079,-4.079,-4.079,-4.079,-4.079,-4.079,-4.079,-4.079,-4.079,-4.079,-4.079,-4.079,-4.0778,-4.0598,-4.0569,-4.0539,-4.0372,-4.0457,-4.0598,-4.0752,-4.0792,-4.0787,-4.0828,-4.0859,-4.0907,-4.0907,-4.0907,-4.0859,-4.0718,-4.0796,-4.0828,-4.0706,-4.0694,-4.0681,-4.0636,-4.0399,-4.0157,-4.0001,-4.0207,-4.0896,-4.2196,-4.2593,-4.3076,-4.3708,-4.3912,-4.4005,-4.4005,-4.4005,-4.4005,-4.4005,-4.4005,-4.4005,-4.4005,-4.4135,-4.4244,-4.4314,-4.4354,-4.4458,-4.4515,-4.4515,-4.4487,-4.4411,-4.4487,-4.4487,-4.4411,-4.4487,-4.443,-4.4285,-4.4285,-4.4177,-4.3974,-4.079,-4.079,-4.079,-4.079,-4.079,-4.079,-4.079,-4.0808,-4.08,-4.08,-4.0834,-4.0856,-4.0856,-4.0823,-4.0823,-4.0846,-4.0823,-4.08,-4.08,-4.0796,-4.079,-4.079,-4.079,-4.079,-4.079,-4.079,-4.079,-4.079,-4.079,-4.0796,-4.08,-4.0796,-4.0796,-4.08,-4.0796,-4.079,-4.079,-4.079,-4.079,-4.079,-4.079,-4.079,-4.079,-4.079,-4.079,-4.079,-4.079,-4.079,-4.079,-4.079,-4.079,-4.079,-4.079,-4.0733,-4.066,-4.066,-4.0583,-4.0489,-4.0392,-4.0356,-4.0321,-4.0233,-4.0356,-4.0519,-4.064,-4.0725,-4.0807,-4.0848,-4.0878,-4.0907,-4.0907,-4.0907,-4.0819,-4.059,-4.0617,-4.0617,-4.0496,-4.0466,-4.0466,-4.0466,-4.0248,-4.0155,-4.0314,-4.1261,-4.2109,-4.2813,-4.323,-4.3608,-4.3986,-4.4005,-4.4005,-4.4005,-4.4005,-4.4005,-4.4005,-4.4005,-4.4005,-4.4005,-4.4135,-4.4244,-4.4314,-4.4354,-4.4458,-4.4515,-4.4515,-4.4487,-4.444,-4.4487,-4.4487,-4.444,-4.4487,-4.443,-4.4285,-4.4285,-4.4177,-4.3974,-4.079,-4.079,-4.079,-4.079,-4.079,-4.079,-4.079,-4.079,-4.079,-4.079,-4.079,-4.079,-4.079,-4.079,-4.079,-4.079,-4.079,-4.079,-4.079,-4.079,-4.079,-4.079,-4.079,-4.079,-4.079,-4.079,-4.079,-4.079,-4.079,-4.079,-4.079,-4.079,-4.079,-4.079,-4.079,-4.079,-4.079,-4.079,-4.079,-4.079,-4.079,-4.079,-4.079,-4.079,-4.079,-4.079,-4.079,-4.079,-4.079,-4.079,-4.079,-4.079,-4.079,-4.066,-4.0489,-4.0489,-4.0356,-4.0196,-4.0158,-4.0158,-4.0139,-4.012,-4.0251,-4.0389,-4.0403,-4.0596,-4.0773,-4.0804,-4.0807,-4.0809,-4.0809,-4.0819,-4.0746,-4.0392,-4.0412,-4.038,-4.0213,-4.0196,-4.0196,-4.0196,-4.0176,-4.034,-4.0858,-4.2283,-4.3166,-4.3133,-4.3804,-4.4135,-4.4036,-4.4005,-4.4005,-4.4005,-4.4005,-4.4005,-4.4005,-4.4005,-4.4005,-4.4005,-4.4135,-4.4244,-4.4314,-4.4354,-4.4458,-4.4515,-4.4515,-4.4487,-4.4487,-4.4515,-4.4487,-4.4487,-4.4515,-4.443,-4.4314,-4.4285,-4.4147,-4.3942,-4.079,-4.079,-4.079,-4.079,-4.079,-4.079,-4.079,-4.079,-4.079,-4.079,-4.079,-4.079,-4.079,-4.079,-4.079,-4.079,-4.079,-4.079,-4.079,-4.079,-4.079,-4.079,-4.079,-4.079,-4.079,-4.079,-4.079,-4.079,-4.079,-4.079,-4.079,-4.079,-4.079,-4.079,-4.079,-4.079,-4.079,-4.079,-4.079,-4.079,-4.079,-4.079,-4.079,-4.079,-4.079,-4.079,-4.079,-4.079,-4.079,-4.079,-4.079,-4.079,-4.079,-4.066,-4.0489,-4.0489,-4.0356,-4.0158,-3.9979,-3.9956,-3.9892,-3.9708,-3.9826,-3.9979,-3.9979,-4.0336,-4.0588,-4.0415,-4.0427,-4.0453,-4.0389,-4.0511,-4.0516,-4.0194,-4.038,-4.0492,-4.0251,-4.0196,-4.0196,-4.0196,-4.0539,-4.1029,-4.1675,-4.2511,-4.3324,-4.4061,-4.4188,-4.4184,-4.4184,-4.4055,-4.4005,-4.4005,-4.4005,-4.4005,-4.4005,-4.4005,-4.4005,-4.4005,-4.4135,-4.4244,-4.4314,-4.4354,-4.4458,-4.4515,-4.4515,-4.4487,-4.4411,-4.4487,-4.4487,-4.4411,-4.4487,-4.444,-4.4354,-4.4274,-4.4061,-4.3818,-4.079,-4.079,-4.079,-4.079,-4.079,-4.079,-4.079,-4.079,-4.079,-4.079,-4.079,-4.079,-4.079,-4.079,-4.079,-4.079,-4.079,-4.079,-4.079,-4.079,-4.079,-4.079,-4.079,-4.079,-4.079,-4.079,-4.079,-4.079,-4.079,-4.079,-4.079,-4.079,-4.079,-4.079,-4.079,-4.079,-4.079,-4.079,-4.079,-4.079,-4.079,-4.079,-4.079,-4.079,-4.079,-4.079,-4.079,-4.079,-4.079,-4.079,-4.079,-4.0778,-4.066,-4.0489,-4.0304,-4.0196,-4.002,-3.9848,-3.9754,-3.9731,-3.9703,-3.9626,-3.9754,-3.987,-3.9754,-4.0,-4.0267,-4.03,-4.0296,-4.029,-4.031,-4.0373,-4.0361,-4.0139,-4.0248,-4.0283,-4.006,-3.9979,-4.0046,-4.0431,-4.1079,-4.1792,-4.2529,-4.3353,-4.3961,-4.4296,-4.4255,-4.4195,-4.4085,-4.4036,-4.4005,-4.4005,-4.4005,-4.4005,-4.4005,-4.4005,-4.4036,-4.4104,-4.4195,-4.4244,-4.4244,-4.4314,-4.4373,-4.4401,-4.443,-4.4411,-4.4411,-4.4468,-4.4487,-4.4458,-4.4487,-4.4354,-4.4158,-4.4073,-4.3883,-4.36]}]]